[[{"header":{"parameterUnit":"m.s-1","parameterCategory":1,"la1":31.0,"la2":29.5877,"lo1":-88.7671,"lo2":-86.6584,"dx":0.0162,"dy":0.0185,"nx":115,"ny":88,"refTime":"2022-12-19T06:00:00:Z","depth":0,"parameterNumber":2,"parameterNumberName":"U-component_of_WINDS"},"data":[0.0,0.0,0.0,0.0,0.0,0.0,0.0,0.0,0.0,0.0,0.0,0.0,0.0,0.0,0.0,0.0,0.0,0.0,0.0,0.0,0.0,0.0,0.0,0.0,0.0,0.0,0.0,0.0,0.0,0.0,0.0,0.0,0.0,0.0,0.0,0.0,0.0,0.0,0.0,0.0,0.0,0.0,0.0,0.0,0.0,0.0,0.0,0.0,0.0,0.0,0.0,0.0,0.0,0.0,0.0,0.0,0.0,0.0,0.0,0.0,0.0,0.0,0.0,0.0,0.0,0.0,0.0,0.0,0.0,0.0,0.0,0.0,0.0,0.0,0.0,0.0,0.0,0.0,0.0,0.0,0.0,0.0,0.0,0.0,0.0,0.0,0.0,0.0,0.0,0.0,0.0,0.0,0.0,0.0,0.0,0.0,0.0,0.0,0.0,0.0,0.0,0.0,0.0,0.0,0.0,0.0,0.0,0.0,0.0,0.0,0.0,0.0,0.0,0.0,0.0,0.0,0.0,0.0,0.0,0.0,0.0,0.0,0.0,0.0,0.0,0.0,0.0,0.0,0.0,0.0,0.0,0.0,0.0,0.0,0.0,0.0,0.0,0.0,0.0,0.0,0.0,0.0,0.0,0.0,0.0,0.0,0.0,0.0,0.0,0.0,0.0,0.0,0.0,0.0,0.0,0.0,0.0,0.0,0.0,0.0,0.0,0.0,0.0,0.0,0.0,0.0,0.0,0.0,0.0,0.0,0.0,0.0,0.0,0.0,0.0,0.0,0.0,0.0,0.0,0.0,0.0,0.0,0.0,0.0,0.0,0.0,0.0,0.0,0.0,0.0,0.0,0.0,0.0,0.0,0.0,0.0,0.0,0.0,0.0,0.0,0.0,0.0,0.0,0.0,0.0,0.0,0.0,0.0,0.0,0.0,0.0,0.0,0.0,0.0,0.0,0.0,0.0,0.0,0.0,0.0,0.0,0.0,0.0,0.0,0.0,0.0,0.0,0.0,0.0,0.0,0.0,0.0,0.0,0.0,0.0,0.0,0.0,0.0,0.0,0.0,0.0,0.0,0.0,0.0,0.0,0.0,0.0,0.0,0.0,0.0,0.0,0.0,0.0,0.0,0.0,0.0,0.0,0.0,0.0,0.0,0.0,0.0,0.0,0.0,0.0,0.0,0.0,0.0,0.0,0.0,0.0,0.0,0.0,0.0,0.0,0.0,0.0,0.0,0.0,0.0,0.0,0.0,0.0,0.0,0.0,0.0,0.0,0.0,0.0,0.0,0.0,0.0,0.0,0.0,0.0,0.0,0.0,0.0,0.0,0.0,0.0,0.0,0.0,0.0,0.0,0.0,0.0,0.0,0.0,0.0,0.0,0.0,0.0,0.0,0.0,0.0,0.0,0.0,0.0,0.0,0.0,0.0,0.0,0.0,0.0,0.0,0.0,0.0,0.0,0.0,0.0,0.0,0.0,0.0,0.0,0.0,0.0,0.0,0.0,0.0,0.0,0.0,0.0,0.0,0.0,0.0,0.0,0.0,0.0,0.0,0.0,0.0,0.0,0.0,0.0,0.0,0.0,0.0,0.0,0.0,0.0,0.0,0.0,0.0,0.0,0.0,0.0,0.0,0.0,0.0,0.0,0.0,0.0,0.0,0.0,0.0,0.0,0.0,0.0,0.0,0.0,0.0,0.0,0.0,0.0,0.0,0.0,0.0,0.0,0.0,0.0,0.0,0.0,0.0,0.0,0.0,0.0,0.0,0.0,0.0,0.0,0.0,0.0,0.0,0.0,0.0,0.0,0.0,0.0,0.0,0.0,0.0,0.0,0.0,0.0,0.0,0.0,0.0,0.0,0.0,0.0,0.0,0.0,0.0,0.0,0.0,0.0,0.0,0.0,0.0,0.0,0.0,0.0,0.0,0.0,0.0,0.0,0.0,0.0,0.0,0.0,0.0,0.0,0.0,0.0,0.0,0.0,0.0,0.0,0.0,0.0,0.0,0.0,0.0,0.0,0.0,0.0,0.0,0.0,0.0,0.0,0.0,0.0,0.0,0.0,0.0,0.0,0.0,0.0,0.0,0.0,0.0,0.0,0.0,0.0,0.0,0.0,0.0,0.0,0.0,0.0,0.0,0.0,0.0,0.0,0.0,0.0,0.0,0.0,0.0,0.0,0.0,0.0,0.0,0.0,0.0,0.0,0.0,0.0,0.0,0.0,0.0,0.0,0.0,0.0,0.0,0.0,0.0,0.0,0.0,0.0,0.0,0.0,0.0,0.0,0.0,0.0,0.0,0.0,0.0,0.0,0.0,0.0,0.0,0.0,0.0,0.0,0.0,0.0,0.0,0.0,0.0,0.0,0.0,0.0,0.0,0.0,0.0,0.0,0.0,0.0,0.0,0.0,0.0,0.0,0.0,0.0,0.0,0.0,0.0,0.0,0.0,0.0,0.0,0.0,0.0,0.0,0.0,0.0,0.0,0.0,0.0,0.0,0.0,0.0,0.0,0.0,0.0,0.0,0.0,0.0,0.0,0.0,0.0,0.0,0.0,0.0,0.0,0.0,0.0,0.0,0.0,0.0,0.0,0.0,0.0,0.0,0.0,0.0,0.0,0.0,0.0,0.0,0.0,0.0,0.0,0.0,0.0,0.0,0.0,0.0,0.0,0.0,0.0,0.0,0.0,0.0,0.0,0.0,0.0,0.0,0.0,0.0,0.0,0.0,0.0,0.0,0.0,0.0,0.0,0.0,0.0,0.0,0.0,0.0,0.0,0.0,0.0,0.0,0.0,0.0,0.0,0.0,0.0,0.0,0.0,0.0,0.0,0.0,0.0,0.0,0.0,0.0,0.0,0.0,0.0,0.0,0.0,0.0,0.0,0.0,0.0,0.0,0.0,0.0,0.0,0.0,0.0,0.0,0.0,0.0,0.0,0.0,0.0,0.0,0.0,0.0,0.0,0.0,0.0,0.0,0.0,0.0,0.0,0.0,0.0,0.0,0.0,0.0,0.0,0.0,0.0,0.0,0.0,0.0,0.0,0.0,0.0,0.0,0.0,0.0,0.0,0.0,0.0,0.0,0.0,0.0,0.0,0.0,0.0,0.0,0.0,0.0,0.0,0.0,0.0,0.0,0.0,0.0,0.0,0.0,0.0,0.0,0.0,0.0,0.0,0.0,0.0,0.0,0.0,0.0,0.0,0.0,0.0,0.0,0.0,0.0,0.0,0.0,0.0,0.0,0.0,0.0,0.0,0.0,0.0,0.0,0.0,0.0,0.0,0.0,0.0,0.0,0.0,0.0,0.0,0.0,0.0,0.0,0.0,0.0,0.0,0.0,0.0,0.0,0.0,0.0,0.0,0.0,0.0,0.0,0.0,0.0,0.0,0.0,0.0,0.0,0.0,0.0,0.0,0.0,0.0,0.0,0.0,0.0,0.0,0.0,0.0,0.0,0.0,0.0,0.0,0.0,0.0,0.0,0.0,0.0,0.0,0.0,0.0,0.0,0.0,0.0,0.0,0.0,0.0,0.0,0.0,0.0,0.0,0.0,0.0,0.0,0.0,0.0,0.0,0.0,0.0,0.0,0.0,0.0,0.0,0.0,0.0,0.0,0.0,0.0,0.0,0.0,0.0,0.0,0.0,0.0,0.0,0.0,0.0,0.0,0.0,0.0,0.0,0.0,0.0,0.0,0.0,0.0,0.0,0.0,0.0,0.0,0.0,0.0,0.0,0.0,0.0,0.0,0.0,0.0,0.0,0.0,0.0,0.0,0.0,0.0,0.0,0.0,0.0,0.0,0.0,0.0,0.0,0.0,0.0,0.0,0.0,0.0,0.0,0.0,0.0,0.0,0.0,0.0,0.0,0.0,0.0,0.0,0.0,0.0,0.0,0.0,0.0,0.0,0.0,0.0,0.0,0.0,0.0,0.0,0.0,0.0,0.0,0.0,0.0,0.0,0.0,0.0,0.0,0.0,0.0,0.0,0.0,0.0,0.0,0.0,0.0,0.0,0.0,0.0,0.0,0.0,0.0,0.0,0.0,0.0,0.0,0.0,0.0,0.0,0.0,0.0,0.0,0.0,0.0,0.0,0.0,0.0,0.0,0.0,0.0,0.0,0.0,0.0,0.0,0.0,0.0,0.0,0.0,0.0,0.0,0.0,0.0,0.0,0.0,0.0,0.0,0.0,0.0,0.0,0.0,0.0,0.0,0.0,0.0,0.0,0.0,0.0,0.0,0.0,0.0,0.0,0.0,0.0,0.0,2.1677,0.0,0.0,0.0,2.0938,0.0,0.0,0.0,0.0,0.0,0.0,0.0,0.0,0.0,0.0,0.0,0.0,0.0,0.0,0.0,0.0,0.0,0.0,0.0,0.0,0.0,0.0,0.0,0.0,0.0,0.0,0.0,0.0,0.0,0.0,0.0,0.0,0.0,0.0,0.0,0.0,0.0,0.0,0.0,0.0,0.0,0.0,0.0,0.0,0.0,0.0,0.0,0.0,0.0,0.0,0.0,0.0,0.0,0.0,0.0,0.0,0.0,0.0,0.0,0.0,0.0,0.0,0.0,0.0,0.0,0.0,0.0,0.0,0.0,0.0,0.0,0.0,0.0,0.0,0.0,0.0,0.0,0.0,0.0,0.0,0.0,0.0,0.0,0.0,0.0,0.0,0.0,0.0,0.0,0.0,0.0,0.0,0.0,0.0,0.0,0.0,0.0,0.0,0.0,0.0,0.0,0.0,0.0,0.0,0.0,0.0,0.0,0.0,0.0,0.0,2.1526,2.1625,2.2723,2.2529,2.0735,0.0,0.0,0.0,0.0,0.0,0.0,0.0,0.0,0.0,0.0,0.0,0.0,0.0,0.0,0.0,0.0,0.0,0.0,0.0,0.0,0.0,0.0,0.0,0.0,0.0,0.0,0.0,0.0,0.0,0.0,0.0,0.0,0.0,0.0,0.0,0.0,0.0,0.0,0.0,0.0,0.0,0.0,0.0,0.0,0.0,0.0,0.0,0.0,0.0,0.0,0.0,0.0,0.0,0.0,0.0,0.0,0.0,0.0,0.0,0.0,0.0,0.0,0.0,0.0,0.0,0.0,0.0,0.0,0.0,0.0,0.0,0.0,0.0,0.0,0.0,0.0,0.0,0.0,0.0,0.0,0.0,0.0,0.0,0.0,0.0,0.0,0.0,0.0,0.0,0.0,0.0,0.0,0.0,0.0,0.0,0.0,0.0,0.0,0.0,0.0,0.0,0.0,0.0,0.0,0.0,0.0,0.0,0.0,0.0,0.0,0.0,0.0,2.285,2.2514,2.0389,0.0,0.0,0.0,0.0,0.0,0.0,0.0,0.0,0.0,0.0,0.0,0.0,0.0,0.0,0.0,0.0,0.0,0.0,0.0,0.0,0.0,0.0,0.0,0.0,0.0,0.0,0.0,0.0,0.0,0.0,0.0,0.0,0.0,0.0,0.0,0.0,0.0,0.0,0.0,0.0,0.0,0.0,0.0,0.0,0.0,0.0,0.0,0.0,0.0,0.0,0.0,0.0,0.0,0.0,0.0,0.0,0.0,0.0,0.0,0.0,0.0,0.0,0.0,0.0,0.0,0.0,0.0,0.0,0.0,0.0,0.0,0.0,0.0,0.0,0.0,0.0,0.0,0.0,0.0,0.0,0.0,0.0,0.0,0.0,0.0,0.0,0.0,0.0,0.0,0.0,0.0,0.0,0.0,0.0,0.0,0.0,0.0,0.0,0.0,0.0,0.0,0.0,0.0,0.0,0.0,0.0,0.0,0.0,0.0,0.0,2.0527,2.1902,2.2147,0.0,1.9006,0.0,0.0,0.0,0.0,0.0,0.0,0.0,0.0,0.0,0.0,0.0,0.0,0.0,0.0,0.0,0.0,0.0,0.0,0.0,0.0,0.0,0.0,0.0,0.0,0.0,0.0,0.0,0.0,0.0,0.0,0.0,0.0,0.0,0.0,0.0,0.0,0.0,0.0,0.0,0.0,0.0,0.0,0.0,0.0,0.0,0.0,0.0,0.0,0.0,0.0,0.0,0.0,0.0,0.0,0.0,0.0,0.0,0.0,0.0,0.0,0.0,0.0,0.0,0.0,0.0,0.0,0.0,0.0,0.0,0.0,0.0,0.0,0.0,0.0,0.0,0.0,0.0,0.0,0.0,0.0,0.0,0.0,0.0,0.0,0.0,0.0,0.0,0.0,0.0,0.0,0.0,0.0,0.0,0.0,0.0,0.0,0.0,0.0,0.0,0.0,0.0,0.0,0.0,0.0,0.0,0.0,0.0,0.0,0.0,0.0,2.1253,2.2055,2.1452,2.0242,0.0,0.0,0.0,0.0,0.0,0.0,0.0,0.0,0.0,0.0,0.0,0.0,0.0,0.0,0.0,0.0,0.0,0.0,0.0,0.0,0.0,0.0,0.0,0.0,0.0,0.0,0.0,0.0,0.0,0.0,0.0,0.0,0.0,0.0,0.0,0.0,0.0,0.0,0.0,0.0,0.0,0.0,0.0,0.0,0.0,0.0,0.0,0.0,0.0,0.0,0.0,0.0,0.0,0.0,0.0,0.0,0.0,0.0,0.0,0.0,0.0,0.0,0.0,0.0,0.0,0.0,0.0,0.0,0.0,0.0,0.0,0.0,0.0,0.0,0.0,0.0,0.0,0.0,0.0,0.0,0.0,0.0,0.0,0.0,0.0,0.0,0.0,0.0,0.0,0.0,0.0,0.0,0.0,0.0,0.0,0.0,0.0,0.0,0.0,0.0,0.0,0.0,0.0,0.0,0.0,0.0,0.0,0.0,0.0,0.0,2.1285,2.1921,2.2346,2.1163,1.9679,1.7987,0.0,0.0,0.0,0.0,0.0,0.0,0.0,0.0,0.0,0.0,0.0,0.0,0.0,0.0,0.0,0.0,0.0,0.0,0.0,0.0,0.0,0.0,0.0,0.0,0.0,0.0,0.0,0.0,0.0,0.0,0.0,0.0,0.0,0.0,0.0,0.0,0.0,0.0,0.0,0.0,0.0,0.0,0.0,0.0,0.0,0.0,0.0,0.0,0.0,0.0,0.0,0.0,0.0,0.0,0.0,0.0,0.0,0.0,0.0,0.0,0.0,0.0,0.0,0.0,0.0,0.0,0.0,0.0,0.0,0.0,0.0,0.0,0.0,0.0,0.0,0.0,0.0,0.0,0.0,0.0,0.0,0.0,0.0,0.0,0.0,0.0,0.0,0.0,0.0,0.0,0.0,0.0,0.0,0.0,0.0,0.0,0.0,0.0,0.0,0.0,0.0,0.0,0.0,0.0,0.0,0.0,0.0,0.0,2.2403,2.1984,2.2222,2.3262,2.1422,1.9653,0.0,0.0,0.0,0.0,0.0,0.0,0.0,0.0,0.0,0.0,0.0,0.0,0.0,0.0,0.0,0.0,0.0,0.0,0.0,0.0,0.0,0.0,0.0,0.0,0.0,0.0,0.0,0.0,0.0,0.0,0.0,0.0,0.0,0.0,0.0,0.0,0.0,0.0,0.0,0.0,0.0,0.0,0.0,0.0,0.0,0.0,0.0,0.0,0.0,0.0,0.0,0.0,0.0,0.0,0.0,0.0,0.0,0.0,0.0,0.0,0.0,0.0,0.0,0.0,0.0,0.0,0.0,0.0,0.0,0.0,0.0,0.0,0.0,0.0,0.0,0.0,0.0,0.0,0.0,0.0,0.0,0.0,0.0,0.0,0.0,0.0,0.0,0.0,0.0,0.0,0.0,0.0,0.0,0.0,0.0,0.0,0.0,0.0,0.0,0.0,0.0,0.0,0.0,0.0,0.0,0.0,0.0,0.0,0.0,2.0803,2.1549,2.2666,2.4031,2.1764,1.9937,0.0,0.0,0.0,0.0,0.0,0.0,0.0,0.0,0.0,0.0,0.0,0.0,0.0,0.0,0.0,0.0,0.0,0.0,0.0,0.0,0.0,0.0,0.0,0.0,0.0,0.0,0.0,0.0,0.0,0.0,0.0,0.0,0.0,0.0,0.0,0.0,0.0,0.0,0.0,0.0,0.0,0.0,0.0,0.0,0.0,0.0,0.0,0.0,0.0,0.0,0.0,0.0,0.0,0.0,0.0,0.0,0.0,0.0,0.0,0.0,0.0,0.0,0.0,0.0,0.0,0.0,0.0,0.0,0.0,0.0,0.0,0.0,0.0,0.0,0.0,0.0,0.0,0.0,0.0,0.0,0.0,0.0,0.0,0.0,0.0,0.0,0.0,0.0,0.0,0.0,0.0,0.0,0.0,0.0,0.0,0.0,0.0,0.0,0.0,0.0,0.0,0.0,0.0,0.0,0.0,0.0,0.0,0.0,0.0,2.1634,2.3762,2.4926,2.4841,2.2791,2.0593,0.0,0.0,0.0,0.0,0.0,0.0,0.0,0.0,0.0,0.0,0.0,0.0,0.0,0.0,0.0,0.0,0.0,0.0,0.0,0.0,0.0,0.0,0.0,0.0,0.0,0.0,0.0,0.0,0.0,0.0,0.0,0.0,0.0,0.0,0.0,0.0,0.0,0.0,0.0,0.0,0.0,0.0,0.0,0.0,0.0,0.0,0.0,0.0,0.0,0.0,0.0,0.0,0.0,0.0,0.0,0.0,0.0,0.0,0.0,0.0,0.0,0.0,0.0,0.0,0.0,0.0,0.0,0.0,0.0,0.0,0.0,0.0,0.0,0.0,0.0,0.0,0.0,0.0,0.0,0.0,0.0,0.0,0.0,0.0,0.0,0.0,0.0,0.0,0.0,0.0,0.0,0.0,0.0,0.0,0.0,0.0,0.0,0.0,0.0,0.0,0.0,0.0,0.0,0.0,0.0,0.0,0.0,0.0,2.1685,2.5387,2.8664,2.8676,2.5681,2.4432,2.1557,0.0,0.0,0.0,0.0,0.0,0.0,0.0,0.0,0.0,0.0,0.0,0.0,0.0,0.0,0.0,0.0,0.0,0.0,0.0,0.0,0.0,0.0,0.0,0.0,0.0,0.0,0.0,0.0,0.0,0.0,0.0,0.0,0.0,0.0,0.0,0.0,0.0,0.0,0.0,0.0,0.0,0.0,0.0,0.0,0.0,0.0,0.0,0.0,0.0,0.0,0.0,0.0,0.0,0.0,0.0,0.0,0.0,0.0,0.0,0.0,0.0,0.0,0.0,0.0,0.0,0.0,0.0,0.0,0.0,0.0,0.0,0.0,0.0,0.0,0.0,0.0,0.0,0.0,0.0,0.0,0.0,0.0,0.0,0.0,0.0,0.0,0.0,0.0,0.0,0.0,0.0,0.0,0.0,0.0,0.0,0.0,0.0,0.0,0.0,0.0,0.0,0.0,0.0,0.0,0.0,0.0,0.0,0.0,0.0,2.333,2.6458,2.7212,2.5248,2.3903,2.2159,0.0,0.0,0.0,0.0,0.0,0.0,0.0,0.0,0.0,0.0,0.0,0.0,0.0,0.0,0.0,0.0,0.0,0.0,0.0,0.0,0.0,0.0,0.0,0.0,0.0,0.0,0.0,0.0,0.0,0.0,0.0,0.0,0.0,0.0,0.0,0.0,0.0,0.0,0.0,0.0,0.0,0.0,0.0,0.0,0.0,0.0,0.0,0.0,0.0,0.0,0.0,0.0,0.0,0.0,0.0,0.0,0.0,0.0,0.0,0.0,0.0,0.0,0.0,0.0,0.0,0.0,0.0,0.0,0.0,0.0,0.0,0.0,0.0,0.0,0.0,0.0,0.0,0.0,0.0,0.0,0.0,0.0,0.0,0.0,0.0,0.0,0.0,0.0,0.0,0.0,0.0,0.0,0.0,0.0,0.0,0.0,0.0,0.0,0.0,0.0,0.0,0.0,0.0,0.0,0.0,0.0,0.0,0.0,0.0,2.4757,2.7809,2.8473,2.6397,2.4793,2.2868,2.0595,0.0,0.0,0.0,0.0,0.0,0.0,0.0,0.0,0.0,0.0,0.0,0.0,0.0,0.0,0.0,0.0,0.0,0.0,0.0,0.0,0.0,0.0,0.0,0.0,0.0,0.0,0.0,0.0,0.0,0.0,0.0,0.0,0.0,0.0,0.0,0.0,0.0,0.0,0.0,0.0,0.0,0.0,0.0,0.0,0.0,0.0,0.0,0.0,0.0,0.0,0.0,0.0,0.0,0.0,0.0,0.0,0.0,0.0,0.0,0.0,0.0,0.0,0.0,0.0,0.0,0.0,0.0,0.0,0.0,0.0,0.0,0.0,0.0,0.0,0.0,0.0,0.0,0.0,0.0,0.0,0.0,0.0,0.0,0.0,0.0,0.0,0.0,0.0,0.0,0.0,0.0,0.0,0.0,0.0,0.0,0.0,0.0,0.0,0.0,0.0,0.0,0.0,0.0,0.0,0.0,0.0,0.0,0.0,2.8543,3.1832,3.19,2.8638,2.6694,2.3718,0.0,0.0,0.0,0.0,0.0,0.0,0.0,0.0,0.0,0.0,0.0,0.0,0.0,0.0,0.0,0.0,0.0,0.0,0.0,0.0,0.0,0.0,0.0,0.0,0.0,0.0,0.0,0.0,0.0,0.0,0.0,0.0,0.0,0.0,0.0,0.0,0.0,0.0,0.0,0.0,0.0,0.0,0.0,0.0,0.0,0.0,0.0,0.0,0.0,0.0,0.0,0.0,0.0,0.0,0.0,0.0,0.0,0.0,0.0,0.0,0.0,0.0,0.0,0.0,0.0,0.0,0.0,0.0,0.0,0.0,0.0,0.0,0.0,0.0,0.0,0.0,0.0,0.0,0.0,0.0,0.0,0.0,0.0,0.0,0.0,0.0,0.0,0.0,0.0,0.0,0.0,0.0,0.0,0.0,0.0,0.0,0.0,0.0,0.0,0.0,0.0,0.0,0.0,0.0,0.0,0.0,0.0,0.0,0.0,2.9336,3.1132,3.0974,2.8745,2.6932,2.4719,0.0,0.0,0.0,0.0,0.0,0.0,0.0,0.0,0.0,0.0,0.0,0.0,0.0,0.0,0.0,0.0,0.0,0.0,0.0,0.0,0.0,0.0,0.0,0.0,0.0,0.0,0.0,0.0,0.0,0.0,0.0,0.0,0.0,0.0,0.0,0.0,0.0,0.0,0.0,0.0,0.0,0.0,0.0,0.0,0.0,0.0,0.0,0.0,0.0,0.0,0.0,0.0,0.0,0.0,0.0,0.0,0.0,0.0,0.0,0.0,0.0,0.0,0.0,0.0,0.0,0.0,0.0,0.0,0.0,0.0,0.0,0.0,0.0,0.0,0.0,0.0,0.0,0.0,0.0,0.0,0.0,0.0,0.0,0.0,0.0,0.0,0.0,0.0,0.0,0.0,0.0,0.0,0.0,0.0,0.0,0.0,0.0,0.0,0.0,0.0,0.0,0.0,0.0,0.0,0.0,0.0,0.0,0.0,2.9305,3.1505,3.1878,3.1171,2.9367,2.7469,2.5468,0.0,0.0,0.0,0.0,0.0,0.0,0.0,0.0,0.0,0.0,0.0,0.0,0.0,0.0,0.0,0.0,0.0,0.0,0.0,0.0,0.0,0.0,0.0,0.0,0.0,0.0,0.0,0.0,0.0,0.0,0.0,0.0,0.0,0.0,0.0,0.0,0.0,0.0,0.0,0.0,0.0,0.0,0.0,0.0,0.0,0.0,0.0,0.0,0.0,0.0,0.0,0.0,0.0,0.0,0.0,0.0,0.0,0.0,0.0,0.0,0.0,0.0,0.0,0.0,0.0,0.0,0.0,0.0,0.0,0.0,0.0,0.0,0.0,0.0,0.0,0.0,0.0,0.0,0.0,0.0,0.0,0.0,0.0,0.0,0.0,0.0,0.0,0.0,0.0,0.0,0.0,0.0,0.0,0.0,0.0,0.0,0.0,0.0,0.0,0.0,0.0,0.0,0.0,0.0,0.0,0.0,0.0,0.0,3.0679,3.4219,3.3296,3.1967,3.0357,2.8164,2.5908,0.0,0.0,0.0,0.0,0.0,0.0,0.0,0.0,0.0,0.0,0.0,0.0,0.0,0.0,0.0,0.0,0.0,0.0,0.0,0.0,0.0,0.0,0.0,0.0,0.0,0.0,0.0,0.0,0.0,0.0,0.0,0.0,0.0,0.0,0.0,0.0,0.0,0.0,0.0,0.0,0.0,0.0,0.0,0.0,0.0,0.0,0.0,0.0,0.0,0.0,0.0,0.0,0.0,0.0,0.0,0.0,0.0,0.0,0.0,0.0,0.0,0.0,0.0,0.0,0.0,0.0,0.0,0.0,0.0,0.0,0.0,0.0,0.0,0.0,0.0,0.0,0.0,0.0,0.0,0.0,0.0,0.0,0.0,0.0,0.0,0.0,0.0,0.0,0.0,0.0,0.0,0.0,0.0,0.0,0.0,0.0,0.0,0.0,0.0,0.0,0.0,0.0,0.0,0.0,0.0,0.0,0.0,0.0,3.3061,3.5046,3.3354,3.1996,3.1132,2.8489,2.5406,0.0,0.0,0.0,0.0,0.0,0.0,0.0,0.0,0.0,0.0,0.0,0.0,0.0,0.0,0.0,0.0,0.0,0.0,0.0,0.0,0.0,0.0,0.0,0.0,0.0,0.0,0.0,0.0,0.0,0.0,0.0,0.0,0.0,0.0,0.0,0.0,0.0,0.0,0.0,0.0,0.0,0.0,0.0,0.0,0.0,0.0,0.0,0.0,2.2382,0.0,0.0,0.0,0.0,0.0,0.0,0.0,0.0,0.0,0.0,0.0,0.0,0.0,0.0,0.0,0.0,0.0,0.0,0.0,0.0,0.0,0.0,0.0,0.0,0.0,0.0,0.0,0.0,0.0,0.0,0.0,0.0,0.0,0.0,0.0,0.0,0.0,0.0,0.0,0.0,0.0,0.0,0.0,0.0,0.0,0.0,0.0,0.0,0.0,0.0,0.0,0.0,0.0,0.0,0.0,0.0,0.0,0.0,0.0,3.201,3.3078,3.2071,3.0954,2.9786,2.7883,2.5291,0.0,0.0,0.0,0.0,0.0,0.0,0.0,0.0,0.0,0.0,0.0,0.0,0.0,0.0,0.0,0.0,0.0,0.0,0.0,0.0,0.0,0.0,0.0,0.0,0.0,0.0,0.0,0.0,0.0,0.0,0.0,0.0,0.0,0.0,0.0,0.0,0.0,0.0,0.0,0.0,0.0,0.0,0.0,0.0,0.0,0.0,0.0,0.0,0.0,0.0,0.0,0.0,0.0,0.0,0.0,0.0,0.0,0.0,0.0,0.0,0.0,0.0,0.0,0.0,0.0,0.0,0.0,0.0,0.0,0.0,0.0,0.0,0.0,0.0,0.0,0.0,0.0,0.0,0.0,0.0,0.0,0.0,0.0,0.0,0.0,0.0,0.0,0.0,0.0,0.0,0.0,0.0,0.0,0.0,0.0,0.0,0.0,0.0,0.0,0.0,0.0,0.0,0.0,0.0,0.0,0.0,0.0,2.8875,3.0171,3.0986,3.0669,2.9687,2.8118,2.7015,2.508,2.2261,0.0,0.0,0.0,0.0,0.0,0.0,0.0,0.0,0.0,0.0,0.0,0.0,0.0,0.0,0.0,0.0,0.0,0.0,0.0,0.0,0.0,0.0,0.0,0.0,0.0,0.0,0.0,0.0,0.0,0.0,0.0,0.0,0.0,0.0,0.0,0.0,0.0,0.0,1.7563,1.8895,0.0,0.0,0.0,0.0,0.0,0.0,0.0,0.0,2.2826,0.0,0.0,0.0,0.0,0.0,0.0,0.0,0.0,0.0,0.0,0.0,0.0,0.0,0.0,0.0,0.0,0.0,0.0,0.0,0.0,0.0,0.0,0.0,0.0,0.0,0.0,0.0,0.0,0.0,0.0,0.0,0.0,0.0,0.0,0.0,0.0,0.0,0.0,0.0,0.0,0.0,0.0,0.0,0.0,0.0,0.0,0.0,0.0,0.0,0.0,0.0,0.0,0.0,0.0,0.0,0.0,3.0591,3.0155,3.0874,3.2857,3.0919,2.9513,2.8783,2.6786,2.4069,2.0771,0.0,0.0,0.0,0.0,0.0,0.0,0.0,0.0,0.0,0.0,0.0,0.0,0.0,0.0,0.0,0.0,0.0,0.0,0.0,0.0,0.0,0.0,0.0,0.0,0.0,0.0,0.0,0.0,0.0,0.0,0.0,0.0,0.0,0.0,0.0,0.0,0.0,0.0,0.0,2.0849,2.1447,0.0,0.0,0.0,0.0,0.0,0.0,0.0,0.0,2.298,0.0,0.0,0.0,0.0,0.0,0.0,0.0,0.0,0.0,0.0,0.0,0.0,0.0,0.0,0.0,0.0,0.0,0.0,0.0,0.0,0.0,0.0,0.0,0.0,0.0,0.0,0.0,0.0,0.0,0.0,0.0,0.0,0.0,0.0,0.0,0.0,0.0,0.0,0.0,0.0,0.0,0.0,0.0,0.0,0.0,0.0,0.0,0.0,0.0,0.0,0.0,0.0,0.0,0.0,0.0,2.8807,2.9497,2.9923,3.0175,2.91,2.8365,2.8095,2.6396,2.4062,0.0,0.0,0.0,0.0,0.0,0.0,0.0,0.0,0.0,0.0,0.0,0.0,0.0,0.0,0.0,0.0,0.0,0.0,0.0,0.0,0.0,0.0,0.0,0.0,0.0,0.0,0.0,0.0,0.0,0.0,0.0,0.0,0.0,0.0,0.0,0.0,0.0,0.0,0.0,0.0,2.2139,2.2853,2.4695,0.0,0.0,0.0,0.0,0.0,0.0,2.363,2.2292,0.0,0.0,0.0,0.0,0.0,0.0,0.0,0.0,0.0,0.0,0.0,0.0,0.0,0.0,0.0,0.0,0.0,0.0,0.0,0.0,0.0,0.0,0.0,0.0,0.0,0.0,0.0,0.0,0.0,0.0,0.0,0.0,0.0,0.0,0.0,0.0,0.0,0.0,0.0,0.0,0.0,0.0,0.0,0.0,0.0,0.0,0.0,0.0,0.0,0.0,0.0,0.0,0.0,0.0,0.0,2.653,2.8134,2.8471,2.7538,2.7483,2.7456,2.7376,2.6646,2.4879,0.0,0.0,0.0,0.0,0.0,0.0,0.0,0.0,0.0,0.0,0.0,0.0,0.0,0.0,0.0,0.0,0.0,0.0,0.0,0.0,0.0,0.0,0.0,0.0,0.0,0.0,0.0,0.0,0.0,0.0,0.0,0.0,0.0,0.0,0.0,0.0,0.0,0.0,0.0,0.0,0.0,2.4562,2.6003,2.4797,0.0,0.0,0.0,0.0,2.5779,2.4092,0.0,0.0,0.0,0.0,0.0,0.0,0.0,0.0,0.0,0.0,0.0,0.0,0.0,0.0,0.0,0.0,0.0,0.0,0.0,0.0,0.0,0.0,0.0,0.0,0.0,0.0,0.0,0.0,0.0,0.0,0.0,0.0,0.0,0.0,0.0,0.0,0.0,0.0,0.0,0.0,0.0,0.0,0.0,0.0,0.0,0.0,0.0,0.0,0.0,0.0,0.0,0.0,0.0,0.0,0.0,0.0,2.6287,2.6414,2.6973,2.8047,2.8085,2.7965,2.7684,2.8395,2.7027,0.0,0.0,0.0,0.0,0.0,0.0,0.0,0.0,0.0,0.0,0.0,0.0,0.0,0.0,0.0,0.0,0.0,0.0,0.0,0.0,0.0,0.0,0.0,0.0,0.0,0.0,0.0,0.0,0.0,0.0,0.0,0.0,0.0,0.0,0.0,0.0,0.0,0.0,0.0,0.0,0.0,2.6965,2.6452,2.6368,2.6446,0.0,0.0,2.6604,2.7793,2.6758,0.0,0.0,0.0,0.0,0.0,0.0,0.0,0.0,0.0,0.0,0.0,0.0,0.0,0.0,0.0,0.0,0.0,0.0,0.0,0.0,0.0,0.0,0.0,0.0,0.0,0.0,0.0,0.0,0.0,0.0,0.0,0.0,0.0,0.0,0.0,0.0,0.0,0.0,0.0,0.0,0.0,0.0,0.0,0.0,0.0,0.0,0.0,0.0,0.0,0.0,0.0,0.0,0.0,0.0,0.0,2.4038,2.6319,2.6763,2.7335,2.8152,2.8192,2.8125,2.7991,2.9031,2.7748,0.0,0.0,0.0,0.0,0.0,0.0,0.0,0.0,0.0,0.0,0.0,0.0,0.0,0.0,0.0,0.0,0.0,0.0,0.0,0.0,0.0,0.0,0.0,0.0,0.0,0.0,0.0,0.0,0.0,0.0,0.0,0.0,0.0,0.0,0.0,0.0,0.0,0.0,0.0,0.0,0.0,0.0,2.8848,2.8002,0.0,0.0,0.0,2.7909,2.967,0.0,0.0,0.0,0.0,0.0,0.0,0.0,0.0,0.0,0.0,0.0,0.0,0.0,0.0,0.0,0.0,0.0,0.0,0.0,0.0,0.0,0.0,0.0,0.0,0.0,0.0,0.0,0.0,0.0,0.0,0.0,0.0,0.0,0.0,0.0,0.0,0.0,0.0,0.0,0.0,0.0,0.0,0.0,0.0,0.0,0.0,0.0,0.0,0.0,0.0,0.0,0.0,0.0,0.0,0.0,0.0,0.0,2.6085,2.7224,2.7989,2.8393,2.8339,2.8512,2.895,3.0023,0.0,0.0,0.0,0.0,0.0,0.0,0.0,0.0,0.0,0.0,0.0,0.0,0.0,0.0,0.0,0.0,0.0,0.0,0.0,0.0,0.0,0.0,0.0,0.0,0.0,0.0,0.0,1.6611,0.0,0.0,0.0,0.0,0.0,0.0,0.0,0.0,0.0,0.0,0.0,0.0,0.0,0.0,2.9072,3.0292,2.927,2.9182,0.0,0.0,2.9054,3.1018,3.0629,2.9152,0.0,0.0,0.0,0.0,0.0,0.0,0.0,0.0,0.0,0.0,0.0,0.0,0.0,0.0,0.0,0.0,0.0,0.0,0.0,0.0,0.0,0.0,0.0,0.0,0.0,0.0,0.0,0.0,0.0,0.0,0.0,0.0,0.0,0.0,0.0,0.0,0.0,0.0,0.0,0.0,0.0,0.0,0.0,0.0,0.0,0.0,0.0,0.0,0.0,0.0,0.0,0.0,0.0,0.0,0.0,2.5245,2.7135,2.8433,2.8895,2.8711,2.9338,3.0951,3.1991,3.1092,0.0,0.0,0.0,0.0,0.0,0.0,0.0,0.0,0.0,0.0,0.0,0.0,0.0,0.0,0.0,0.0,0.0,0.0,0.0,0.0,0.0,0.0,0.0,0.0,0.0,0.0,0.0,0.0,0.0,0.0,0.0,0.0,0.0,0.0,0.0,0.0,0.0,0.0,0.0,0.0,0.0,2.9451,2.9249,2.978,3.0065,0.0,0.0,3.0556,3.1529,3.2496,3.1855,2.8171,0.0,0.0,0.0,0.0,0.0,0.0,0.0,0.0,0.0,0.0,0.0,0.0,0.0,0.0,0.0,0.0,0.0,0.0,0.0,0.0,0.0,0.0,0.0,0.0,0.0,0.0,0.0,0.0,0.0,0.0,0.0,0.0,0.0,0.0,0.0,0.0,0.0,0.0,0.0,0.0,0.0,0.0,0.0,0.0,0.0,0.0,0.0,0.0,0.0,0.0,0.0,0.0,0.0,2.5067,2.482,2.7041,2.8393,2.8751,2.8671,2.8827,2.9328,3.1795,3.177,0.0,0.0,0.0,0.0,0.0,0.0,0.0,0.0,0.0,0.0,0.0,0.0,0.0,0.0,0.0,0.0,0.0,0.0,0.0,0.0,0.0,0.0,0.0,0.0,0.0,0.0,0.0,0.0,2.3538,2.4861,2.4242,0.0,0.0,0.0,0.0,0.0,0.0,0.0,0.0,0.0,0.0,2.9555,2.9276,2.9261,0.0,0.0,3.1875,3.2328,3.4451,3.4233,3.3078,3.083,2.8769,0.0,0.0,0.0,0.0,0.0,0.0,0.0,0.0,0.0,0.0,0.0,0.0,0.0,0.0,0.0,0.0,0.0,0.0,0.0,0.0,0.0,0.0,0.0,0.0,0.0,0.0,0.0,0.0,0.0,0.0,0.0,0.0,0.0,0.0,0.0,0.0,0.0,0.0,0.0,0.0,0.0,0.0,0.0,0.0,0.0,0.0,0.0,0.0,0.0,0.0,0.0,0.0,2.5685,2.5483,2.727,2.8379,2.8724,2.8657,2.9068,3.0093,3.2241,3.2617,0.0,0.0,0.0,0.0,0.0,0.0,0.0,0.0,0.0,0.0,0.0,0.0,0.0,0.0,0.0,0.0,0.0,0.0,0.0,0.0,0.0,0.0,0.0,0.0,0.0,0.0,0.0,0.0,2.5787,2.6534,2.4419,0.0,0.0,0.0,0.0,0.0,0.0,0.0,0.0,0.0,0.0,2.9327,2.9182,2.928,3.0151,3.2278,3.2544,3.3175,3.5088,3.4983,3.4114,3.2472,0.0,0.0,0.0,0.0,0.0,0.0,0.0,0.0,0.0,0.0,0.0,0.0,0.0,0.0,0.0,0.0,0.0,0.0,0.0,0.0,0.0,0.0,0.0,0.0,0.0,0.0,0.0,0.0,0.0,0.0,1.9796,0.0,0.0,0.0,0.0,0.0,0.0,0.0,0.0,0.0,0.0,0.0,0.0,0.0,0.0,0.0,0.0,0.0,0.0,0.0,0.0,0.0,0.0,2.7158,2.743,2.7959,2.8444,2.8961,2.8751,3.0451,3.4018,3.3776,3.3989,3.508,0.0,0.0,0.0,0.0,0.0,0.0,0.0,0.0,0.0,0.0,0.0,0.0,0.0,0.0,0.0,0.0,0.0,0.0,0.0,0.0,0.0,0.0,0.0,0.0,0.0,0.0,2.3289,2.4643,2.4944,0.0,0.0,0.0,0.0,0.0,0.0,0.0,0.0,0.0,0.0,2.76,2.8687,2.8785,3.0112,3.0537,2.9306,3.1306,3.2889,3.2687,3.4463,3.5117,0.0,0.0,0.0,0.0,0.0,0.0,0.0,0.0,0.0,0.0,0.0,0.0,0.0,0.0,0.0,0.0,0.0,0.0,0.0,0.0,0.0,0.0,0.0,0.0,0.0,0.0,0.0,2.2905,2.1378,0.0,0.0,0.0,0.0,0.0,0.0,0.0,0.0,0.0,0.0,0.0,2.9833,3.0419,0.0,0.0,0.0,0.0,0.0,0.0,0.0,0.0,0.0,0.0,0.0,0.0,2.7795,2.7998,2.8676,2.9182,2.9369,3.0718,3.1835,3.272,3.51,3.6079,3.5407,0.0,0.0,0.0,0.0,0.0,0.0,0.0,0.0,0.0,0.0,0.0,0.0,0.0,0.0,0.0,0.0,0.0,0.0,0.0,0.0,0.0,0.0,0.0,0.0,0.0,2.5726,0.0,0.0,0.0,0.0,0.0,0.0,0.0,0.0,0.0,0.0,0.0,2.6961,2.5981,2.7412,2.8319,2.7555,2.812,2.9375,0.0,0.0,0.0,0.0,0.0,0.0,0.0,0.0,0.0,0.0,0.0,0.0,0.0,0.0,3.2843,2.8192,2.7264,2.7144,2.6928,0.0,0.0,0.0,0.0,0.0,0.0,0.0,0.0,0.0,0.0,0.0,0.0,0.0,0.0,2.546,0.0,2.331,0.0,0.0,0.0,0.0,0.0,0.0,0.0,0.0,2.8961,3.0109,3.1354,3.2656,3.2422,0.0,3.084,2.9058,0.0,0.0,0.0,0.0,0.0,0.0,0.0,0.0,2.8934,2.987,2.9509,2.9325,2.9413,3.1584,3.2883,3.3212,3.6984,3.8386,3.7016,3.5273,3.323,0.0,0.0,0.0,0.0,0.0,0.0,0.0,0.0,0.0,0.0,0.0,0.0,0.0,0.0,0.0,0.0,0.0,0.0,0.0,0.0,0.0,0.0,0.0,2.7286,0.0,0.0,0.0,0.0,0.0,0.0,0.0,0.0,0.0,2.3643,2.6125,2.7802,2.7252,2.8517,2.9134,2.8219,0.0,0.0,0.0,0.0,0.0,0.0,0.0,3.6191,3.6586,3.5215,3.418,3.4687,3.5803,3.6497,3.6061,0.0,0.0,3.0794,2.9447,2.8843,2.8571,2.9338,2.9556,2.8028,2.8526,2.8711,0.0,0.0,0.0,0.0,0.0,0.0,0.0,0.0,2.7744,2.753,0.0,2.577,0.0,0.0,0.0,0.0,0.0,2.762,0.0,0.0,3.1253,3.1782,3.2315,3.4226,3.4111,3.2092,3.2784,3.1789,2.928,2.9064,0.0,0.0,0.0,0.0,0.0,0.0,3.0558,3.2814,3.0381,2.9072,2.9259,3.1482,3.3727,3.5975,3.9385,4.0782,3.9902,3.7519,3.5318,3.3523,2.9484,0.0,0.0,0.0,0.0,0.0,0.0,0.0,0.0,0.0,0.0,0.0,0.0,0.0,0.0,0.0,0.0,0.0,0.0,0.0,0.0,2.7617,0.0,0.0,0.0,0.0,0.0,0.0,0.0,0.0,0.0,0.0,2.3637,2.5011,2.7056,2.9589,0.0,0.0,0.0,0.0,3.3254,3.2904,3.3864,3.5212,3.6935,3.7817,3.8202,3.7945,0.0,0.0,3.7553,3.7906,3.7914,3.6821,3.5847,3.5594,3.6426,3.2965,3.0378,3.0396,2.9496,2.8657,2.909,3.0211,3.0851,3.1025,0.0,0.0,0.0,0.0,3.09,3.1593,3.2267,3.2447,3.1332,2.9339,2.8886,0.0,0.0,0.0,0.0,0.0,0.0,2.8147,3.0607,3.1088,3.2151,3.3626,3.4223,3.4011,3.3116,3.3348,3.294,3.1932,3.2133,2.9817,2.5201,0.0,0.0,0.0,0.0,3.0131,3.1343,3.029,3.0444,3.212,3.4399,3.7293,4.0898,4.1683,4.1797,4.125,3.9941,3.8144,3.582,3.3086,0.0,0.0,0.0,0.0,0.0,0.0,0.0,0.0,0.0,0.0,0.0,0.0,0.0,0.0,0.0,0.0,0.0,0.0,0.0,2.7709,2.9873,3.0706,0.0,0.0,0.0,0.0,0.0,0.0,0.0,0.0,0.0,2.5879,2.7693,2.8661,0.0,0.0,2.8841,2.8288,2.941,3.0859,3.2274,3.2778,0.0,0.0,3.5054,3.5421,3.7784,3.8519,3.8501,3.7727,3.6426,3.5347,3.4964,3.4677,3.4621,3.4765,3.318,3.1729,3.1929,3.1877,3.1427,3.0607,3.0843,3.0768,3.604,3.3587,3.2514,3.2672,3.3663,3.4096,3.4759,3.5537,3.5457,3.4421,3.2734,3.2402,3.1258,2.9526,2.895,0.0,0.0,0.0,2.8544,3.0981,3.0548,3.1036,3.238,3.3332,3.3278,3.236,3.284,3.2783,3.2143,3.1869,2.9852,2.6205,0.0,0.0,2.9913,3.003,3.0751,3.2,3.0887,3.0971,3.2369,3.5382,3.911,4.3388,4.3008,4.2558,4.2305,4.1328,3.9902,3.8044,3.5723,3.3281,0.0,0.0,0.0,0.0,0.0,0.0,0.0,0.0,0.0,0.0,0.0,2.7243,2.4816,0.0,0.0,0.0,2.7151,2.7927,3.0078,3.1672,0.0,0.0,0.0,0.0,0.0,0.0,0.0,2.8854,2.8134,2.7513,2.7538,2.8827,2.9531,2.8835,2.9495,2.986,2.9369,0.0,3.0979,3.2152,3.2293,3.2968,3.4804,3.4498,3.4749,3.6815,3.7164,3.7112,3.6823,3.5613,3.4736,3.4612,3.401,3.3431,3.3472,3.2063,3.1173,3.1886,3.1776,3.116,3.0132,3.0139,3.0015,4.0098,3.9746,3.5801,3.4941,3.6118,3.584,3.6562,3.7855,3.7183,3.6786,3.6592,3.5782,3.4015,3.1474,2.9232,0.0,3.115,2.9436,2.9682,3.143,2.9859,2.9299,2.9726,3.194,3.2107,3.0504,3.1654,3.1694,3.0767,2.97,2.9015,2.8877,3.1437,3.3167,3.3883,3.1978,3.1932,3.3824,3.1845,3.0887,3.1137,3.5349,3.9746,4.3994,4.3531,4.3164,4.3086,4.1933,4.0879,3.998,3.7637,3.5215,3.2843,0.0,0.0,0.0,0.0,0.0,0.0,0.0,0.0,0.0,0.0,0.0,0.0,0.0,0.0,0.0,3.2886,0.0,3.3021,3.3175,0.0,0.0,0.0,2.8801,2.9855,2.7775,2.6858,2.8264,0.0,0.0,2.8644,2.8925,2.9825,3.187,3.2421,3.2465,3.2096,3.2233,3.2569,3.2146,3.2143,3.2843,3.4455,3.4963,3.5152,3.5336,3.5346,3.5362,3.5304,3.4967,3.5009,3.4821,3.3464,3.2185,3.22,3.0633,2.9556,3.0998,3.0126,2.9105,2.8934,2.9122,2.9363,4.1816,4.1738,4.0684,3.9394,3.7988,3.8203,3.834,3.8398,3.8239,3.7509,3.6454,3.5924,3.4551,3.2588,3.0987,3.0665,3.1295,2.9902,2.9763,3.0616,3.0276,3.0207,3.052,3.109,3.1158,3.0767,3.1008,3.1049,3.0814,3.0515,3.0448,3.0595,3.151,3.1299,3.007,3.056,3.1104,3.1597,3.1058,3.1643,3.346,3.8014,4.0933,4.2075,4.3411,4.3926,4.3555,4.2637,4.1738,4.0898,3.9668,3.8398,3.7105,3.2617,0.0,0.0,0.0,0.0,0.0,0.0,0.0,0.0,0.0,3.3165,2.7837,0.0,3.1482,0.0,3.4599,3.5545,3.4943,3.5396,0.0,0.0,3.3009,3.1948,3.2171,3.02,2.9216,3.0207,2.9439,2.8938,2.9245,2.9526,2.9958,3.0743,3.053,3.0173,2.9854,3.0502,3.1038,3.1148,3.1207,3.1339,3.1991,3.3235,3.4113,3.3912,3.3925,3.3909,3.3925,3.2368,3.1324,3.1549,3.1262,3.0956,3.1134,3.0686,3.0496,3.0772,3.024,2.9642,2.9633,2.9993,3.0368,4.3125,4.3301,4.3301,4.1667,3.9122,3.9989,3.9624,3.8442,3.8273,3.7158,3.5366,3.4549,3.3589,3.254,3.1278,3.0776,3.093,3.0324,3.0247,3.0555,3.0734,3.0902,3.1229,3.1316,3.1383,3.1383,3.1503,3.1503,3.1383,3.155,3.1698,3.181,3.2019,3.147,3.0247,3.0969,3.1116,3.0608,3.0728,3.2496,3.6026,3.8368,4.037,4.2129,4.3414,4.3613,4.2617,4.2676,4.1973,4.0429,3.9668,3.8865,3.777,3.4434,3.3039,0.0,0.0,0.0,0.0,0.0,0.0,0.0,0.0,0.0,0.0,0.0,3.3194,3.2864,3.5671,3.7203,3.638,3.6253,3.6077,3.5776,3.3506,3.2022,3.2082,3.0495,2.9677,3.041,2.9984,2.974,3.0034,3.0207,3.0354,3.0574,3.0274,3.0007,2.9887,3.0261,3.0608,3.0768,3.0795,3.0795,3.0795,3.172,3.2401,3.229,3.2247,3.2247,3.2247,3.1193,3.0368,3.056,3.0555,3.0595,3.0755,3.0795,3.0795,3.0768,3.0648,3.0461,3.0341,3.0568,3.0795,4.3343,4.3438,4.3438,4.1831,3.9348,4.0596,3.994,3.7903,3.7543,3.6166,3.4045,3.2577,3.1915,3.1844,3.0901,3.048,3.0533,3.0728,3.0862,3.0915,3.1209,3.1476,3.173,3.2024,3.2158,3.2171,3.2433,3.2433,3.2171,3.2433,3.2541,3.2541,3.2581,3.2393,3.1957,3.2038,3.1746,3.099,3.1053,3.3383,3.8083,3.7843,3.9248,4.2529,4.339,4.3047,4.1523,4.2462,4.1934,3.9609,3.9101,3.8415,3.7242,3.6152,3.5297,0.0,3.3237,0.0,0.0,0.0,0.0,0.0,0.0,0.0,0.0,3.6145,3.5454,3.3544,3.6641,3.8328,3.7319,3.6405,3.5846,3.5634,3.273,3.0686,3.078,2.974,2.9268,2.986,3.014,3.0467,3.0648,3.0742,3.0742,3.0768,3.0795,3.0782,3.0822,3.0822,3.0875,3.0889,3.0902,3.0955,3.0889,3.0908,3.096,3.0887,3.0926,3.0795,3.0893,3.0801,3.0795,3.0835,3.0849,3.0862,3.0889,3.0915,3.0942,3.1009,3.1183,3.1196,3.0929,3.0902,3.0902,3.9872,3.8237,3.822,3.7895,3.7358,3.7607,3.7115,3.6025,3.5834,3.4965,3.3586,3.1842,3.104,3.1054,3.0818,3.0849,3.1062,3.1116,3.1276,3.1564,3.181,3.1971,3.2038,3.238,3.2514,3.25,3.2265,3.2326,3.25,3.2326,3.2185,3.2198,3.2474,3.2086,3.1129,0.0,0.0,0.0,3.3022,3.3943,3.6753,3.8649,3.9914,4.0715,4.3025,0.0,4.2833,4.2617,4.2012,4.0879,4.0761,0.0,0.0,0.0,0.0,0.0,0.0,0.0,0.0,0.0,0.0,0.0,3.7884,3.7512,3.5904,3.7461,3.7936,3.6656,3.8398,3.8839,3.6954,3.6585,3.5275,3.2511,3.1519,3.0742,2.9912,2.9545,2.9539,2.9873,2.9967,3.0114,3.0453,3.0493,3.0587,3.0768,3.0996,3.1129,3.1129,3.1129,3.1223,3.145,3.151,3.1396,3.1183,3.1142,3.1062,3.0862,3.0795,3.0808,3.0822,3.0808,3.0902,3.1089,3.1096,3.1223,3.145,3.1503,3.1557,3.1797,3.1891,3.177,3.1263,3.1343,3.155,3.8436,0.0,3.7535,3.6917,0.0,3.587,3.482,3.3233,3.4031,3.3464,3.1972,3.1316,3.0929,3.0808,3.1102,3.1223,3.1236,3.1383,3.153,3.1724,3.181,3.1971,3.2104,3.2265,3.238,3.238,3.2332,3.2318,3.238,3.2332,3.2367,3.2332,3.2527,3.2219,3.1524,3.283,3.3902,3.4799,3.5066,3.6452,3.8838,3.9777,4.0539,4.1286,0.0,0.0,0.0,0.0,0.0,0.0,0.0,0.0,0.0,0.0,0.0,3.8312,3.6997,3.7024,3.8833,3.8237,3.8629,4.0649,4.0586,3.9841,3.8451,3.9652,3.9739,3.799,3.8834,3.8621,3.6644,3.5364,3.4033,3.2446,3.1238,3.0312,2.9814,2.97,2.982,3.0074,3.0127,3.0247,3.0587,3.0568,3.0667,3.0768,3.0915,3.1009,3.1036,3.1263,3.1517,3.1698,3.1724,3.1657,3.1476,3.1436,3.141,3.1249,3.1223,3.1223,3.1223,3.1223,3.1276,3.141,3.145,3.1543,3.181,3.1877,3.1971,3.2286,3.2318,3.23,3.1931,3.2045,3.2152,3.7058,3.6998,3.6998,3.5881,3.4174,3.4174,3.291,3.0893,0.0,0.0,0.0,3.1089,3.1169,3.0982,3.151,3.1543,3.133,3.1557,3.1724,3.1724,3.1778,3.1877,3.2091,3.2158,3.2185,3.2198,3.2372,3.242,3.2185,3.242,3.2514,3.2514,3.2514,3.256,3.2798,3.5065,3.6233,3.6293,3.7396,3.9253,4.1836,4.1256,4.1428,4.2616,4.3418,4.3144,4.1739,4.2891,4.2578,4.0488,4.0332,4.0176,3.9766,3.8711,3.873,4.0059,3.9551,4.0119,4.2249,4.0784,4.0727,4.2993,4.1699,4.0806,4.0779,4.1107,4.0325,3.8014,3.8176,3.7608,3.5688,3.3843,3.2613,3.2632,3.0881,2.9753,2.982,2.9833,2.9927,3.0266,3.0306,3.0426,3.0648,3.0635,3.0662,3.0702,3.0702,3.0511,3.0267,3.0361,3.0325,2.9804,3.0032,3.0846,3.0954,3.1434,3.1664,3.1671,3.1684,3.1724,3.1724,3.1717,3.1791,3.1791,3.1831,3.1979,3.2118,3.2185,3.2291,3.2607,3.2674,3.2688,3.2741,3.2755,3.2701,3.358,3.1836,3.1836,3.1665,3.1389,3.1389,3.1145,3.0855,3.1326,3.1523,3.1537,3.157,3.1583,3.1604,3.1671,3.1698,3.1657,3.1698,3.1724,0.0,3.1931,3.2064,3.2118,3.2407,3.2541,3.2514,3.2313,3.2278,3.2487,3.2313,3.2158,3.2171,3.2158,3.3084,3.5054,3.9279,4.1503,4.1513,4.0423,4.1018,4.3308,4.3294,4.3322,4.3513,4.4023,4.4023,4.3379,4.3242,4.2832,4.2109,4.203,4.1991,4.1913,4.1406,4.1289,4.1504,4.1406,4.1523,4.1895,4.1915,4.1449,4.0202,3.8226,3.7646,3.9164,3.9386,3.8405,3.62,3.6017,3.5113,3.3163,3.2526,3.1584,3.0038,2.9384,2.9215,2.9539,2.9579,2.9686,2.9967,2.998,3.0055,3.0159,3.0085,2.9941,3.0309,3.0043,2.9697,2.8038,2.7671,2.6817,2.5475,2.6672,2.7949,2.8553,3.0247,3.1326,3.1724,3.1724,3.1751,3.1751,3.1904,3.2024,3.2038,3.226,3.2433,3.2527,3.2527,3.2661,3.2902,3.2969,3.3036,3.3173,3.3227,3.3106,3.2217,3.1323,3.1263,3.131,3.1263,3.1263,3.131,3.1276,3.141,3.145,3.1436,3.1597,3.1583,3.145,3.1644,3.1583,3.1436,3.1644,3.1724,3.1724,3.1858,3.1864,3.1877,3.2059,3.2126,3.2112,3.1979,3.1944,3.2099,3.1979,3.1877,3.1959,3.3155,3.5613,3.9221,4.1484,4.3264,4.4523,4.373,4.3709,4.4766,4.4551,4.4433,4.4392,4.4629,4.4531,4.4101,4.3887,4.3476,4.2812,4.3008,4.3027,4.2793,4.2598,4.25,4.25,4.248,4.1938,4.0668,3.985,3.8995,3.8141,3.7121,3.6303,3.5969,3.7098,3.6844,3.4627,3.4369,3.3436,3.1262,3.0999,3.0574,2.9601,2.9513,2.9566,2.9686,2.9713,2.9766,2.9887,2.9913,2.9459,2.8251,2.8003,2.792,2.8103,2.8128,2.7208,2.4957,2.3474,2.295,2.3351,2.4535,2.5828,2.704,2.8398,2.9848,3.114,3.1704,3.1864,3.1917,3.2144,3.2318,3.2345,3.2514,3.2648,3.2781,3.2835,3.2906,3.3133,3.3213,3.3293,3.3387,3.3414,3.3307,3.1724,3.1724,3.1724,3.1724,3.1724,3.1724,3.1724,3.1724,3.1711,3.153,3.137,3.157,3.1543,3.137,3.157,3.1591,3.1383,3.1557,3.1724,3.1724,3.1724,3.1724,3.1724,3.1724,3.1724,3.1724,3.1724,3.1724,3.1772,3.2219,3.2819,3.3544,3.5742,3.8885,4.2532,4.3175,4.4428,4.6138,4.602,4.582,4.5801,4.5488,4.527,4.5312,4.5172,4.5019,4.4707,4.459,4.4219,4.3594,4.3828,4.3848,4.3555,4.3002,4.2735,4.2694,4.2178,4.1101,3.9303,3.7344,3.6209,3.6209,3.5692,3.4612,3.3146,3.4244,3.4548,3.2955,3.2573,3.1806,3.0365,2.9931,2.9913,2.9913,2.9913,2.9887,2.9913,2.9913,2.9586,2.9272,2.9034,2.8076,2.6093,2.5355,2.5389,2.5446,2.5022,2.3804,2.1908,1.9674,1.9355,2.0858,2.2057,2.3425,2.5698,2.7099,2.8303,3.0196,3.073,3.087,3.106,3.1438,3.2159,3.2345,3.2768,3.2902,3.304,3.308,3.316,3.3347,3.3374,3.34,3.34,3.3414,3.3414,3.1724,3.1724,3.1724,3.1724,3.1724,3.1724,3.1724,3.1724,3.1724,3.1664,3.1671,3.1664,3.1698,3.1684,3.1698,3.1698,3.1657,3.1711,3.1724,3.1724,3.1724,3.1724,3.1724,3.1724,3.1724,3.1724,3.1724,3.1724,3.1806,3.3826,3.6066,3.8337,4.0763,4.204,4.2845,4.4826,4.607,4.6308,4.6269,4.625,4.625,4.6211,4.6191,4.6172,4.5801,4.5605,4.5531,4.5176,4.4879,4.4821,4.4778,4.4821,4.455,4.2745,4.1564,4.146,3.9468,3.8064,3.7738,3.5743,3.4412,3.4277,3.2389,3.1148,3.0786,3.069,3.0526,3.0375,3.0316,3.0213,2.9913,2.9913,2.9913,2.9869,2.9734,2.9913,2.9689,2.9913,2.9079,2.6728,2.6583,2.5593,2.3433,2.2892,2.2933,2.303,2.1752,2.0584,1.9809,1.7734,1.6192,1.6799,1.8113,2.0597,2.3,2.5797,2.6918,2.771,2.8198,2.8605,2.9027,2.9477,2.9944,3.26,3.312,3.3267,3.3307,3.3374,3.336,3.3374,3.3414,3.3414,3.3414,3.3414,3.3414,3.1724,3.1724,3.1724,3.1724,3.1724,3.1724,3.1724,3.1724,3.1724,3.1724,3.1724,3.1724,3.1724,3.1724,3.1724,3.1724,3.1724,3.1724,3.1724,3.1724,3.1724,3.1724,3.1724,3.1724,3.1724,3.1724,3.1724,3.1724,3.2124,3.4139,3.7236,4.0853,4.2174,4.3308,4.4738,4.5788,4.6308,4.6308,4.6308,4.6308,4.6308,4.6308,4.6308,4.6289,4.6133,4.5918,4.5727,4.5508,4.5293,4.4931,4.3865,4.3131,4.2864,4.0746,3.9468,3.9103,3.6986,3.5644,3.5599,3.346,3.2179,3.2179,3.1095,3.048,3.0581,3.0354,3.0247,3.0368,3.0114,2.9913,2.9882,2.9913,2.9913,2.9734,2.8629,2.7715,2.7702,2.6423,2.5081,2.4286,2.418,2.3272,2.1236,2.0615,2.0588,2.0597,1.969,1.9221,1.905,1.7101,1.5684,1.5643,1.6486,1.8041,2.0419,2.1858,2.3471,2.4789,2.556,2.6244,2.8148,2.8858,3.0073,3.2715,3.322,3.34,3.3387,3.3414,3.3414,3.3414,3.3414,3.3414,3.3414,3.3414,3.3414,3.1724,3.1724,3.1724,3.1724,3.1724,3.1724,3.1724,3.1724,3.1724,3.1724,3.1724,3.1724,3.1724,3.1724,3.1724,3.1724,3.1724,3.1724,3.1724,3.1724,3.1724,3.1724,3.1724,3.1724,3.1724,3.1724,3.1724,3.2408,3.3685,3.537,3.8794,4.2952,4.3638,4.4498,4.607,4.6308,4.6308,4.6308,4.6308,4.6308,4.6221,4.5612,4.5612,4.6201,4.6308,4.6152,4.5859,4.5213,4.4712,4.4338,4.2327,4.1045,4.0711,3.8673,3.7081,3.6045,3.4484,3.3507,3.3507,3.1983,3.1036,3.1009,3.0768,3.0688,3.0716,3.0024,2.9591,2.9523,2.8711,2.8029,2.9041,2.9073,2.8821,2.802,2.6245,2.5307,2.5148,2.3563,2.2576,2.1958,2.1846,2.0914,1.8886,1.832,1.832,1.8232,1.8288,1.8407,1.8239,1.6797,1.5696,1.5696,1.5696,1.6775,1.88,1.9927,2.0755,2.1673,2.2971,2.4337,2.6987,2.784,2.9876,3.2043,3.2823,3.3414,3.3414,3.3414,3.3414,3.3414,3.3414,3.3414,3.3414,3.3414,3.3414,3.1724,3.1724,3.1724,3.1724,3.1724,3.1724,3.1724,3.1724,3.1724,3.1724,3.1724,3.1724,3.1724,3.1724,3.1724,3.1724,3.1724,3.1724,3.1724,3.1724,3.1724,3.1724,3.1724,3.1724,3.1724,3.1711,3.1684,3.383,3.7955,3.8579,4.1304,4.57,4.5812,4.6094,4.6308,4.6308,4.6265,4.6026,4.6026,4.607,4.5807,4.3815,4.3815,4.5656,4.6158,4.5919,4.5793,4.393,4.2701,4.2701,4.0378,3.9109,3.8865,3.6744,3.4409,3.2326,3.1928,3.1847,3.1773,3.1617,3.1631,3.157,3.1042,3.1029,3.0642,2.8492,2.7145,2.7051,2.5202,2.4783,2.6386,2.6794,2.6004,2.397,2.3332,2.3051,2.2982,2.2505,2.1802,2.0032,1.9485,1.86,1.6278,1.5903,1.6251,1.6314,1.6285,1.6383,1.6405,1.6035,1.5894,1.5894,1.6028,1.6711,1.8793,1.902,1.9419,2.0533,2.1389,2.2127,2.3767,2.5847,2.8898,3.1454,3.2686,3.3414,3.3414,3.3414,3.3414,3.3414,3.3414,3.3414,3.3414,3.3414,3.31,3.1724,3.1724,3.1724,3.1724,3.1724,3.1724,3.1724,3.1724,3.1724,3.1724,3.1724,3.1724,3.1724,3.1724,3.1724,3.1724,3.1724,3.1724,3.1724,3.1724,3.1724,3.1724,3.1724,3.1724,3.1724,3.1698,3.1524,3.3074,3.6174,3.7605,4.0208,4.3571,4.5299,4.6016,4.625,4.6308,4.5568,4.41,4.3923,4.3219,4.1816,4.0763,4.0763,4.1546,4.1636,4.1636,4.1636,4.0763,4.0311,4.0311,3.7971,3.6606,3.6375,3.4327,3.1847,2.9721,3.0795,3.0985,2.9673,3.0795,3.1724,3.1555,2.9801,2.8814,2.8521,2.6443,2.4763,2.4689,2.4262,2.3589,2.275,2.3623,2.4031,2.2991,2.1565,2.0604,2.0256,1.9252,1.7911,1.7299,1.7201,1.6755,1.621,1.5956,1.6003,1.5935,1.603,1.6085,1.6071,1.6044,1.6037,1.6051,1.6094,1.6905,1.937,1.8188,1.7795,1.938,2.0736,2.3342,2.5329,2.6839,2.9613,3.1993,3.321,3.3414,3.3414,3.3414,3.3414,3.3414,3.3414,3.3314,3.3414,3.2799,3.2083,3.1724,3.1724,3.1724,3.161,3.1543,3.1671,3.161,3.1543,3.1671,3.1724,3.1724,3.1724,3.1671,3.153,3.153,3.1463,3.1423,3.1617,3.1724,3.1724,3.1724,3.1724,3.1724,3.1724,3.1724,3.1671,3.137,3.2445,3.462,3.6112,3.8368,4.1238,4.2744,4.3484,4.3725,4.3762,4.2841,4.1487,4.1263,4.0473,3.9051,3.817,3.7787,3.7666,3.7067,3.7482,3.8856,3.8262,3.7787,3.7482,3.5463,3.375,3.2783,3.054,2.8404,2.6987,2.8164,2.8452,2.7047,2.8212,2.9135,2.9122,2.7472,2.6289,2.6327,2.3932,2.2674,2.2478,2.1686,2.047,1.9552,1.9993,2.0735,2.0547,1.9244,1.8246,1.815,1.6814,1.6119,1.611,1.6199,1.6114,1.6017,1.6022,1.6022,1.5983,1.6071,1.6126,1.6133,1.6133,1.6133,1.6133,1.6119,1.6701,1.8273,1.8034,1.9216,2.0848,2.1891,2.4452,2.6777,2.8287,2.9942,3.2277,3.3334,3.3387,3.3364,3.3364,3.3314,3.325,3.325,3.31,3.2635,3.1869,3.0432,3.1711,3.1684,3.1664,3.1463,3.1276,3.1476,3.1463,3.1289,3.149,3.157,3.1604,3.1657,3.1436,3.1263,3.1223,3.1076,3.0996,3.1356,3.1617,3.1631,3.1644,3.1597,3.1631,3.1617,3.1591,3.1564,3.1316,3.2214,3.399,3.4608,3.6114,3.8068,3.8881,3.9401,3.8763,3.9262,3.8869,3.8526,3.8559,3.8544,3.8579,3.6375,3.5137,3.4811,3.3027,3.375,3.7955,3.6128,3.489,3.4764,3.2697,3.0388,2.8152,2.5867,2.4123,2.4016,2.4123,2.4074,2.3929,2.4269,2.4754,2.4657,2.4054,2.385,2.352,2.1472,1.9961,1.9683,1.8137,1.6424,1.6523,1.6687,1.6771,1.6089,1.644,1.6461,1.6208,1.6129,1.6126,1.6119,1.6126,1.6133,1.6126,1.6126,1.6112,1.6112,1.6119,1.6133,1.6133,1.6133,1.6133,1.6133,1.6175,1.6616,1.7402,1.827,2.0804,2.3023,2.3885,2.5531,2.7882,2.964,3.0627,3.2567,3.327,3.3337,3.315,3.305,3.2435,3.2334,3.2548,3.1718,3.0382,2.9003,2.7771,3.137,3.1343,3.1142,3.1022,3.0942,3.1036,3.1009,3.0942,3.1036,3.1076,3.1062,3.1062,3.1009,3.0955,3.0929,3.0875,3.0808,3.0996,3.1062,3.1062,3.1076,3.1089,3.1089,3.1076,3.0955,3.0828,3.0721,3.0948,3.184,3.3244,3.4773,3.6016,3.7378,3.8217,3.828,3.8477,3.7801,3.6217,3.619,3.5605,3.4139,3.3229,3.1989,3.0242,2.9361,2.9085,2.8666,2.9572,3.0086,3.0134,2.7697,2.5915,2.5093,2.4366,2.3092,2.1628,2.2994,2.2946,2.1686,2.2848,2.3686,2.3491,2.2272,2.1343,2.0951,1.8862,1.7494,1.7402,1.6523,1.6133,1.6133,1.6133,1.6105,1.6064,1.6056,1.6062,1.6064,1.6049,1.6126,1.6133,1.6133,1.6133,1.6133,1.6133,1.6133,1.6133,1.6133,1.6133,1.6133,1.6133,1.6133,1.6133,1.6225,1.6616,1.7642,1.8714,2.0657,2.314,2.4653,2.6135,2.8533,3.0592,3.1571,3.2092,3.2828,3.286,3.2686,3.2284,3.1517,3.0079,2.9155,2.8077,2.6904,2.5881,2.4958,3.133,3.1162,3.1036,3.0822,3.0707,3.0742,3.0728,3.0662,3.0742,3.0795,3.0795,3.0795,3.0728,3.0648,3.0635,3.0568,3.0474,3.0461,3.0461,3.0528,3.0728,3.0782,3.0795,3.0795,3.0635,3.0453,3.0413,3.0346,3.0298,3.1721,3.2761,3.3458,3.4608,3.5301,3.5637,3.5607,3.4787,3.3678,3.3665,3.2633,3.0756,3.0258,2.8991,2.6806,2.6361,2.5491,2.4074,2.4657,2.5335,2.5674,2.388,2.2507,2.2409,2.149,2.0224,1.9347,1.9839,2.0183,1.8912,1.9888,2.1009,2.0666,1.9446,1.8566,1.8278,1.6765,1.6175,1.6133,1.6133,1.6133,1.6133,1.6133,1.6133,1.6133,1.6126,1.6133,1.6133,1.6133,1.6133,1.6133,1.6133,1.6133,1.6133,1.6133,1.6133,1.6133,1.6133,1.6133,1.6133,1.6133,1.6133,1.6133,1.6133,1.6864,1.808,1.9298,2.051,2.2799,2.5066,2.68,2.8898,3.0869,3.223,3.1648,3.1981,3.0824,3.0483,3.0343,2.9724,2.7935,2.6086,2.542,2.465,2.3826,2.2752,3.1476,3.1189,3.1183,3.0835,3.048,3.0608,3.0555,3.0453,3.0581,3.0688,3.0702,3.0662,3.0555,3.0413,3.0386,3.0207,2.9967,2.9993,3.0007,3.0127,3.0421,3.0675,3.0715,3.0662,3.0528,3.044,3.0373,3.0194,3.0105,3.0519,3.044,3.0953,3.1326,3.0966,3.1606,3.0993,3.128,3.1009,3.0989,2.9933,2.7768,2.7576,2.6361,2.388,2.3676,2.3384,2.2565,2.1147,2.1147,2.2751,2.0951,1.9782,1.9396,1.7402,1.6573,1.6474,1.6232,1.6573,1.6275,1.6814,1.6864,1.6913,1.6765,1.6133,1.6374,1.6325,1.6133,1.6133,1.6133,1.6133,1.6133,1.6133,1.6133,1.6133,1.6133,1.6133,1.6133,1.6133,1.6133,1.6133,1.6133,1.6133,1.6133,1.6133,1.6133,1.6133,1.6133,1.6133,1.6133,1.6133,1.6133,1.6133,1.6133,1.6424,1.7402,1.789,1.901,2.0077,2.2809,2.527,2.7426,2.9408,3.0513,3.0179,3.0182,2.9018,2.8026,2.772,2.6904,2.5266,2.4032,2.3311,2.2338,2.131,2.0696,3.1303,3.1136,3.0768,3.0547,3.0386,3.0221,3.0114,3.0047,3.0114,3.0194,3.0167,3.014,3.014,3.0034,3.0047,2.998,2.9927,2.9913,2.9913,2.994,3.0047,3.0274,3.0381,3.0261,3.0247,3.036,3.0167,3.0114,3.0234,3.036,3.0541,3.0982,3.067,3.0689,3.0808,3.075,2.9912,2.8354,2.852,2.7446,2.5314,2.4948,2.3637,2.1343,2.1049,2.0077,1.8475,1.7543,1.7303,1.7989,1.7593,1.7105,1.7204,1.6516,1.6133,1.6133,1.6133,1.6133,1.6133,1.6133,1.6133,1.6133,1.6133,1.6133,1.6133,1.6133,1.6133,1.6133,1.6133,1.6133,1.6133,1.6133,1.6133,1.6133,1.6133,1.6133,1.6133,1.6133,1.6133,1.6133,1.6133,1.6133,1.6133,1.6133,1.6133,1.6133,1.6133,1.6133,1.6133,1.6133,1.6133,1.6133,1.6133,1.6133,1.6374,1.6715,1.7154,1.7452,1.9602,2.2272,2.4227,2.6037,2.6402,2.6185,2.7362,2.6818,2.544,2.4495,2.3362,2.2597,2.0955,1.9819,1.9044,1.8222,1.8424,3.1343,3.1196,3.0862,3.0648,3.056,3.0221,3.01,3.0074,2.9967,3.0007,3.0047,2.9967,2.998,3.0087,2.998,2.9913,2.9913,2.9913,2.9913,2.9913,2.9927,3.01,3.0306,3.0167,3.0239,3.0346,3.006,3.002,3.0167,3.0333,3.0488,3.0333,2.9621,2.9217,2.8904,2.8146,2.7274,2.5934,2.5939,2.4899,2.2507,2.2263,2.0813,1.8912,1.8319,1.7444,1.6282,1.6133,1.6133,1.6175,1.6133,1.6133,1.6133,1.6133,1.6133,1.6133,1.6133,1.6133,1.6133,1.6133,1.6133,1.6133,1.6133,1.6133,1.6133,1.6133,1.6133,1.6133,1.6133,1.6133,1.6133,1.6133,1.6133,1.6133,1.6133,1.6133,1.6133,1.6133,1.6133,1.6133,1.6133,1.6133,1.6133,1.6133,1.6133,1.6133,1.6133,1.6133,1.6133,1.6133,1.6133,1.6133,1.6133,1.6133,1.6133,1.6374,1.6523,1.6665,1.7253,1.979,2.1823,2.3394,2.34,2.3702,2.4465,2.4358,2.2573,2.1337,2.1103,1.9923,1.7908,1.7181,1.707,1.6944,1.6951,3.145,3.1183,3.1209,3.1062,3.0768,3.0574,3.0453,3.04,3.0114,3.0127,3.0234,3.0034,3.0034,3.0333,3.0007,2.9913,2.9913,2.9913,2.9913,2.9953,3.0034,3.0221,3.0467,3.0319,3.036,3.0368,3.0087,2.9993,2.988,3.0007,2.9748,2.9064,2.755,2.6608,2.6348,2.4822,2.3668,2.341,2.3431,2.2175,2.0126,1.9544,1.8566,1.7055,1.6566,1.6523,1.6182,1.6133,1.6133,1.6133,1.6133,1.6133,1.6133,1.6133,1.6133,1.6133,1.6133,1.6133,1.6133,1.6133,1.6133,1.6133,1.6133,1.6133,1.6133,1.6133,1.6133,1.6133,1.6133,1.6133,1.6133,1.6133,1.6133,1.6133,1.6133,1.6133,1.6133,1.6133,1.6133,1.6133,1.6133,1.6133,1.6133,1.6133,1.6133,1.6133,1.6133,1.6133,1.6133,1.6133,1.6133,1.6133,1.6133,1.6133,1.6133,1.6133,1.6175,1.6275,1.6325,1.7905,2.0196,2.1425,2.13,2.1427,2.1358,2.0432,1.8762,1.8174,1.8678,1.8418,1.7114,1.6922,1.6931,1.6897,1.689,3.1156,3.0902,3.1082,3.1062,3.0808,3.0728,3.0702,3.0675,3.0426,3.0333,3.0287,3.0047,2.9967,3.0034,2.9832,2.9913,2.9644,2.9554,2.9913,2.998,3.0434,3.0608,3.0457,2.9879,3.0119,3.0278,3.0109,2.9912,2.9728,2.8041,2.7365,2.7438,2.5321,2.4051,2.3991,2.3465,2.2509,2.0968,2.0676,1.9593,1.7741,1.7204,1.6864,1.6133,1.6133,1.6133,1.6133,1.6133,1.6133,1.6133,1.6133,1.6133,1.6133,1.6133,1.6133,1.6133,1.6133,1.6133,1.6133,1.6133,1.6133,1.6133,1.6133,1.6133,1.6133,1.6133,1.6133,1.6133,1.6133,1.6133,1.6133,1.6133,1.6133,1.6133,1.6133,1.6133,1.6133,1.6133,1.6133,1.6133,1.6133,1.6133,1.6133,1.6133,1.6133,1.6133,1.6133,1.6133,1.6133,1.6133,1.6133,1.6133,1.6133,1.6133,1.6133,1.6133,1.6133,1.6133,1.6133,1.6232,1.8519,1.9179,1.8983,1.8404,1.7742,1.682,1.6629,1.6656,1.749,1.6955,1.6653,1.672,1.6768,1.6781,1.6836,3.1263,3.1036,3.1316,3.1343,3.1196,3.1062,3.0996,3.0915,3.0587,3.0493,3.0493,3.0114,2.9993,2.9965,2.8829,2.8166,2.7875,2.6963,2.6568,2.6571,2.6899,2.7145,2.7251,2.7119,2.7361,2.8722,2.8528,2.7966,2.665,2.5637,2.4868,2.4942,2.2687,2.1608,2.1247,2.0863,1.9339,1.8276,1.8027,1.7402,1.6325,1.6133,1.6133,1.6133,1.6133,1.6133,1.6133,1.6133,1.6133,1.6133,1.6133,1.6133,1.6133,1.6133,1.6133,1.6133,1.6133,1.6133,1.6133,1.6133,1.6133,1.6133,1.6133,1.6133,1.6133,1.6133,1.6133,1.6133,1.6133,1.6133,1.6133,1.6133,1.6133,1.6133,1.6126,1.6126,1.6133,1.6133,1.6133,1.6133,1.6133,1.6133,1.6133,1.6133,1.6133,1.6133,1.6133,1.6133,1.6133,1.6133,1.6133,1.6133,1.6133,1.6133,1.6133,1.6133,1.6133,1.6133,1.6133,1.6133,1.7041,1.6949,1.6563,1.6451,1.6628,1.6567,1.6429,1.6456,1.6503,1.6544,1.6578,1.6592,1.6581,1.6655,1.6716,3.1423,3.1183,3.153,3.146,3.1023,3.0645,3.0152,2.9781,2.9525,2.8774,2.9407,2.9028,2.8214,2.8456,2.6654,2.5696,2.5205,2.423,2.3712,2.3811,2.3952,2.4135,2.4102,2.4161,2.4341,2.6113,2.606,2.4881,2.3702,2.2537,2.2378,2.1961,2.0058,1.9077,1.8524,1.7314,1.6609,1.6502,1.6509,1.6424,1.6133,1.6133,1.6133,1.6133,1.6133,1.6133,1.6133,1.6133,1.6133,1.6133,1.6133,1.6133,1.6133,1.6133,1.6133,1.6133,1.6133,1.6133,1.6133,1.6133,1.6133,1.6133,1.6133,1.6133,1.6133,1.6126,1.6105,1.6022,1.6001,1.5988,1.6085,1.6078,1.6029,1.6085,1.6042,1.6056,1.6076,1.6069,1.6085,1.6133,1.6133,1.6133,1.6133,1.6133,1.6133,1.6133,1.6133,1.6133,1.6133,1.6133,1.6133,1.6133,1.6133,1.6133,1.6133,1.6133,1.6133,1.6133,1.6133,1.6133,1.6133,1.616,1.6151,1.6144,1.6248,1.6246,1.6313,1.6368,1.6422,1.6469,1.6459,1.6479,1.6533,1.6594,1.6662,3.1129,3.0915,3.1497,3.032,2.8234,2.8114,2.7026,2.5049,2.4804,2.4305,2.4445,2.4069,2.4299,2.4038,2.3624,2.3164,2.2932,2.2252,2.2389,2.2477,2.2584,2.2731,2.2538,2.2336,2.2307,2.1862,2.2441,2.2862,2.2123,2.108,2.008,1.955,1.7902,1.6833,1.6835,1.6218,1.6133,1.6133,1.6133,1.6133,1.6133,1.6133,1.6133,1.6133,1.6133,1.6133,1.6133,1.6133,1.6133,1.6133,1.6133,1.6133,1.6133,1.6133,1.6133,1.6133,1.6133,1.6126,1.6105,1.6119,1.6126,1.6133,1.6098,1.6056,1.6062,1.6105,1.5981,1.5893,1.5811,1.5771,1.5928,1.5942,1.5942,1.5942,1.5949,1.5983,1.6051,1.6024,1.594,1.5995,1.6085,1.6133,1.6133,1.6133,1.6133,1.6133,1.6133,1.6133,1.6133,1.6133,1.6133,1.6133,1.6133,1.6133,1.6133,1.6133,1.6133,1.6133,1.6133,1.6133,1.6133,1.6133,1.6139,1.6153,1.6153,1.6137,1.6205,1.6273,1.63,1.632,1.6395,1.6425,1.6537,1.6605,1.6655,3.0434,2.8989,2.9331,2.7902,2.5589,2.5378,2.4751,2.3609,2.3171,2.3029,2.2922,2.2723,2.2687,2.2437,2.1207,2.029,1.9444,1.9248,1.9332,1.9373,1.9515,1.9607,1.9794,1.9754,1.9077,1.8462,1.9021,1.9552,1.926,1.8251,1.7779,1.7445,1.6405,1.6064,1.6112,1.6175,1.6133,1.6133,1.6133,1.6133,1.6133,1.6133,1.6133,1.6133,1.6133,1.6133,1.6133,1.6133,1.6133,1.6133,1.6133,1.6133,1.6126,1.6119,1.6126,1.6119,1.6119,1.6085,1.5981,1.601,1.5976,1.5852,1.5859,1.5852,1.5852,1.5832,1.5825,1.5757,1.571,1.5614,1.5737,1.5744,1.5744,1.5744,1.5744,1.5778,1.5818,1.5778,1.5811,1.5886,1.5981,1.6035,1.6133,1.6133,1.6133,1.6133,1.6126,1.6119,1.6105,1.6105,1.6098,1.6133,1.6133,1.6133,1.6133,1.6133,1.6133,1.6133,1.6133,1.6133,1.6133,1.6133,1.6133,1.6133,1.6133,1.6133,1.6153,1.6178,1.6178,1.6198,1.6327,1.6435,1.649,1.6564,1.6648,2.9108,2.6397,2.6592,2.5083,2.2845,2.2596,2.2208,2.1839,2.1367,2.1133,2.1403,2.1094,2.0955,2.0767,1.9316,1.7467,1.5696,1.6049,1.6286,1.6454,1.6539,1.6318,1.6175,1.6133,1.6417,1.675,1.6595,1.6022,1.6574,1.6433,1.6186,1.6264,1.6134,1.6133,1.6133,1.6133,1.6133,1.6133,1.6133,1.6133,1.6133,1.6133,1.6133,1.6133,1.6133,1.6133,1.6133,1.6133,1.6133,1.6119,1.6098,1.6078,1.6078,1.6008,1.5995,1.5995,1.6015,1.5947,1.5859,1.5811,1.5778,1.5703,1.5607,1.56,1.5587,1.5655,1.5615,1.558,1.5499,1.5499,1.5574,1.5594,1.5594,1.5546,1.5546,1.556,1.5593,1.5593,1.5635,1.5737,1.5893,1.5961,1.6024,1.6051,1.603,1.594,1.5934,1.6003,1.5996,1.6037,1.6051,1.6105,1.6133,1.6133,1.6133,1.6133,1.6133,1.6133,1.6133,1.6133,1.6133,1.6133,1.6133,1.6133,1.6133,1.6133,1.6133,1.6103,1.6157,1.6232,1.6327,1.6388,1.6429,1.6598,1.6788,2.6402,2.3826,2.3858,2.2381,2.0101,1.9849,1.8483,1.6682,1.6629,1.6133,1.6804,1.6368,1.6648,1.6755,1.6792,1.6189,1.5923,1.5915,1.5976,1.5995,1.6105,1.6133,1.6133,1.6133,1.6133,1.6133,1.6133,1.6076,1.6042,1.6112,1.6126,1.6105,1.6098,1.6133,1.6133,1.6133,1.6133,1.6133,1.6133,1.6133,1.6133,1.6133,1.6133,1.6133,1.6133,1.6133,1.6133,1.6133,1.6133,1.6069,1.6003,1.5935,1.5908,1.5757,1.5703,1.573,1.5784,1.5818,1.5689,1.5662,1.5642,1.5539,1.5546,1.558,1.5519,1.5499,1.5486,1.5573,1.5418,1.533,1.5418,1.5438,1.5438,1.5438,1.5438,1.5506,1.5506,1.5479,1.5472,1.554,1.5676,1.5771,1.5818,1.5901,1.5922,1.5832,1.5805,1.5825,1.5872,1.5983,1.6037,1.6105,1.6133,1.6133,1.6133,1.6133,1.6133,1.6133,1.6133,1.6133,1.6133,1.6133,1.6133,1.6133,1.6133,1.6133,1.6139,1.6117,1.6178,1.6273,1.6374,1.6381,1.6354,1.6578,1.6836,2.2276,2.1112,2.1176,1.9578,1.7198,1.7021,1.6347,1.5451,1.5215,1.5181,1.5181,1.5181,1.535,1.5642,1.5872,1.5976,1.5942,1.5983,1.6003,1.6037,1.6085,1.6126,1.6133,1.6133,1.6133,1.6133,1.6133,1.6133,1.6133,1.6133,1.6133,1.6133,1.6133,1.6133,1.6133,1.6133,1.6133,1.6133,1.6133,1.6133,1.6133,1.6133,1.6133,1.6133,1.6133,1.6133,1.6133,1.6133,1.6133,1.6105,1.5983,1.5908,1.5867,1.5723,1.5566,1.5472,1.556,1.5567,1.5472,1.5506,1.5472,1.5404,1.5384,1.5364,1.5364,1.5337,1.5303,1.5364,1.5269,1.5235,1.5269,1.5282,1.5282,1.5282,1.5303,1.5323,1.5377,1.533,1.5303,1.5384,1.5459,1.5547,1.5628,1.5669,1.5703,1.571,1.5716,1.5757,1.5852,1.5974,1.6071,1.6119,1.6133,1.6133,1.6133,1.6133,1.6133,1.6133,1.6133,1.6133,1.6133,1.6133,1.6133,1.6133,1.6133,1.6133,1.6139,1.611,1.6151,1.6279,1.6429,1.6422,1.6422,1.6571,1.6709,1.8446,1.8308,1.843,1.7204,1.5234,1.5181,1.5228,1.5181,1.5181,1.5181,1.5208,1.5269,1.5459,1.5676,1.59,1.601,1.5969,1.6044,1.603,1.6024,1.6064,1.6119,1.6133,1.6133,1.6133,1.6133,1.6133,1.6133,1.6133,1.6133,1.6133,1.6133,1.6133,1.6133,1.6133,1.6133,1.6133,1.6133,1.6133,1.6133,1.6133,1.6133,1.6133,1.6133,1.6133,1.6133,1.6133,1.6133,1.6133,1.6037,1.5866,1.5813,1.5745,1.556,1.5452,1.5371,1.5377,1.5371,1.5357,1.5343,1.5289,1.5228,1.5181,1.5228,1.5208,1.5181,1.5187,1.5221,1.5201,1.5181,1.5181,1.5194,1.5201,1.5208,1.5201,1.5187,1.5187,1.5208,1.5221,1.5269,1.5323,1.5337,1.5411,1.5472,1.5472,1.5519,1.5566,1.5676,1.5818,1.5974,1.6035,1.6126,1.6133,1.6133,1.6133,1.6133,1.6133,1.6133,1.6133,1.6133,1.6133,1.6133,1.6133,1.6133,1.6133,1.6133,1.6133,1.6096,1.6117,1.6212,1.632,1.6405,1.6486,1.6601,1.6621,1.5698,1.549,1.5689,1.5614,1.5181,1.5181,1.5181,1.5181,1.5181,1.5181,1.5221,1.5459,1.5655,1.5811,1.5879,1.6024,1.6098,1.5976,1.6017,1.6029,1.6076,1.6133,1.6133,1.6133,1.6133,1.6133,1.6133,1.6133,1.6133,1.6133,1.6133,1.6133,1.6133,1.6133,1.6119,1.6056,1.6119,1.6062,1.6042,1.6056,1.6062,1.6069,1.6069,1.6126,1.6133,1.6133,1.6133,1.6133,1.6071,1.5956,1.5764,1.5615,1.552,1.5377,1.5276,1.5248,1.5235,1.5235,1.5235,1.5235,1.5208,1.5187,1.5181,1.5181,1.5181,1.5181,1.5181,1.5181,1.5181,1.5181,1.5181,1.5181,1.5181,1.5181,1.5181,1.5181,1.5181,1.5181,1.5194,1.5187,1.5208,1.5242,1.5255,1.5323,1.5364,1.5411,1.5465,1.5574,1.5791,1.5996,1.6029,1.6069,1.6126,1.6133,1.6133,1.6133,1.6133,1.6133,1.6133,1.6133,1.6133,1.6133,1.6133,1.6133,1.6133,1.6133,1.6133,1.6139,1.6103,1.6123,1.6218,1.6368,1.6391,1.6497,1.651,1.5377,1.5201,1.535,1.5323,1.5181,1.5181,1.5181,1.5181,1.5181,1.5181,1.5208,1.5445,1.5669,1.575,1.5934,1.6022,1.6069,1.6078,1.6042,1.6056,1.6133,1.6133,1.6133,1.6133,1.6133,1.6133,1.6133,1.6133,1.6133,1.6133,1.6133,1.6133,1.6133,1.6133,1.6119,1.6008,1.6051,1.6008,1.5934,1.5879,1.6098,1.6037,1.6037,1.6076,1.6133,1.6133,1.6133,1.6133,1.6037,1.5908,1.5703,1.5554,1.5411,1.5255,1.5194,1.5181,1.5181,1.5181,1.5181,1.5181,1.5181,1.5181,1.5181,1.5181,1.5181,1.5181,1.5181,1.5181,1.5181,1.5181,1.5181,1.5181,1.5181,1.5181,1.5181,1.5181,1.5181,1.5181,1.5181,1.5181,1.5181,1.5194,1.5194,1.5201,1.5228,1.5269,1.5371,1.5506,1.5792,1.5962,1.6037,1.6062,1.6126,1.6133,1.6133,1.6133,1.6133,1.6133,1.6133,1.6133,1.6133,1.6133,1.6133,1.6133,1.6133,1.6133,1.6133,1.6133,1.6139,1.611,1.6185,1.6307,1.6347,1.6354,1.6347,1.5323,1.5208,1.535,1.5323,1.5234,1.5181,1.5181,1.5181,1.5181,1.5215,1.5262,1.5486,1.5553,1.5648,1.5879,1.6051,1.6015,1.6035,1.6119,1.6133,1.6133,1.6133,1.6133,1.6133,1.6133,1.6133,1.6133,1.6133,1.6133,1.6133,1.6133,1.6133,1.6133,1.6133,1.6098,1.5996,1.5962,1.5969,1.5818,1.5757,1.5961,1.5872,1.5908,1.5961,1.5954,1.592,1.5913,1.59,1.5832,1.5716,1.5594,1.5486,1.5364,1.5255,1.5194,1.5181,1.5181,1.5181,1.5181,1.5181,1.5181,1.5181,1.5181,1.5181,1.5181,1.5181,1.5181,1.5181,1.5181,1.5181,1.5181,1.5181,1.5181,1.5181,1.5181,1.5181,1.5181,1.5181,1.5181,1.5181,1.5181,1.5181,1.5181,1.5187,1.5242,1.5282,1.5364,1.5527,1.5813,1.5949,1.5996,1.6071,1.6126,1.6133,1.6133,1.6133,1.6133,1.6133,1.6133,1.6133,1.6133,1.6119,1.6119,1.6133,1.6133,1.6133,1.6126,1.6076,1.6126,1.6133,1.6157,1.6232,1.6218,1.6218,1.6191,1.5316,1.5208,1.5343,1.5316,1.5201,1.5181,1.5187,1.5201,1.5187,1.5248,1.535,1.5425,1.5458,1.5587,1.5805,1.5942,1.5976,1.6071,1.6133,1.6133,1.6133,1.6133,1.6133,1.6133,1.6133,1.6133,1.6133,1.6133,1.6133,1.6133,1.6133,1.6133,1.6133,1.6133,1.6062,1.5976,1.5908,1.5894,1.573,1.5757,1.5845,1.5771,1.5771,1.5839,1.5784,1.5688,1.5688,1.5688,1.5662,1.5527,1.5486,1.5377,1.5235,1.5208,1.5181,1.5181,1.5181,1.5181,1.5181,1.5181,1.5181,1.5181,1.5181,1.5181,1.5181,1.5181,1.5181,1.5181,1.5181,1.5181,1.5181,1.5181,1.5181,1.5181,1.5181,1.5181,1.5181,1.5181,1.5181,1.5181,1.5181,1.5181,1.5181,1.5201,1.5262,1.5323,1.5384,1.5554,1.5826,1.5894,1.5928,1.6058,1.6133,1.6133,1.6133,1.6133,1.6133,1.6133,1.6105,1.6078,1.6058,1.5988,1.6008,1.6098,1.6092,1.6058,1.6042,1.6076,1.6076,1.6133,1.6133,1.6117,1.6096,1.6103,1.6103,1.5228,1.5187,1.5235,1.5289,1.5316,1.5221,1.5235,1.5303,1.5235,1.5215,1.5276,1.5357,1.5432,1.5547,1.573,1.5894,1.5928,1.6058,1.6133,1.6133,1.6133,1.6133,1.6133,1.6133,1.6133,1.6133,1.6133,1.6133,1.6133,1.6133,1.6133,1.6133,1.6133,1.6133,1.6092,1.5996,1.5942,1.599,1.5818,1.5744,1.5934,1.5771,1.5689,1.5867,1.5689,1.556,1.5553,1.5546,1.5479,1.5411,1.5391,1.5323,1.5208,1.5181,1.5181,1.5181,1.5181,1.5181,1.5181,1.5181,1.5181,1.5181,1.5181,1.5181,1.5181,1.5181,1.5181,1.5181,1.5181,1.5181,1.5181,1.5181,1.5181,1.5181,1.5181,1.5181,1.5181,1.5181,1.5181,1.5181,1.5181,1.5181,1.5181,1.5181,1.5235,1.5269,1.5316,1.5527,1.5764,1.5757,1.5771,1.6024,1.6133,1.6133,1.6126,1.6078,1.6078,1.6092,1.603,1.5962,1.5949,1.5879,1.5839,1.5832,1.5879,1.5976,1.6017,1.6064,1.6112,1.6133,1.6133,1.6133,1.6133,1.6139,1.6139,1.5181,1.5181,1.5181,1.5269,1.5371,1.5248,1.5242,1.5303,1.5228,1.5181,1.5208,1.5289,1.533,1.5418,1.5622,1.5826,1.5805,1.6044,1.6133,1.6133,1.6133,1.6133,1.6133,1.6133,1.6133,1.6133,1.6133,1.6133,1.6133,1.6133,1.6133,1.6133,1.6133,1.6133,1.6071,1.592,1.5805,1.5791,1.5593,1.5554,1.5662,1.5628,1.554,1.5601,1.556,1.5466,1.5472,1.5466,1.5445,1.5364,1.5316,1.5289,1.5208,1.5181,1.5181,1.5181,1.5181,1.5181,1.5181,1.5181,1.5181,1.5181,1.5181,1.5181,1.5181,1.5181,1.5181,1.5181,1.5181,1.5181,1.5181,1.5181,1.5181,1.5181,1.5181,1.5181,1.5181,1.5181,1.5181,1.5181,1.5181,1.5181,1.5181,1.5181,1.5201,1.5215,1.5242,1.5486,1.571,1.5703,1.5716,1.5906,1.6071,1.6058,1.5974,1.5927,1.594,1.5995,1.59,1.5784,1.5771,1.575,1.5634,1.5587,1.5716,1.5805,1.5935,1.5996,1.6078,1.6126,1.6133,1.6133,1.6133,1.6133,1.6133,1.5181,1.5181,1.5181,1.5276,1.5371,1.5262,1.5208,1.5194,1.5187,1.5181,1.5187,1.5194,1.5215,1.5255,1.5513,1.5649,1.5723,1.5961,1.6098,1.6133,1.6133,1.6133,1.6133,1.6133,1.6133,1.6133,1.6133,1.6133,1.6133,1.6133,1.6133,1.6133,1.6133,1.6133,1.6001,1.5872,1.575,1.5689,1.5588,1.552,1.556,1.5391,1.5391,1.5418,1.5357,1.5276,1.5262,1.5248,1.5235,1.5208,1.5194,1.5187,1.5181,1.5181,1.5181,1.5181,1.5181,1.5181,1.5181,1.5181,1.5181,1.5181,1.5181,1.5181,1.5181,1.5181,1.5181,1.5181,1.5181,1.5181,1.5181,1.5181,1.5181,1.5181,1.5181,1.5181,1.5181,1.5181,1.5181,1.5181,1.5181,1.5181,1.5181,1.5181,1.5181,1.5201,1.5242,1.5377,1.5574,1.5662,1.571,1.5852,1.5934,1.5969,1.5879,1.5818,1.5811,1.5845,1.573,1.5628,1.5573,1.5546,1.552,1.5451,1.5539,1.5641,1.5874,1.599,1.6078,1.6112,1.6126,1.6133,1.6133,1.6133,1.6133,1.5181,1.5181,1.5181,1.5269,1.5391,1.5364,1.5282,1.5187,1.5181,1.5181,1.5181,1.5181,1.5181,1.5215,1.5499,1.556,1.5702,1.5906,1.6042,1.6133,1.6133,1.6133,1.6133,1.6133,1.6133,1.6133,1.6133,1.6133,1.6133,1.6133,1.6133,1.6133,1.6133,1.6133,1.6064,1.5886,1.5825,1.5737,1.5622,1.5547,1.5486,1.5377,1.5371,1.5337,1.5255,1.5194,1.5181,1.5181,1.5181,1.5181,1.5181,1.5181,1.5181,1.5181,1.5181,1.5181,1.5181,1.5181,1.5181,1.5181,1.5181,1.5181,1.5181,1.5181,1.5181,1.5181,1.5181,1.5181,1.5181,1.5181,1.5181,1.5181,1.5181,1.5181,1.5181,1.5181,1.5181,1.5181,1.5181,1.5181,1.5181,1.5181,1.5181,1.5181,1.5187,1.5194,1.5248,1.5357,1.5445,1.5492,1.5607,1.5791,1.5784,1.5764,1.5744,1.5634,1.5689,1.5676,1.5512,1.5431,1.5459,1.5418,1.535,1.5377,1.5438,1.5642,1.5867,1.5962,1.603,1.6105,1.6133,1.6133,1.6133,1.6133,1.6133,1.5181,1.5181,1.5181,1.5235,1.5309,1.5323,1.5262,1.5187,1.5181,1.5181,1.5181,1.5181,1.5181,1.5215,1.5425,1.5526,1.5614,1.5859,1.6051,1.6133,1.6133,1.6133,1.6133,1.6133,1.6133,1.6133,1.6133,1.6133,1.6133,1.6133,1.6133,1.6133,1.6133,1.6133,1.6098,1.5988,1.5962,1.5867,1.571,1.5608,1.5486,1.5384,1.5337,1.5309,1.5215,1.5194,1.5181,1.5181,1.5181,1.5181,1.5181,1.5181,1.5181,1.5181,1.5181,1.5181,1.5181,1.5181,1.5181,1.5181,1.5181,1.5181,1.5181,1.5181,1.5181,1.5181,1.5181,1.5181,1.5181,1.5181,1.5181,1.5181,1.5181,1.5181,1.5181,1.5181,1.5181,1.5181,1.5181,1.5181,1.5181,1.5181,1.5181,1.5181,1.5187,1.5208,1.5235,1.5303,1.5371,1.5432,1.5554,1.5689,1.5635,1.5581,1.5512,1.5499,1.552,1.5486,1.5404,1.5337,1.5303,1.5289,1.5262,1.5316,1.5398,1.5567,1.575,1.5881,1.5956,1.6037,1.6119,1.6133,1.6133,1.6133,1.6133,1.5181,1.5181,1.5181,1.5187,1.5181,1.5194,1.5187,1.5181,1.5181,1.5181,1.5181,1.5181,1.5181,1.5221,1.5404,1.5499,1.5676,1.5845,1.6051,1.6126,1.6133,1.6133,1.6133,1.6133,1.6133,1.6133,1.6133,1.6133,1.6133,1.6133,1.6133,1.6133,1.6133,1.6133,1.6119,1.6112,1.6024,1.5888,1.5649,1.5466,1.5316,1.5215,1.5181,1.5194,1.5181,1.5181,1.5181,1.5181,1.5181,1.5181,1.5181,1.5181,1.5181,1.5181,1.5181,1.5181,1.5181,1.5181,1.5181,1.5181,1.5181,1.5181,1.5181,1.5181,1.5181,1.5181,1.5181,1.5181,1.5181,1.5181,1.5181,1.5181,1.5181,1.5181,1.5181,1.5181,1.5181,1.5181,1.5181,1.5181,1.5181,1.5181,1.5181,1.5181,1.5181,1.5208,1.5235,1.5269,1.5296,1.5343,1.5425,1.5547,1.5479,1.5418,1.5432,1.5404,1.5337,1.5289,1.5248,1.5235,1.5242,1.5221,1.5194,1.5276,1.5377,1.5458,1.5655,1.5737,1.5845,1.601,1.6078,1.6119,1.6133,1.6133,1.6133,1.5181,1.5181,1.5181,1.5181,1.5181,1.5181,1.5181,1.5181,1.5181,1.5181,1.5181,1.5181,1.5187,1.5228,1.5459,1.556,1.5634,1.5859,1.6071,1.6112,1.6119,1.6112,1.6119,1.6105,1.6119,1.6133,1.6133,1.6133,1.6133,1.6133,1.6133,1.6133,1.6133,1.6133,1.6133,1.6126,1.6051,1.5928,1.5676,1.5493,1.5377,1.5242,1.5181,1.5181,1.5181,1.5181,1.5181,1.5181,1.5181,1.5181,1.5181,1.5181,1.5181,1.5181,1.5181,1.5181,1.5181,1.5181,1.5181,1.5181,1.5181,1.5181,1.5181,1.5181,1.5181,1.5181,1.5181,1.5181,1.5181,1.5181,1.5181,1.5181,1.5181,1.5181,1.5181,1.5181,1.5181,1.5181,1.5181,1.5181,1.5181,1.5181,1.5181,1.5181,1.5181,1.5187,1.5194,1.5208,1.5215,1.5242,1.5255,1.533,1.5296,1.5262,1.5289,1.5303,1.5255,1.5228,1.5215,1.5194,1.5181,1.5215,1.5248,1.5289,1.5371,1.5458,1.5553,1.5649,1.5764,1.5934,1.6071,1.6119,1.6133,1.6133,1.6133,1.5181,1.5181,1.5181,1.5181,1.5181,1.5181,1.5181,1.5181,1.5181,1.5181,1.5194,1.5242,1.5282,1.5303,1.5485,1.5689,1.5744,1.5942,1.599,1.6024,1.6049,1.6022,1.6015,1.6044,1.6035,1.6105,1.6126,1.6133,1.6133,1.6133,1.6133,1.6133,1.6133,1.6133,1.6133,1.6119,1.6042,1.5954,1.575,1.5546,1.5466,1.5316,1.5194,1.5181,1.5181,1.5181,1.5181,1.5181,1.5181,1.5181,1.5181,1.5181,1.5181,1.5181,1.5181,1.5181,1.5181,1.5181,1.5181,1.5181,1.5181,1.5181,1.5181,1.5181,1.5181,1.5181,1.5181,1.5181,1.5181,1.5181,1.5181,1.5181,1.5181,1.5181,1.5181,1.5181,1.5181,1.5181,1.5181,1.5181,1.5181,1.5181,1.5181,1.5181,1.5181,1.5181,1.5181,1.5187,1.5181,1.5181,1.5181,1.5181,1.5181,1.5181,1.5221,1.5228,1.5208,1.5187,1.5181,1.5181,1.5187,1.5255,1.5309,1.5316,1.5371,1.5465,1.5546,1.5622,1.5791,1.5988,1.6098,1.6126,1.6126,1.6112,1.6119,1.5181,1.5181,1.5181,1.5181,1.5181,1.5181,1.5181,1.5181,1.5181,1.5181,1.5215,1.5364,1.5425,1.5466,1.5574,1.5716,1.5888,1.5976,1.5969,1.5962,1.6071,1.6037,1.5976,1.5928,1.5996,1.6064,1.6105,1.6119,1.6133,1.6133,1.6133,1.6133,1.6133,1.6133,1.6133,1.6126,1.6049,1.594,1.5784,1.5642,1.5499,1.5343,1.5228,1.5181,1.5181,1.5181,1.5181,1.5181,1.5181,1.5181,1.5181,1.5181,1.5181,1.5181,1.5181,1.5181,1.5181,1.5181,1.5181,1.5181,1.5181,1.5181,1.5181,1.5181,1.5181,1.5181,1.5181,1.5181,1.5181,1.5181,1.5181,1.5181,1.5181,1.5181,1.5181,1.5181,1.5181,1.5181,1.5181,1.5181,1.5181,1.5181,1.5181,1.5181,1.5181,1.5181,1.5181,1.5181,1.5181,1.5181,1.5181,1.5181,1.5181,1.5181,1.5181,1.5181,1.5181,1.5181,1.5181,1.5181,1.5194,1.5235,1.5269,1.5296,1.5377,1.5411,1.5554,1.5601,1.5798,1.5947,1.5934,1.592,1.6051,1.6051,1.6092,1.5181,1.5181,1.5181,1.5181,1.5181,1.5181,1.5181,1.5181,1.5181,1.5181,1.5248,1.5452,1.5492,1.5418,1.5526,1.573,1.5935,1.601,1.5976,1.5949,1.6064,1.6017,1.5928,1.586,1.5915,1.5969,1.5995,1.6069,1.6126,1.6133,1.6133,1.6133,1.6133,1.6133,1.6133,1.6119,1.6029,1.592,1.5771,1.5553,1.5452,1.5316,1.5215,1.5181,1.5181,1.5181,1.5181,1.5181,1.5181,1.5181,1.5181,1.5181,1.5181,1.5181,1.5181,1.5181,1.5181,1.5181,1.5181,1.5181,1.5181,1.5181,1.5181,1.5181,1.5181,1.5181,1.5181,1.5181,1.5181,1.5181,1.5181,1.5181,1.5181,1.5181,1.5181,1.5181,1.5181,1.5181,1.5181,1.5181,1.5181,1.5181,1.5181,1.5181,1.5181,1.5181,1.5181,1.5181,1.5181,1.5181,1.5181,1.5181,1.5181,1.5181,1.5181,1.5181,1.5181,1.5181,1.5181,1.5181,1.5181,1.5187,1.5215,1.5262,1.5276,1.533,1.5425,1.5574,1.5581,1.5683,1.5696,1.5723,1.5832,1.5983,1.6024]},{"header":{"parameterUnit":"m.s-1","parameterCategory":1,"la1":31.0,"la2":29.5877,"lo1":-88.7671,"lo2":-86.6584,"dx":0.0162,"dy":0.0185,"nx":115,"ny":88,"refTime":"2022-12-19T06:00:00:Z","depth":0,"parameterNumber":3,"parameterNumberName":"V-component_of_WINDS"},"data":[0.0,0.0,0.0,0.0,0.0,0.0,0.0,0.0,0.0,0.0,0.0,0.0,0.0,0.0,0.0,0.0,0.0,0.0,0.0,0.0,0.0,0.0,0.0,0.0,0.0,0.0,0.0,0.0,0.0,0.0,0.0,0.0,0.0,0.0,0.0,0.0,0.0,0.0,0.0,0.0,0.0,0.0,0.0,0.0,0.0,0.0,0.0,0.0,0.0,0.0,0.0,0.0,0.0,0.0,0.0,0.0,0.0,0.0,0.0,0.0,0.0,0.0,0.0,0.0,0.0,0.0,0.0,0.0,0.0,0.0,0.0,0.0,0.0,0.0,0.0,0.0,0.0,0.0,0.0,0.0,0.0,0.0,0.0,0.0,0.0,0.0,0.0,0.0,0.0,0.0,0.0,0.0,0.0,0.0,0.0,0.0,0.0,0.0,0.0,0.0,0.0,0.0,0.0,0.0,0.0,0.0,0.0,0.0,0.0,0.0,0.0,0.0,0.0,0.0,0.0,0.0,0.0,0.0,0.0,0.0,0.0,0.0,0.0,0.0,0.0,0.0,0.0,0.0,0.0,0.0,0.0,0.0,0.0,0.0,0.0,0.0,0.0,0.0,0.0,0.0,0.0,0.0,0.0,0.0,0.0,0.0,0.0,0.0,0.0,0.0,0.0,0.0,0.0,0.0,0.0,0.0,0.0,0.0,0.0,0.0,0.0,0.0,0.0,0.0,0.0,0.0,0.0,0.0,0.0,0.0,0.0,0.0,0.0,0.0,0.0,0.0,0.0,0.0,0.0,0.0,0.0,0.0,0.0,0.0,0.0,0.0,0.0,0.0,0.0,0.0,0.0,0.0,0.0,0.0,0.0,0.0,0.0,0.0,0.0,0.0,0.0,0.0,0.0,0.0,0.0,0.0,0.0,0.0,0.0,0.0,0.0,0.0,0.0,0.0,0.0,0.0,0.0,0.0,0.0,0.0,0.0,0.0,0.0,0.0,0.0,0.0,0.0,0.0,0.0,0.0,0.0,0.0,0.0,0.0,0.0,0.0,0.0,0.0,0.0,0.0,0.0,0.0,0.0,0.0,0.0,0.0,0.0,0.0,0.0,0.0,0.0,0.0,0.0,0.0,0.0,0.0,0.0,0.0,0.0,0.0,0.0,0.0,0.0,0.0,0.0,0.0,0.0,0.0,0.0,0.0,0.0,0.0,0.0,0.0,0.0,0.0,0.0,0.0,0.0,0.0,0.0,0.0,0.0,0.0,0.0,0.0,0.0,0.0,0.0,0.0,0.0,0.0,0.0,0.0,0.0,0.0,0.0,0.0,0.0,0.0,0.0,0.0,0.0,0.0,0.0,0.0,0.0,0.0,0.0,0.0,0.0,0.0,0.0,0.0,0.0,0.0,0.0,0.0,0.0,0.0,0.0,0.0,0.0,0.0,0.0,0.0,0.0,0.0,0.0,0.0,0.0,0.0,0.0,0.0,0.0,0.0,0.0,0.0,0.0,0.0,0.0,0.0,0.0,0.0,0.0,0.0,0.0,0.0,0.0,0.0,0.0,0.0,0.0,0.0,0.0,0.0,0.0,0.0,0.0,0.0,0.0,0.0,0.0,0.0,0.0,0.0,0.0,0.0,0.0,0.0,0.0,0.0,0.0,0.0,0.0,0.0,0.0,0.0,0.0,0.0,0.0,0.0,0.0,0.0,0.0,0.0,0.0,0.0,0.0,0.0,0.0,0.0,0.0,0.0,0.0,0.0,0.0,0.0,0.0,0.0,0.0,0.0,0.0,0.0,0.0,0.0,0.0,0.0,0.0,0.0,0.0,0.0,0.0,0.0,0.0,0.0,0.0,0.0,0.0,0.0,0.0,0.0,0.0,0.0,0.0,0.0,0.0,0.0,0.0,0.0,0.0,0.0,0.0,0.0,0.0,0.0,0.0,0.0,0.0,0.0,0.0,0.0,0.0,0.0,0.0,0.0,0.0,0.0,0.0,0.0,0.0,0.0,0.0,0.0,0.0,0.0,0.0,0.0,0.0,0.0,0.0,0.0,0.0,0.0,0.0,0.0,0.0,0.0,0.0,0.0,0.0,0.0,0.0,0.0,0.0,0.0,0.0,0.0,0.0,0.0,0.0,0.0,0.0,0.0,0.0,0.0,0.0,0.0,0.0,0.0,0.0,0.0,0.0,0.0,0.0,0.0,0.0,0.0,0.0,0.0,0.0,0.0,0.0,0.0,0.0,0.0,0.0,0.0,0.0,0.0,0.0,0.0,0.0,0.0,0.0,0.0,0.0,0.0,0.0,0.0,0.0,0.0,0.0,0.0,0.0,0.0,0.0,0.0,0.0,0.0,0.0,0.0,0.0,0.0,0.0,0.0,0.0,0.0,0.0,0.0,0.0,0.0,0.0,0.0,0.0,0.0,0.0,0.0,0.0,0.0,0.0,0.0,0.0,0.0,0.0,0.0,0.0,0.0,0.0,0.0,0.0,0.0,0.0,0.0,0.0,0.0,0.0,0.0,0.0,0.0,0.0,0.0,0.0,0.0,0.0,0.0,0.0,0.0,0.0,0.0,0.0,0.0,0.0,0.0,0.0,0.0,0.0,0.0,0.0,0.0,0.0,0.0,0.0,0.0,0.0,0.0,0.0,0.0,0.0,0.0,0.0,0.0,0.0,0.0,0.0,0.0,0.0,0.0,0.0,0.0,0.0,0.0,0.0,0.0,0.0,0.0,0.0,0.0,0.0,0.0,0.0,0.0,0.0,0.0,0.0,0.0,0.0,0.0,0.0,0.0,0.0,0.0,0.0,0.0,0.0,0.0,0.0,0.0,0.0,0.0,0.0,0.0,0.0,0.0,0.0,0.0,0.0,0.0,0.0,0.0,0.0,0.0,0.0,0.0,0.0,0.0,0.0,0.0,0.0,0.0,0.0,0.0,0.0,0.0,0.0,0.0,0.0,0.0,0.0,0.0,0.0,0.0,0.0,0.0,0.0,0.0,0.0,0.0,0.0,0.0,0.0,0.0,0.0,0.0,0.0,0.0,0.0,0.0,0.0,0.0,0.0,0.0,0.0,0.0,0.0,0.0,0.0,0.0,0.0,0.0,0.0,0.0,0.0,0.0,0.0,0.0,0.0,0.0,0.0,0.0,0.0,0.0,0.0,0.0,0.0,0.0,0.0,0.0,0.0,0.0,0.0,0.0,0.0,0.0,0.0,0.0,0.0,0.0,0.0,0.0,0.0,0.0,0.0,0.0,0.0,0.0,0.0,0.0,0.0,0.0,0.0,0.0,0.0,0.0,0.0,0.0,0.0,0.0,0.0,0.0,0.0,0.0,0.0,0.0,0.0,0.0,0.0,0.0,0.0,0.0,0.0,0.0,0.0,0.0,0.0,0.0,0.0,0.0,0.0,0.0,0.0,0.0,0.0,0.0,0.0,0.0,0.0,0.0,0.0,0.0,0.0,0.0,0.0,0.0,0.0,0.0,0.0,0.0,0.0,0.0,0.0,0.0,0.0,0.0,0.0,0.0,0.0,0.0,0.0,0.0,0.0,0.0,0.0,0.0,0.0,0.0,0.0,0.0,0.0,0.0,0.0,0.0,0.0,0.0,0.0,0.0,0.0,0.0,0.0,0.0,0.0,0.0,0.0,0.0,0.0,0.0,0.0,0.0,0.0,0.0,0.0,0.0,0.0,0.0,0.0,0.0,0.0,0.0,0.0,0.0,0.0,0.0,0.0,0.0,0.0,0.0,0.0,0.0,0.0,0.0,0.0,0.0,0.0,0.0,0.0,0.0,0.0,0.0,0.0,0.0,0.0,0.0,0.0,0.0,0.0,0.0,0.0,0.0,0.0,0.0,0.0,0.0,0.0,0.0,0.0,0.0,0.0,0.0,0.0,0.0,0.0,0.0,0.0,0.0,0.0,0.0,0.0,0.0,0.0,0.0,0.0,0.0,0.0,0.0,0.0,0.0,0.0,0.0,0.0,0.0,0.0,0.0,0.0,0.0,0.0,0.0,0.0,0.0,0.0,0.0,0.0,0.0,0.0,0.0,0.0,0.0,0.0,0.0,0.0,0.0,0.0,0.0,0.0,0.0,0.0,0.0,0.0,0.0,0.0,0.0,0.0,0.0,0.0,0.0,0.0,0.0,0.0,0.0,0.0,0.0,0.0,0.0,0.0,0.0,0.0,0.0,0.0,0.0,0.0,0.0,0.0,0.0,0.0,0.0,0.0,0.0,0.0,0.0,0.0,0.0,0.0,0.0,1.5284,0.0,0.0,0.0,1.3227,0.0,0.0,0.0,0.0,0.0,0.0,0.0,0.0,0.0,0.0,0.0,0.0,0.0,0.0,0.0,0.0,0.0,0.0,0.0,0.0,0.0,0.0,0.0,0.0,0.0,0.0,0.0,0.0,0.0,0.0,0.0,0.0,0.0,0.0,0.0,0.0,0.0,0.0,0.0,0.0,0.0,0.0,0.0,0.0,0.0,0.0,0.0,0.0,0.0,0.0,0.0,0.0,0.0,0.0,0.0,0.0,0.0,0.0,0.0,0.0,0.0,0.0,0.0,0.0,0.0,0.0,0.0,0.0,0.0,0.0,0.0,0.0,0.0,0.0,0.0,0.0,0.0,0.0,0.0,0.0,0.0,0.0,0.0,0.0,0.0,0.0,0.0,0.0,0.0,0.0,0.0,0.0,0.0,0.0,0.0,0.0,0.0,0.0,0.0,0.0,0.0,0.0,0.0,0.0,0.0,0.0,0.0,0.0,0.0,0.0,1.5496,1.3893,1.4424,1.4509,1.4036,0.0,0.0,0.0,0.0,0.0,0.0,0.0,0.0,0.0,0.0,0.0,0.0,0.0,0.0,0.0,0.0,0.0,0.0,0.0,0.0,0.0,0.0,0.0,0.0,0.0,0.0,0.0,0.0,0.0,0.0,0.0,0.0,0.0,0.0,0.0,0.0,0.0,0.0,0.0,0.0,0.0,0.0,0.0,0.0,0.0,0.0,0.0,0.0,0.0,0.0,0.0,0.0,0.0,0.0,0.0,0.0,0.0,0.0,0.0,0.0,0.0,0.0,0.0,0.0,0.0,0.0,0.0,0.0,0.0,0.0,0.0,0.0,0.0,0.0,0.0,0.0,0.0,0.0,0.0,0.0,0.0,0.0,0.0,0.0,0.0,0.0,0.0,0.0,0.0,0.0,0.0,0.0,0.0,0.0,0.0,0.0,0.0,0.0,0.0,0.0,0.0,0.0,0.0,0.0,0.0,0.0,0.0,0.0,0.0,0.0,0.0,0.0,1.4804,1.524,1.5522,0.0,0.0,0.0,0.0,0.0,0.0,0.0,0.0,0.0,0.0,0.0,0.0,0.0,0.0,0.0,0.0,0.0,0.0,0.0,0.0,0.0,0.0,0.0,0.0,0.0,0.0,0.0,0.0,0.0,0.0,0.0,0.0,0.0,0.0,0.0,0.0,0.0,0.0,0.0,0.0,0.0,0.0,0.0,0.0,0.0,0.0,0.0,0.0,0.0,0.0,0.0,0.0,0.0,0.0,0.0,0.0,0.0,0.0,0.0,0.0,0.0,0.0,0.0,0.0,0.0,0.0,0.0,0.0,0.0,0.0,0.0,0.0,0.0,0.0,0.0,0.0,0.0,0.0,0.0,0.0,0.0,0.0,0.0,0.0,0.0,0.0,0.0,0.0,0.0,0.0,0.0,0.0,0.0,0.0,0.0,0.0,0.0,0.0,0.0,0.0,0.0,0.0,0.0,0.0,0.0,0.0,0.0,0.0,0.0,0.0,1.611,1.5372,1.5293,0.0,1.7879,0.0,0.0,0.0,0.0,0.0,0.0,0.0,0.0,0.0,0.0,0.0,0.0,0.0,0.0,0.0,0.0,0.0,0.0,0.0,0.0,0.0,0.0,0.0,0.0,0.0,0.0,0.0,0.0,0.0,0.0,0.0,0.0,0.0,0.0,0.0,0.0,0.0,0.0,0.0,0.0,0.0,0.0,0.0,0.0,0.0,0.0,0.0,0.0,0.0,0.0,0.0,0.0,0.0,0.0,0.0,0.0,0.0,0.0,0.0,0.0,0.0,0.0,0.0,0.0,0.0,0.0,0.0,0.0,0.0,0.0,0.0,0.0,0.0,0.0,0.0,0.0,0.0,0.0,0.0,0.0,0.0,0.0,0.0,0.0,0.0,0.0,0.0,0.0,0.0,0.0,0.0,0.0,0.0,0.0,0.0,0.0,0.0,0.0,0.0,0.0,0.0,0.0,0.0,0.0,0.0,0.0,0.0,0.0,0.0,0.0,1.683,1.5425,1.5928,1.7079,0.0,0.0,0.0,0.0,0.0,0.0,0.0,0.0,0.0,0.0,0.0,0.0,0.0,0.0,0.0,0.0,0.0,0.0,0.0,0.0,0.0,0.0,0.0,0.0,0.0,0.0,0.0,0.0,0.0,0.0,0.0,0.0,0.0,0.0,0.0,0.0,0.0,0.0,0.0,0.0,0.0,0.0,0.0,0.0,0.0,0.0,0.0,0.0,0.0,0.0,0.0,0.0,0.0,0.0,0.0,0.0,0.0,0.0,0.0,0.0,0.0,0.0,0.0,0.0,0.0,0.0,0.0,0.0,0.0,0.0,0.0,0.0,0.0,0.0,0.0,0.0,0.0,0.0,0.0,0.0,0.0,0.0,0.0,0.0,0.0,0.0,0.0,0.0,0.0,0.0,0.0,0.0,0.0,0.0,0.0,0.0,0.0,0.0,0.0,0.0,0.0,0.0,0.0,0.0,0.0,0.0,0.0,0.0,0.0,0.0,1.7841,1.7495,1.6161,1.7004,1.8072,1.9226,0.0,0.0,0.0,0.0,0.0,0.0,0.0,0.0,0.0,0.0,0.0,0.0,0.0,0.0,0.0,0.0,0.0,0.0,0.0,0.0,0.0,0.0,0.0,0.0,0.0,0.0,0.0,0.0,0.0,0.0,0.0,0.0,0.0,0.0,0.0,0.0,0.0,0.0,0.0,0.0,0.0,0.0,0.0,0.0,0.0,0.0,0.0,0.0,0.0,0.0,0.0,0.0,0.0,0.0,0.0,0.0,0.0,0.0,0.0,0.0,0.0,0.0,0.0,0.0,0.0,0.0,0.0,0.0,0.0,0.0,0.0,0.0,0.0,0.0,0.0,0.0,0.0,0.0,0.0,0.0,0.0,0.0,0.0,0.0,0.0,0.0,0.0,0.0,0.0,0.0,0.0,0.0,0.0,0.0,0.0,0.0,0.0,0.0,0.0,0.0,0.0,0.0,0.0,0.0,0.0,0.0,0.0,0.0,1.8757,1.8406,1.8056,1.7809,1.8643,1.9124,0.0,0.0,0.0,0.0,0.0,0.0,0.0,0.0,0.0,0.0,0.0,0.0,0.0,0.0,0.0,0.0,0.0,0.0,0.0,0.0,0.0,0.0,0.0,0.0,0.0,0.0,0.0,0.0,0.0,0.0,0.0,0.0,0.0,0.0,0.0,0.0,0.0,0.0,0.0,0.0,0.0,0.0,0.0,0.0,0.0,0.0,0.0,0.0,0.0,0.0,0.0,0.0,0.0,0.0,0.0,0.0,0.0,0.0,0.0,0.0,0.0,0.0,0.0,0.0,0.0,0.0,0.0,0.0,0.0,0.0,0.0,0.0,0.0,0.0,0.0,0.0,0.0,0.0,0.0,0.0,0.0,0.0,0.0,0.0,0.0,0.0,0.0,0.0,0.0,0.0,0.0,0.0,0.0,0.0,0.0,0.0,0.0,0.0,0.0,0.0,0.0,0.0,0.0,0.0,0.0,0.0,0.0,0.0,0.0,1.7321,1.6704,1.7431,1.9547,1.8425,1.8714,0.0,0.0,0.0,0.0,0.0,0.0,0.0,0.0,0.0,0.0,0.0,0.0,0.0,0.0,0.0,0.0,0.0,0.0,0.0,0.0,0.0,0.0,0.0,0.0,0.0,0.0,0.0,0.0,0.0,0.0,0.0,0.0,0.0,0.0,0.0,0.0,0.0,0.0,0.0,0.0,0.0,0.0,0.0,0.0,0.0,0.0,0.0,0.0,0.0,0.0,0.0,0.0,0.0,0.0,0.0,0.0,0.0,0.0,0.0,0.0,0.0,0.0,0.0,0.0,0.0,0.0,0.0,0.0,0.0,0.0,0.0,0.0,0.0,0.0,0.0,0.0,0.0,0.0,0.0,0.0,0.0,0.0,0.0,0.0,0.0,0.0,0.0,0.0,0.0,0.0,0.0,0.0,0.0,0.0,0.0,0.0,0.0,0.0,0.0,0.0,0.0,0.0,0.0,0.0,0.0,0.0,0.0,0.0,0.0,1.8033,1.7926,1.8847,2.0775,1.9145,1.9098,0.0,0.0,0.0,0.0,0.0,0.0,0.0,0.0,0.0,0.0,0.0,0.0,0.0,0.0,0.0,0.0,0.0,0.0,0.0,0.0,0.0,0.0,0.0,0.0,0.0,0.0,0.0,0.0,0.0,0.0,0.0,0.0,0.0,0.0,0.0,0.0,0.0,0.0,0.0,0.0,0.0,0.0,0.0,0.0,0.0,0.0,0.0,0.0,0.0,0.0,0.0,0.0,0.0,0.0,0.0,0.0,0.0,0.0,0.0,0.0,0.0,0.0,0.0,0.0,0.0,0.0,0.0,0.0,0.0,0.0,0.0,0.0,0.0,0.0,0.0,0.0,0.0,0.0,0.0,0.0,0.0,0.0,0.0,0.0,0.0,0.0,0.0,0.0,0.0,0.0,0.0,0.0,0.0,0.0,0.0,0.0,0.0,0.0,0.0,0.0,0.0,0.0,0.0,0.0,0.0,0.0,0.0,0.0,1.8276,2.1278,2.2445,2.2556,2.1597,2.1075,2.0412,0.0,0.0,0.0,0.0,0.0,0.0,0.0,0.0,0.0,0.0,0.0,0.0,0.0,0.0,0.0,0.0,0.0,0.0,0.0,0.0,0.0,0.0,0.0,0.0,0.0,0.0,0.0,0.0,0.0,0.0,0.0,0.0,0.0,0.0,0.0,0.0,0.0,0.0,0.0,0.0,0.0,0.0,0.0,0.0,0.0,0.0,0.0,0.0,0.0,0.0,0.0,0.0,0.0,0.0,0.0,0.0,0.0,0.0,0.0,0.0,0.0,0.0,0.0,0.0,0.0,0.0,0.0,0.0,0.0,0.0,0.0,0.0,0.0,0.0,0.0,0.0,0.0,0.0,0.0,0.0,0.0,0.0,0.0,0.0,0.0,0.0,0.0,0.0,0.0,0.0,0.0,0.0,0.0,0.0,0.0,0.0,0.0,0.0,0.0,0.0,0.0,0.0,0.0,0.0,0.0,0.0,0.0,0.0,0.0,2.008,2.3797,2.5403,2.4408,2.3438,2.3453,0.0,0.0,0.0,0.0,0.0,0.0,0.0,0.0,0.0,0.0,0.0,0.0,0.0,0.0,0.0,0.0,0.0,0.0,0.0,0.0,0.0,0.0,0.0,0.0,0.0,0.0,0.0,0.0,0.0,0.0,0.0,0.0,0.0,0.0,0.0,0.0,0.0,0.0,0.0,0.0,0.0,0.0,0.0,0.0,0.0,0.0,0.0,0.0,0.0,0.0,0.0,0.0,0.0,0.0,0.0,0.0,0.0,0.0,0.0,0.0,0.0,0.0,0.0,0.0,0.0,0.0,0.0,0.0,0.0,0.0,0.0,0.0,0.0,0.0,0.0,0.0,0.0,0.0,0.0,0.0,0.0,0.0,0.0,0.0,0.0,0.0,0.0,0.0,0.0,0.0,0.0,0.0,0.0,0.0,0.0,0.0,0.0,0.0,0.0,0.0,0.0,0.0,0.0,0.0,0.0,0.0,0.0,0.0,0.0,2.5834,2.94,3.0971,3.0001,2.7717,2.6805,2.7424,0.0,0.0,0.0,0.0,0.0,0.0,0.0,0.0,0.0,0.0,0.0,0.0,0.0,0.0,0.0,0.0,0.0,0.0,0.0,0.0,0.0,0.0,0.0,0.0,0.0,0.0,0.0,0.0,0.0,0.0,0.0,0.0,0.0,0.0,0.0,0.0,0.0,0.0,0.0,0.0,0.0,0.0,0.0,0.0,0.0,0.0,0.0,0.0,0.0,0.0,0.0,0.0,0.0,0.0,0.0,0.0,0.0,0.0,0.0,0.0,0.0,0.0,0.0,0.0,0.0,0.0,0.0,0.0,0.0,0.0,0.0,0.0,0.0,0.0,0.0,0.0,0.0,0.0,0.0,0.0,0.0,0.0,0.0,0.0,0.0,0.0,0.0,0.0,0.0,0.0,0.0,0.0,0.0,0.0,0.0,0.0,0.0,0.0,0.0,0.0,0.0,0.0,0.0,0.0,0.0,0.0,0.0,0.0,3.6739,3.8659,3.8957,3.7406,3.3372,3.0495,0.0,0.0,0.0,0.0,0.0,0.0,0.0,0.0,0.0,0.0,0.0,0.0,0.0,0.0,0.0,0.0,0.0,0.0,0.0,0.0,0.0,0.0,0.0,0.0,0.0,0.0,0.0,0.0,0.0,0.0,0.0,0.0,0.0,0.0,0.0,0.0,0.0,0.0,0.0,0.0,0.0,0.0,0.0,0.0,0.0,0.0,0.0,0.0,0.0,0.0,0.0,0.0,0.0,0.0,0.0,0.0,0.0,0.0,0.0,0.0,0.0,0.0,0.0,0.0,0.0,0.0,0.0,0.0,0.0,0.0,0.0,0.0,0.0,0.0,0.0,0.0,0.0,0.0,0.0,0.0,0.0,0.0,0.0,0.0,0.0,0.0,0.0,0.0,0.0,0.0,0.0,0.0,0.0,0.0,0.0,0.0,0.0,0.0,0.0,0.0,0.0,0.0,0.0,0.0,0.0,0.0,0.0,0.0,0.0,4.4852,4.8575,4.7468,4.134,3.7888,3.5385,0.0,0.0,0.0,0.0,0.0,0.0,0.0,0.0,0.0,0.0,0.0,0.0,0.0,0.0,0.0,0.0,0.0,0.0,0.0,0.0,0.0,0.0,0.0,0.0,0.0,0.0,0.0,0.0,0.0,0.0,0.0,0.0,0.0,0.0,0.0,0.0,0.0,0.0,0.0,0.0,0.0,0.0,0.0,0.0,0.0,0.0,0.0,0.0,0.0,0.0,0.0,0.0,0.0,0.0,0.0,0.0,0.0,0.0,0.0,0.0,0.0,0.0,0.0,0.0,0.0,0.0,0.0,0.0,0.0,0.0,0.0,0.0,0.0,0.0,0.0,0.0,0.0,0.0,0.0,0.0,0.0,0.0,0.0,0.0,0.0,0.0,0.0,0.0,0.0,0.0,0.0,0.0,0.0,0.0,0.0,0.0,0.0,0.0,0.0,0.0,0.0,0.0,0.0,0.0,0.0,0.0,0.0,0.0,4.4965,5.0603,5.385,5.345,4.9117,4.4281,4.0511,0.0,0.0,0.0,0.0,0.0,0.0,0.0,0.0,0.0,0.0,0.0,0.0,0.0,0.0,0.0,0.0,0.0,0.0,0.0,0.0,0.0,0.0,0.0,0.0,0.0,0.0,0.0,0.0,0.0,0.0,0.0,0.0,0.0,0.0,0.0,0.0,0.0,0.0,0.0,0.0,0.0,0.0,0.0,0.0,0.0,0.0,0.0,0.0,0.0,0.0,0.0,0.0,0.0,0.0,0.0,0.0,0.0,0.0,0.0,0.0,0.0,0.0,0.0,0.0,0.0,0.0,0.0,0.0,0.0,0.0,0.0,0.0,0.0,0.0,0.0,0.0,0.0,0.0,0.0,0.0,0.0,0.0,0.0,0.0,0.0,0.0,0.0,0.0,0.0,0.0,0.0,0.0,0.0,0.0,0.0,0.0,0.0,0.0,0.0,0.0,0.0,0.0,0.0,0.0,0.0,0.0,0.0,0.0,4.9277,5.4895,5.6596,5.767,5.8005,5.1203,4.5617,0.0,0.0,0.0,0.0,0.0,0.0,0.0,0.0,0.0,0.0,0.0,0.0,0.0,0.0,0.0,0.0,0.0,0.0,0.0,0.0,0.0,0.0,0.0,0.0,0.0,0.0,0.0,0.0,0.0,0.0,0.0,0.0,0.0,0.0,0.0,0.0,0.0,0.0,0.0,0.0,0.0,0.0,0.0,0.0,0.0,0.0,0.0,0.0,0.0,0.0,0.0,0.0,0.0,0.0,0.0,0.0,0.0,0.0,0.0,0.0,0.0,0.0,0.0,0.0,0.0,0.0,0.0,0.0,0.0,0.0,0.0,0.0,0.0,0.0,0.0,0.0,0.0,0.0,0.0,0.0,0.0,0.0,0.0,0.0,0.0,0.0,0.0,0.0,0.0,0.0,0.0,0.0,0.0,0.0,0.0,0.0,0.0,0.0,0.0,0.0,0.0,0.0,0.0,0.0,0.0,0.0,0.0,0.0,5.4416,5.9645,6.0875,6.0895,5.9804,5.4221,4.9396,0.0,0.0,0.0,0.0,0.0,0.0,0.0,0.0,0.0,0.0,0.0,0.0,0.0,0.0,0.0,0.0,0.0,0.0,0.0,0.0,0.0,0.0,0.0,0.0,0.0,0.0,0.0,0.0,0.0,0.0,0.0,0.0,0.0,0.0,0.0,0.0,0.0,0.0,0.0,0.0,0.0,0.0,0.0,0.0,0.0,0.0,0.0,0.0,2.3457,0.0,0.0,0.0,0.0,0.0,0.0,0.0,0.0,0.0,0.0,0.0,0.0,0.0,0.0,0.0,0.0,0.0,0.0,0.0,0.0,0.0,0.0,0.0,0.0,0.0,0.0,0.0,0.0,0.0,0.0,0.0,0.0,0.0,0.0,0.0,0.0,0.0,0.0,0.0,0.0,0.0,0.0,0.0,0.0,0.0,0.0,0.0,0.0,0.0,0.0,0.0,0.0,0.0,0.0,0.0,0.0,0.0,0.0,0.0,5.8271,6.3459,6.4148,6.4175,6.3605,5.9881,5.4625,0.0,0.0,0.0,0.0,0.0,0.0,0.0,0.0,0.0,0.0,0.0,0.0,0.0,0.0,0.0,0.0,0.0,0.0,0.0,0.0,0.0,0.0,0.0,0.0,0.0,0.0,0.0,0.0,0.0,0.0,0.0,0.0,0.0,0.0,0.0,0.0,0.0,0.0,0.0,0.0,0.0,0.0,0.0,0.0,0.0,0.0,0.0,0.0,0.0,0.0,0.0,0.0,0.0,0.0,0.0,0.0,0.0,0.0,0.0,0.0,0.0,0.0,0.0,0.0,0.0,0.0,0.0,0.0,0.0,0.0,0.0,0.0,0.0,0.0,0.0,0.0,0.0,0.0,0.0,0.0,0.0,0.0,0.0,0.0,0.0,0.0,0.0,0.0,0.0,0.0,0.0,0.0,0.0,0.0,0.0,0.0,0.0,0.0,0.0,0.0,0.0,0.0,0.0,0.0,0.0,0.0,0.0,5.6441,6.1689,6.6925,6.7199,6.7468,6.7883,6.593,6.0178,5.0294,0.0,0.0,0.0,0.0,0.0,0.0,0.0,0.0,0.0,0.0,0.0,0.0,0.0,0.0,0.0,0.0,0.0,0.0,0.0,0.0,0.0,0.0,0.0,0.0,0.0,0.0,0.0,0.0,0.0,0.0,0.0,0.0,0.0,0.0,0.0,0.0,0.0,0.0,2.2811,2.6922,0.0,0.0,0.0,0.0,0.0,0.0,0.0,0.0,2.5546,0.0,0.0,0.0,0.0,0.0,0.0,0.0,0.0,0.0,0.0,0.0,0.0,0.0,0.0,0.0,0.0,0.0,0.0,0.0,0.0,0.0,0.0,0.0,0.0,0.0,0.0,0.0,0.0,0.0,0.0,0.0,0.0,0.0,0.0,0.0,0.0,0.0,0.0,0.0,0.0,0.0,0.0,0.0,0.0,0.0,0.0,0.0,0.0,0.0,0.0,0.0,0.0,0.0,0.0,0.0,0.0,5.9556,6.1827,6.5554,7.0966,7.1321,7.0815,6.9595,6.9216,6.4482,5.4914,0.0,0.0,0.0,0.0,0.0,0.0,0.0,0.0,0.0,0.0,0.0,0.0,0.0,0.0,0.0,0.0,0.0,0.0,0.0,0.0,0.0,0.0,0.0,0.0,0.0,0.0,0.0,0.0,0.0,0.0,0.0,0.0,0.0,0.0,0.0,0.0,0.0,0.0,0.0,3.4274,3.5738,0.0,0.0,0.0,0.0,0.0,0.0,0.0,0.0,2.9881,0.0,0.0,0.0,0.0,0.0,0.0,0.0,0.0,0.0,0.0,0.0,0.0,0.0,0.0,0.0,0.0,0.0,0.0,0.0,0.0,0.0,0.0,0.0,0.0,0.0,0.0,0.0,0.0,0.0,0.0,0.0,0.0,0.0,0.0,0.0,0.0,0.0,0.0,0.0,0.0,0.0,0.0,0.0,0.0,0.0,0.0,0.0,0.0,0.0,0.0,0.0,0.0,0.0,0.0,0.0,6.0396,6.5672,6.9963,7.3415,7.3638,7.3296,7.248,7.0952,6.6109,0.0,0.0,0.0,0.0,0.0,0.0,0.0,0.0,0.0,0.0,0.0,0.0,0.0,0.0,0.0,0.0,0.0,0.0,0.0,0.0,0.0,0.0,0.0,0.0,0.0,0.0,0.0,0.0,0.0,0.0,0.0,0.0,0.0,0.0,0.0,0.0,0.0,0.0,0.0,0.0,3.7916,3.8991,4.0347,0.0,0.0,0.0,0.0,0.0,0.0,3.1934,3.1361,0.0,0.0,0.0,0.0,0.0,0.0,0.0,0.0,0.0,0.0,0.0,0.0,0.0,0.0,0.0,0.0,0.0,0.0,0.0,0.0,0.0,0.0,0.0,0.0,0.0,0.0,0.0,0.0,0.0,0.0,0.0,0.0,0.0,0.0,0.0,0.0,0.0,0.0,0.0,0.0,0.0,0.0,0.0,0.0,0.0,0.0,0.0,0.0,0.0,0.0,0.0,0.0,0.0,0.0,0.0,6.0834,6.8342,7.3213,7.5277,7.538,7.5307,7.5087,7.1984,6.6765,0.0,0.0,0.0,0.0,0.0,0.0,0.0,0.0,0.0,0.0,0.0,0.0,0.0,0.0,0.0,0.0,0.0,0.0,0.0,0.0,0.0,0.0,0.0,0.0,0.0,0.0,0.0,0.0,0.0,0.0,0.0,0.0,0.0,0.0,0.0,0.0,0.0,0.0,0.0,0.0,0.0,4.2065,4.3117,4.0514,0.0,0.0,0.0,0.0,3.5975,3.5343,0.0,0.0,0.0,0.0,0.0,0.0,0.0,0.0,0.0,0.0,0.0,0.0,0.0,0.0,0.0,0.0,0.0,0.0,0.0,0.0,0.0,0.0,0.0,0.0,0.0,0.0,0.0,0.0,0.0,0.0,0.0,0.0,0.0,0.0,0.0,0.0,0.0,0.0,0.0,0.0,0.0,0.0,0.0,0.0,0.0,0.0,0.0,0.0,0.0,0.0,0.0,0.0,0.0,0.0,0.0,0.0,6.4455,6.915,7.3237,7.6796,7.7032,7.6702,7.5931,7.2782,6.7105,0.0,0.0,0.0,0.0,0.0,0.0,0.0,0.0,0.0,0.0,0.0,0.0,0.0,0.0,0.0,0.0,0.0,0.0,0.0,0.0,0.0,0.0,0.0,0.0,0.0,0.0,0.0,0.0,0.0,0.0,0.0,0.0,0.0,0.0,0.0,0.0,0.0,0.0,0.0,0.0,0.0,4.6587,4.553,4.3992,4.2893,0.0,0.0,4.2887,4.4263,4.4259,0.0,0.0,0.0,0.0,0.0,0.0,0.0,0.0,0.0,0.0,0.0,0.0,0.0,0.0,0.0,0.0,0.0,0.0,0.0,0.0,0.0,0.0,0.0,0.0,0.0,0.0,0.0,0.0,0.0,0.0,0.0,0.0,0.0,0.0,0.0,0.0,0.0,0.0,0.0,0.0,0.0,0.0,0.0,0.0,0.0,0.0,0.0,0.0,0.0,0.0,0.0,0.0,0.0,0.0,0.0,5.6888,6.5243,7.1107,7.5102,7.7215,7.7326,7.7142,7.6775,7.3581,6.7825,0.0,0.0,0.0,0.0,0.0,0.0,0.0,0.0,0.0,0.0,0.0,0.0,0.0,0.0,0.0,0.0,0.0,0.0,0.0,0.0,0.0,0.0,0.0,0.0,0.0,0.0,0.0,0.0,0.0,0.0,0.0,0.0,0.0,0.0,0.0,0.0,0.0,0.0,0.0,0.0,0.0,0.0,4.9965,4.7836,0.0,0.0,0.0,4.6621,4.8064,0.0,0.0,0.0,0.0,0.0,0.0,0.0,0.0,0.0,0.0,0.0,0.0,0.0,0.0,0.0,0.0,0.0,0.0,0.0,0.0,0.0,0.0,0.0,0.0,0.0,0.0,0.0,0.0,0.0,0.0,0.0,0.0,0.0,0.0,0.0,0.0,0.0,0.0,0.0,0.0,0.0,0.0,0.0,0.0,0.0,0.0,0.0,0.0,0.0,0.0,0.0,0.0,0.0,0.0,0.0,0.0,0.0,6.6219,7.2936,7.69,7.7876,7.7729,7.7416,7.692,7.3731,0.0,0.0,0.0,0.0,0.0,0.0,0.0,0.0,0.0,0.0,0.0,0.0,0.0,0.0,0.0,0.0,0.0,0.0,0.0,0.0,0.0,0.0,0.0,0.0,0.0,0.0,0.0,1.9818,0.0,0.0,0.0,0.0,0.0,0.0,0.0,0.0,0.0,0.0,0.0,0.0,0.0,0.0,5.0737,5.3953,5.2332,5.1843,0.0,0.0,5.1287,5.2724,5.2454,5.0556,0.0,0.0,0.0,0.0,0.0,0.0,0.0,0.0,0.0,0.0,0.0,0.0,0.0,0.0,0.0,0.0,0.0,0.0,0.0,0.0,0.0,0.0,0.0,0.0,0.0,0.0,0.0,0.0,0.0,0.0,0.0,0.0,0.0,0.0,0.0,0.0,0.0,0.0,0.0,0.0,0.0,0.0,0.0,0.0,0.0,0.0,0.0,0.0,0.0,0.0,0.0,0.0,0.0,0.0,0.0,6.8546,7.4301,7.7986,7.9522,7.8883,7.7692,7.601,7.2813,6.6488,0.0,0.0,0.0,0.0,0.0,0.0,0.0,0.0,0.0,0.0,0.0,0.0,0.0,0.0,0.0,0.0,0.0,0.0,0.0,0.0,0.0,0.0,0.0,0.0,0.0,0.0,0.0,0.0,0.0,0.0,0.0,0.0,0.0,0.0,0.0,0.0,0.0,0.0,0.0,0.0,0.0,5.2454,5.6336,5.7821,5.9648,0.0,0.0,5.909,6.0566,5.8851,5.5175,4.8732,0.0,0.0,0.0,0.0,0.0,0.0,0.0,0.0,0.0,0.0,0.0,0.0,0.0,0.0,0.0,0.0,0.0,0.0,0.0,0.0,0.0,0.0,0.0,0.0,0.0,0.0,0.0,0.0,0.0,0.0,0.0,0.0,0.0,0.0,0.0,0.0,0.0,0.0,0.0,0.0,0.0,0.0,0.0,0.0,0.0,0.0,0.0,0.0,0.0,0.0,0.0,0.0,0.0,6.0987,6.8077,7.4169,7.7876,7.8993,7.8772,7.8008,7.6777,7.3453,6.8326,0.0,0.0,0.0,0.0,0.0,0.0,0.0,0.0,0.0,0.0,0.0,0.0,0.0,0.0,0.0,0.0,0.0,0.0,0.0,0.0,0.0,0.0,0.0,0.0,0.0,0.0,0.0,0.0,2.9892,3.0735,2.9019,0.0,0.0,0.0,0.0,0.0,0.0,0.0,0.0,0.0,0.0,5.6926,6.0864,6.152,0.0,0.0,6.3067,6.1691,6.2635,6.043,5.7221,5.3332,4.983,0.0,0.0,0.0,0.0,0.0,0.0,0.0,0.0,0.0,0.0,0.0,0.0,0.0,0.0,0.0,0.0,0.0,0.0,0.0,0.0,0.0,0.0,0.0,0.0,0.0,0.0,0.0,0.0,0.0,0.0,0.0,0.0,0.0,0.0,0.0,0.0,0.0,0.0,0.0,0.0,0.0,0.0,0.0,0.0,0.0,0.0,0.0,0.0,0.0,0.0,0.0,0.0,6.1534,6.7707,7.4044,7.7839,7.8919,7.8736,7.7877,7.6396,7.3599,6.9353,0.0,0.0,0.0,0.0,0.0,0.0,0.0,0.0,0.0,0.0,0.0,0.0,0.0,0.0,0.0,0.0,0.0,0.0,0.0,0.0,0.0,0.0,0.0,0.0,0.0,0.0,0.0,0.0,3.1845,3.1939,3.0188,0.0,0.0,0.0,0.0,0.0,0.0,0.0,0.0,0.0,0.0,6.1143,6.5256,6.4999,6.503,6.6919,6.4829,6.3055,6.322,6.1442,5.9013,5.6172,0.0,0.0,0.0,0.0,0.0,0.0,0.0,0.0,0.0,0.0,0.0,0.0,0.0,0.0,0.0,0.0,0.0,0.0,0.0,0.0,0.0,0.0,0.0,0.0,0.0,0.0,0.0,0.0,0.0,0.0,2.3775,0.0,0.0,0.0,0.0,0.0,0.0,0.0,0.0,0.0,0.0,0.0,0.0,0.0,0.0,0.0,0.0,0.0,0.0,0.0,0.0,0.0,0.0,6.3116,6.7785,7.4162,7.8148,7.9706,7.8993,7.7304,7.4645,7.2951,6.8735,6.1611,0.0,0.0,0.0,0.0,0.0,0.0,0.0,0.0,0.0,0.0,0.0,0.0,0.0,0.0,0.0,0.0,0.0,0.0,0.0,0.0,0.0,0.0,0.0,0.0,0.0,0.0,2.8033,2.9499,3.0769,0.0,0.0,0.0,0.0,0.0,0.0,0.0,0.0,0.0,0.0,6.0914,6.4622,6.9172,6.8434,6.7988,6.9673,6.6473,6.3601,6.2958,6.2494,6.0825,0.0,0.0,0.0,0.0,0.0,0.0,0.0,0.0,0.0,0.0,0.0,0.0,0.0,0.0,0.0,0.0,0.0,0.0,0.0,0.0,0.0,0.0,0.0,0.0,0.0,0.0,0.0,3.0673,2.9902,0.0,0.0,0.0,0.0,0.0,0.0,0.0,0.0,0.0,0.0,0.0,5.1607,5.2621,0.0,0.0,0.0,0.0,0.0,0.0,0.0,0.0,0.0,0.0,0.0,0.0,6.45,6.8651,7.5938,8.0041,8.0555,7.9632,7.8181,7.6159,7.3796,6.9031,6.1559,0.0,0.0,0.0,0.0,0.0,0.0,0.0,0.0,0.0,0.0,0.0,0.0,0.0,0.0,0.0,0.0,0.0,0.0,0.0,0.0,0.0,0.0,0.0,0.0,0.0,3.2743,0.0,0.0,0.0,0.0,0.0,0.0,0.0,0.0,0.0,0.0,0.0,5.5432,6.1579,6.5469,6.8899,7.2018,7.2428,7.2139,0.0,0.0,0.0,0.0,0.0,0.0,0.0,0.0,0.0,0.0,0.0,0.0,0.0,0.0,5.0213,4.452,4.3211,4.2917,4.273,0.0,0.0,0.0,0.0,0.0,0.0,0.0,0.0,0.0,0.0,0.0,0.0,0.0,0.0,3.6915,0.0,3.5724,0.0,0.0,0.0,0.0,0.0,0.0,0.0,0.0,5.4325,5.7076,5.9202,5.9833,5.9559,0.0,5.6507,5.3518,0.0,0.0,0.0,0.0,0.0,0.0,0.0,0.0,6.605,7.0156,7.7,8.0571,8.0539,7.9545,7.8297,7.684,7.3876,6.9699,6.4194,6.1095,5.7629,0.0,0.0,0.0,0.0,0.0,0.0,0.0,0.0,0.0,0.0,0.0,0.0,0.0,0.0,0.0,0.0,0.0,0.0,0.0,0.0,0.0,0.0,0.0,3.6127,0.0,0.0,0.0,0.0,0.0,0.0,0.0,0.0,0.0,4.9918,5.5787,6.1808,6.6508,6.9705,7.211,7.3395,0.0,0.0,0.0,0.0,0.0,0.0,0.0,6.2685,6.3449,6.0994,5.9201,6.008,6.0105,5.9778,5.8991,0.0,0.0,5.1631,5.043,5.0464,4.9989,5.1396,5.2843,5.3272,5.561,5.8141,0.0,0.0,0.0,0.0,0.0,0.0,0.0,0.0,4.2672,4.2392,0.0,4.129,0.0,0.0,0.0,0.0,0.0,4.9763,0.0,0.0,6.5893,6.9139,6.9796,6.8835,6.898,6.9813,6.5844,6.4463,6.4999,5.5684,0.0,0.0,0.0,0.0,0.0,0.0,6.7936,7.2317,7.7374,7.9874,7.9847,7.8786,7.7682,7.6494,7.3202,7.0725,6.9113,6.4986,6.125,5.8137,5.1132,0.0,0.0,0.0,0.0,0.0,0.0,0.0,0.0,0.0,0.0,0.0,0.0,0.0,0.0,0.0,0.0,0.0,0.0,0.0,0.0,3.7536,0.0,0.0,0.0,0.0,0.0,0.0,0.0,0.0,0.0,0.0,5.9248,6.2989,6.7389,7.1544,0.0,0.0,0.0,0.0,7.203,7.1374,6.9145,6.7104,6.5365,6.6166,6.6756,6.6138,0.0,0.0,6.5372,6.607,6.6336,6.4261,6.6367,6.6503,6.0324,5.9395,5.9621,5.9656,6.1495,6.3523,6.4484,6.6292,6.9089,5.2539,0.0,0.0,0.0,0.0,4.63,4.8417,5.114,5.1488,5.0756,4.9315,4.9039,0.0,0.0,0.0,0.0,0.0,0.0,6.0448,6.5636,6.7824,7.0345,7.3149,7.2872,7.2626,7.2352,7.1211,7.0539,7.0272,6.794,6.1991,5.2984,0.0,0.0,0.0,0.0,7.2631,7.5088,7.9294,8.1157,8.0382,7.9349,7.7641,7.5226,7.3674,7.2394,7.1447,6.918,6.6068,6.2042,5.7306,0.0,0.0,0.0,0.0,0.0,0.0,0.0,0.0,0.0,0.0,0.0,0.0,0.0,0.0,0.0,0.0,0.0,0.0,0.0,3.9252,4.2171,4.3448,0.0,0.0,0.0,0.0,0.0,0.0,0.0,0.0,0.0,6.9102,7.0414,7.15,0.0,0.0,7.6,7.4665,7.6243,7.7227,7.6264,7.5496,0.0,0.0,7.1476,7.0946,7.1532,7.2159,7.2125,7.0767,7.1489,7.2072,7.139,7.2094,7.2077,7.0399,6.8218,6.7181,6.7605,6.8751,7.0072,7.1455,7.2883,7.4396,6.1644,5.6106,5.2735,5.2223,5.3677,5.4235,5.617,5.8853,5.8719,5.7928,5.6697,5.6122,5.4483,5.2187,5.3043,0.0,0.0,0.0,6.6942,7.1464,7.2626,7.4581,7.6983,7.7002,7.711,7.7288,7.598,7.5962,7.7124,7.635,7.207,6.4657,0.0,0.0,6.6212,7.2165,7.647,7.8831,8.1658,8.2837,8.2175,8.0411,7.8229,7.5625,7.4492,7.3713,7.3274,7.1582,6.9113,6.5811,6.1873,5.7645,0.0,0.0,0.0,0.0,0.0,0.0,0.0,0.0,0.0,0.0,0.0,3.2467,2.9608,0.0,0.0,0.0,3.9876,4.3159,4.6931,4.8365,0.0,0.0,0.0,0.0,0.0,0.0,0.0,6.3133,6.8342,7.2619,7.5277,7.5839,7.5693,7.4874,7.6712,7.766,7.6384,0.0,7.9279,7.8347,7.8204,7.7667,7.6261,7.494,7.4308,7.4963,7.5052,7.4947,7.4567,7.498,7.5347,7.5404,7.572,7.5978,7.596,7.4741,7.3549,7.3115,7.4184,7.546,7.6129,7.6881,7.781,6.9451,6.8842,6.2009,6.052,6.2637,6.2076,6.3328,6.5649,6.4323,6.3876,6.3942,6.2605,6.2161,6.2613,6.3776,0.0,6.9554,7.1396,7.4163,7.7671,7.9332,8.0498,8.1257,8.1084,8.19,8.3384,8.0231,8.0719,8.4245,8.1599,7.9853,7.9071,7.543,7.4386,7.5991,7.732,7.9658,8.3065,8.4052,8.4575,8.44,8.1662,7.9177,7.7168,7.5588,7.4762,7.4627,7.2631,7.0804,6.9248,6.5189,6.0994,5.6815,0.0,0.0,0.0,0.0,0.0,0.0,0.0,0.0,0.0,0.0,0.0,0.0,0.0,0.0,0.0,5.0278,0.0,5.6622,5.5077,0.0,0.0,0.0,5.3391,5.615,6.2291,6.7426,7.0397,0.0,0.0,7.8699,7.947,7.9637,7.8757,7.9123,7.9232,7.8454,7.9157,7.9485,7.9066,7.8814,7.8441,7.796,7.739,7.7133,7.7092,7.7002,7.7037,7.7021,7.7174,7.7155,7.7412,7.8008,7.8671,7.8707,7.9414,7.9446,7.7087,7.8353,7.9695,7.9092,7.9606,8.0266,7.2428,7.2293,7.0556,6.8233,6.5797,6.617,6.6406,6.6508,6.6149,6.7148,6.8922,6.8009,6.8454,6.9885,7.2015,7.3805,7.532,7.7644,7.9869,8.1885,8.2345,8.2994,8.3711,8.371,8.3893,8.4245,8.349,8.36,8.4519,8.3838,8.3654,8.4058,8.372,8.1669,7.8207,8.1197,8.3329,8.4229,8.4471,8.4212,8.3338,8.106,7.9582,7.9028,7.7318,7.6082,7.5439,7.3849,7.2293,7.0838,6.8707,6.6508,6.4187,5.6494,0.0,0.0,0.0,0.0,0.0,0.0,0.0,0.0,0.0,4.0547,3.669,0.0,4.4908,0.0,5.7229,5.9895,5.6882,5.7199,0.0,0.0,5.9549,6.0964,6.7447,7.0397,7.254,7.4415,7.732,7.9507,8.0351,8.1122,8.1754,8.2088,8.125,8.0299,7.9584,8.1177,8.2603,8.2896,8.2915,8.2991,8.2532,8.1491,8.0364,7.977,7.968,7.9644,7.968,8.0367,8.1073,8.1656,8.1975,8.2384,8.2859,8.3318,8.3221,8.2578,8.2108,8.1578,8.1415,8.2406,8.3434,7.4695,7.4999,7.4999,7.3459,7.0943,7.0233,6.9947,6.998,6.9672,7.0626,7.2411,7.315,7.4025,7.5173,7.8027,7.9526,8.0053,8.1786,8.3104,8.3948,8.4298,8.4903,8.5656,8.604,8.6224,8.6224,8.6554,8.6554,8.6224,8.6537,8.6941,8.7399,8.7822,8.6317,8.3104,8.5086,8.549,8.4095,8.4425,8.397,8.2731,8.0893,7.9124,7.7491,7.6734,7.554,7.3815,7.3916,7.2699,6.9936,6.8707,6.7231,6.5337,5.9641,5.6158,0.0,0.0,0.0,0.0,0.0,0.0,0.0,0.0,0.0,0.0,0.0,5.087,5.4763,6.109,6.3633,6.0397,6.2243,6.4502,6.6583,6.6837,6.8769,7.3456,7.5478,7.7061,7.8579,8.0329,8.1709,8.2517,8.2994,8.3398,8.3858,8.3177,8.2443,8.2113,8.3141,8.4095,8.4535,8.4609,8.4609,8.4609,8.3724,8.2917,8.25,8.2391,8.2391,8.2391,8.2879,8.3434,8.3821,8.3948,8.4058,8.4499,8.4609,8.4609,8.4535,8.4205,8.3691,8.3361,8.3985,8.4609,7.6415,7.7169,7.7169,7.6942,7.64,7.4189,7.3657,7.4288,7.3682,7.415,7.5576,7.8044,7.9118,7.9315,8.2237,8.3601,8.3748,8.4425,8.4792,8.4939,8.5747,8.6481,8.7178,8.7986,8.8353,8.839,8.8959,8.8959,8.839,8.8959,8.9253,8.9253,8.9363,8.8849,8.7802,8.8023,8.6632,8.358,8.389,8.3411,8.2019,8.058,7.8291,7.517,7.5534,7.4559,7.1921,7.3454,7.254,6.8605,6.7726,6.6453,6.4424,6.2618,5.9997,0.0,5.4171,0.0,0.0,0.0,0.0,0.0,0.0,0.0,0.0,5.6126,5.7714,5.7808,6.3463,6.6638,6.5461,6.8019,7.0162,7.1276,7.3512,7.5359,7.6543,7.8626,8.055,8.2039,8.281,8.3564,8.4205,8.4462,8.4462,8.4535,8.4609,8.4572,8.4682,8.4682,8.4829,8.4866,8.4903,8.5049,8.4866,8.4776,8.4632,8.4575,8.4395,8.4609,8.4448,8.4482,8.4609,8.4719,8.4756,8.4792,8.4866,8.4939,8.5013,8.5196,8.5673,8.571,8.4976,8.4903,8.4903,7.7624,7.8616,7.8581,7.8565,7.8432,7.7967,7.7163,7.6168,7.6085,7.7732,8.0586,8.2548,8.3436,8.3473,8.4101,8.4756,8.5343,8.549,8.593,8.6574,8.7399,8.7839,8.8023,8.8812,8.9179,8.9143,8.8647,8.8666,8.9143,8.8666,8.8426,8.8463,8.9069,8.8005,8.5527,0.0,0.0,0.0,8.2378,8.0945,7.9837,7.8588,7.7602,7.6876,7.6729,0.0,7.4096,7.3815,7.2766,7.0804,7.0511,0.0,0.0,0.0,0.0,0.0,0.0,0.0,0.0,0.0,0.0,0.0,5.9466,5.9239,5.7389,6.2345,6.4969,6.3409,6.6508,6.891,6.9408,7.0,7.1629,7.4547,7.5395,7.6811,7.9605,8.0491,8.1158,8.2076,8.2333,8.2737,8.3528,8.3638,8.3895,8.4535,8.5159,8.5527,8.5527,8.5527,8.5783,8.6407,8.6427,8.6261,8.5673,8.5563,8.5343,8.4792,8.4609,8.4646,8.4682,8.4646,8.4903,8.5416,8.558,8.5783,8.6407,8.6554,8.6701,8.7362,8.7619,8.7288,8.5894,8.6114,8.6537,7.9908,0.0,8.0723,8.1008,0.0,8.152,8.1167,8.0479,7.921,8.0171,8.2749,8.4459,8.4976,8.4646,8.5453,8.5783,8.582,8.6224,8.6628,8.7014,8.7399,8.7839,8.8206,8.8647,8.8812,8.8812,8.883,8.8793,8.8812,8.883,8.8776,8.883,8.9216,8.8372,8.6464,8.6227,8.5517,8.4142,8.1741,8.0103,7.9409,7.8067,7.6748,7.5548,0.0,0.0,0.0,0.0,0.0,0.0,0.0,0.0,0.0,0.0,0.0,6.4476,6.2032,6.0417,6.0156,6.0675,6.2273,6.4973,6.6801,6.6884,6.4711,6.7993,6.9882,6.9337,7.0968,7.2636,7.4002,7.4666,7.5881,7.7971,7.8673,7.9746,8.1224,8.1599,8.1929,8.2627,8.2774,8.3104,8.3895,8.3985,8.4115,8.4535,8.4939,8.5196,8.527,8.5894,8.6591,8.6941,8.7014,8.6831,8.6481,8.6371,8.6297,8.5857,8.5783,8.5783,8.5783,8.5783,8.593,8.6297,8.6407,8.6664,8.7399,8.7582,8.7839,8.8556,8.8793,8.8592,8.7729,8.7895,8.8189,8.2145,8.2857,8.2857,8.3389,8.4187,8.4187,8.4354,8.4448,0.0,0.0,0.0,8.5416,8.5637,8.5123,8.6427,8.6664,8.6077,8.6701,8.7014,8.7014,8.7161,8.7582,8.8169,8.8353,8.8426,8.8463,8.894,8.8923,8.8426,8.8923,8.9179,8.9179,8.9179,8.8705,8.7575,8.5047,8.3705,8.3594,8.1003,7.9379,7.889,7.7694,7.6005,7.3906,7.5202,7.4728,7.2202,7.4289,7.3747,7.0128,6.9857,6.9586,6.8876,6.7049,6.7083,6.9383,6.8504,6.7855,6.8025,6.8551,6.9401,7.0503,7.2315,7.2957,7.2076,7.2564,7.3313,7.4406,7.5025,7.6053,7.7747,7.8653,7.9593,8.0387,8.1243,8.1746,8.1929,8.1966,8.2223,8.3014,8.3124,8.3454,8.4205,8.4168,8.4242,8.4352,8.4352,8.4546,8.4882,8.5885,8.6685,8.6865,8.691,8.6956,8.6959,8.6953,8.6995,8.6867,8.6904,8.7014,8.7014,8.7142,8.7198,8.7198,8.7308,8.7711,8.8243,8.8426,8.872,8.9436,8.962,8.9657,8.9803,8.984,8.9693,8.3374,8.4306,8.4306,8.4412,8.4515,8.4515,8.4564,8.4629,8.4913,8.559,8.65,8.6738,8.6775,8.6684,8.6867,8.6941,8.6831,8.6941,8.7014,0.0,8.7729,8.8096,8.8243,8.8886,8.9253,8.9179,8.8629,8.8683,8.9106,8.8629,8.8353,8.839,8.8353,8.7468,8.5685,8.3401,8.2229,8.2137,7.9229,7.7246,7.6255,7.6038,7.5798,7.5462,7.6251,7.6251,7.5134,7.4897,7.4187,7.2935,7.2891,7.2823,7.2688,7.1718,7.1515,7.1887,7.1718,7.165,7.1659,7.2326,7.3447,7.5113,7.6356,7.6339,7.4735,7.4662,7.5171,7.6215,7.6474,7.6936,7.8009,7.8404,7.904,7.9808,8.0051,8.0404,8.1158,8.1269,8.1562,8.2333,8.237,8.2717,8.3427,8.308,8.2966,8.3414,8.3676,8.4007,8.5028,8.564,8.6034,8.6523,8.6733,8.6823,8.675,8.6919,8.6951,8.7014,8.7014,8.7088,8.7088,8.7655,8.7986,8.8023,8.8482,8.8959,8.9216,8.9216,8.9583,9.0244,9.0427,9.0611,9.1143,9.1289,9.0959,8.5457,8.5913,8.5894,8.5877,8.5894,8.5894,8.5877,8.593,8.6297,8.6407,8.6371,8.6811,8.6775,8.6407,8.6794,8.6775,8.6371,8.6794,8.7014,8.7014,8.7381,8.7545,8.7582,8.7932,8.8115,8.8078,8.7711,8.7766,8.8042,8.7711,8.7582,8.7511,8.6939,8.5581,8.3514,8.2414,8.1582,8.0946,7.9197,7.8047,7.7536,7.7164,7.6961,7.6985,7.7299,7.713,7.6386,7.6014,7.5303,7.4153,7.4492,7.4525,7.4119,7.3781,7.3612,7.3612,7.3578,7.3844,7.4417,7.5742,7.6843,7.7663,7.8155,7.841,7.8134,7.7561,7.7682,7.8695,7.8808,7.9251,8.0259,8.0361,8.0566,8.1053,8.1085,8.1232,8.1562,8.1636,8.1782,8.2113,8.2186,8.2475,8.3226,8.2939,8.2843,8.3235,8.3309,8.3737,8.4761,8.5184,8.565,8.6392,8.6632,8.65,8.6251,8.6595,8.6685,8.6436,8.7105,8.7545,8.7692,8.8316,8.8793,8.8867,8.9179,8.9546,8.9913,9.006,9.0408,9.1033,9.1253,9.1473,9.173,9.1803,9.151,8.7014,8.7014,8.7014,8.7014,8.7014,8.7014,8.7014,8.7014,8.6978,8.6628,8.6187,8.6738,8.6664,8.6187,8.6738,8.6647,8.6224,8.6701,8.7014,8.7014,8.7014,8.7014,8.7014,8.7014,8.7014,8.7014,8.7014,8.7014,8.6997,8.6749,8.6482,8.6119,8.5104,8.3628,8.1922,8.1629,8.1087,8.0217,7.9608,7.9363,7.9329,7.8788,7.8508,7.8483,7.8339,7.7976,7.7435,7.7232,7.6589,7.5506,7.5912,7.5946,7.5439,7.562,7.5727,7.575,7.5994,7.6493,7.7345,7.8958,7.9914,7.9914,7.9932,8.032,8.1021,8.0308,8.0051,8.0804,8.0874,8.1263,8.1895,8.2096,8.2186,8.2186,8.2186,8.2113,8.2186,8.2186,8.2263,8.2375,8.2418,8.2708,8.3232,8.3419,8.3531,8.3718,8.3968,8.4403,8.4713,8.5219,8.5973,8.6465,8.6651,8.6291,8.5723,8.6274,8.6626,8.6316,8.7536,8.8398,8.8786,8.9399,8.9723,8.9781,8.9877,9.0244,9.0776,9.0886,9.1106,9.162,9.1693,9.1767,9.1767,9.1803,9.1803,8.7014,8.7014,8.7014,8.7014,8.7014,8.7014,8.7014,8.7014,8.7014,8.6995,8.6867,8.6995,8.6941,8.6904,8.6941,8.6941,8.6831,8.6978,8.7014,8.7014,8.7014,8.7014,8.7014,8.7014,8.7014,8.7014,8.7014,8.7014,8.6943,8.6009,8.4967,8.3881,8.2773,8.2175,8.1759,8.0868,8.0301,8.0209,8.0141,8.0107,8.0107,8.004,8.0006,7.9972,7.9329,7.8991,7.8763,7.8247,7.7831,7.773,7.7754,7.773,7.775,7.8624,7.921,7.9221,8.0144,8.0821,8.093,8.1959,8.2569,8.2625,8.2754,8.2896,8.3031,8.2358,8.1919,8.2058,8.2038,8.2035,8.2186,8.2186,8.2186,8.2203,8.2251,8.2186,8.2267,8.2186,8.2402,8.303,8.32,8.3387,8.4141,8.4331,8.4481,8.5022,8.6043,8.6571,8.623,8.6681,8.7101,8.7185,8.6842,8.6206,8.5839,8.6224,8.7026,8.7719,8.8589,8.9361,9.0005,9.0722,9.1309,9.0644,9.0996,9.14,9.151,9.1693,9.1657,9.1693,9.1803,9.1803,9.1803,9.1803,9.1803,8.7014,8.7014,8.7014,8.7014,8.7014,8.7014,8.7014,8.7014,8.7014,8.7014,8.7014,8.7014,8.7014,8.7014,8.7014,8.7014,8.7014,8.7014,8.7014,8.7014,8.7014,8.7014,8.7014,8.7014,8.7014,8.7014,8.7014,8.7014,8.6784,8.5843,8.4375,8.2728,8.2106,8.1558,8.0917,8.0417,8.0209,8.0209,8.0209,8.0209,8.0209,8.0209,8.0209,8.0175,7.9904,7.9532,7.9101,7.8822,7.845,7.8117,7.9033,7.9437,7.9048,8.0511,8.1145,8.0844,8.1749,8.2343,8.2362,8.3338,8.3967,8.3967,8.3583,8.3601,8.4022,8.3398,8.3104,8.3434,8.2737,8.2186,8.2239,8.2186,8.2186,8.2251,8.256,8.283,8.2793,8.3169,8.3665,8.4347,8.4499,8.4996,8.5971,8.6282,8.6168,8.6206,8.7019,8.7603,8.7281,8.7723,8.8107,8.8154,8.7881,8.7455,8.6931,8.7466,8.7978,8.8264,8.9508,9.0774,9.0652,9.1699,9.2212,9.1433,9.1583,9.1767,9.173,9.1803,9.1803,9.1803,9.1803,9.1803,9.1803,9.1803,9.1803,8.7014,8.7014,8.7014,8.7014,8.7014,8.7014,8.7014,8.7014,8.7014,8.7014,8.7014,8.7014,8.7014,8.7014,8.7014,8.7014,8.7014,8.7014,8.7014,8.7014,8.7014,8.7014,8.7014,8.7014,8.7014,8.7014,8.7014,8.6679,8.6064,8.5259,8.367,8.1746,8.1427,8.1004,8.0301,8.0209,8.0209,8.0209,8.0209,8.0209,8.0259,8.0517,8.0517,8.0225,8.0209,7.9938,7.9431,7.971,7.9635,7.9172,8.0663,8.1322,8.0878,8.2347,8.3162,8.3021,8.3639,8.4119,8.4119,8.4835,8.527,8.5196,8.4535,8.4315,8.4679,8.4347,8.4293,8.4689,8.3977,8.3466,8.3161,8.3108,8.3113,8.3139,8.3717,8.4087,8.389,8.443,8.5184,8.587,8.6019,8.6491,8.7676,8.8076,8.8076,8.7655,8.8162,8.8496,8.8412,8.8737,8.9017,8.9017,8.9017,8.8621,8.7974,8.8287,8.8577,8.9202,9.0449,9.1627,9.129,9.2503,9.281,9.1918,9.1892,9.1803,9.1803,9.1803,9.1803,9.1803,9.1803,9.1803,9.1803,9.1803,9.1803,8.7014,8.7014,8.7014,8.7014,8.7014,8.7014,8.7014,8.7014,8.7014,8.7014,8.7014,8.7014,8.7014,8.7014,8.7014,8.7014,8.7014,8.7014,8.7014,8.7014,8.7014,8.7014,8.7014,8.7014,8.7014,8.6978,8.6904,8.5882,8.4012,8.3684,8.2504,8.0467,8.0358,8.0242,8.0209,8.0209,8.0234,8.0326,8.0326,8.0301,8.0451,8.1331,8.1331,8.0492,8.025,8.0342,8.0324,8.1225,8.1701,8.1701,8.2787,8.3394,8.3465,8.4505,8.5567,8.6459,8.669,8.6761,8.6705,8.6721,8.6757,8.6738,8.6015,8.5688,8.5785,8.5618,8.5604,8.5633,8.6114,8.6073,8.5636,8.5305,8.5222,8.5168,8.5952,8.6028,8.5399,8.6051,8.6836,8.7422,8.7665,8.7977,8.8635,8.9338,8.9592,8.966,9.0341,9.0601,8.9882,8.979,8.9855,8.9855,8.9752,8.9349,8.8176,8.8766,8.9439,8.9831,9.0836,9.2387,9.2947,9.3201,9.271,9.2328,9.1982,9.1803,9.1803,9.1803,9.1803,9.1803,9.1803,9.1803,9.1803,9.1803,9.1875,8.7014,8.7014,8.7014,8.7014,8.7014,8.7014,8.7014,8.7014,8.7014,8.7014,8.7014,8.7014,8.7014,8.7014,8.7014,8.7014,8.7014,8.7014,8.7014,8.7014,8.7014,8.7014,8.7014,8.7014,8.7014,8.6941,8.6464,8.5464,8.3944,8.2755,8.187,8.1196,8.0066,7.9701,8.0107,8.0209,8.0542,8.1222,8.1318,8.1605,8.229,8.2773,8.2773,8.2426,8.2381,8.2381,8.2381,8.2773,8.2994,8.2994,8.4047,8.4693,8.4793,8.5768,8.6761,8.7554,8.7265,8.7197,8.757,8.7265,8.7014,8.6993,8.6701,8.6746,8.713,8.7171,8.7257,8.7725,8.8046,8.8229,8.8167,8.7209,8.6286,8.6367,8.6895,8.7289,8.7089,8.7517,8.8279,8.8998,8.9534,8.9857,8.964,9.0201,9.047,9.0086,9.0624,9.0932,9.0855,9.0701,9.0663,9.074,9.0692,9.0386,8.945,8.9897,9.0493,9.0447,9.0947,9.1281,9.1723,9.2269,9.1992,9.1936,9.1711,9.1803,9.1803,9.1803,9.1803,9.1803,9.1803,9.184,9.1803,9.1983,9.2194,8.7014,8.7014,8.7014,8.6848,8.6664,8.6867,8.6848,8.6664,8.6867,8.7014,8.7014,8.7014,8.6867,8.6628,8.6628,8.6444,8.6334,8.6721,8.7014,8.7014,8.7014,8.7014,8.7014,8.7014,8.7014,8.6867,8.6187,8.5078,8.3709,8.2437,8.193,8.1925,8.0708,8.04,8.0847,8.0916,8.1319,8.1974,8.2087,8.2524,8.3508,8.4,8.413,8.4227,8.4492,8.4309,8.3685,8.3958,8.413,8.4309,8.522,8.5955,8.6245,8.7147,8.7908,8.8271,8.7985,8.7892,8.8294,8.7969,8.7709,8.7672,8.763,8.787,8.8348,8.8541,8.8872,8.9324,8.9681,9.0006,9.005,8.9033,8.806,8.7904,8.8398,8.8689,8.847,8.9091,8.9696,9.0213,9.0713,9.0808,9.0547,9.0864,9.0864,9.0355,9.0855,9.1163,9.1201,9.1201,9.1201,9.1201,9.1124,9.094,9.0318,9.0406,9.0162,9.008,9.0314,9.0464,9.0578,9.11,9.1474,9.1464,9.1583,9.173,9.1822,9.1822,9.184,9.1821,9.1821,9.1875,9.2,9.2227,9.2629,8.6978,8.6904,8.6995,8.6444,8.593,8.6481,8.6444,8.5967,8.6518,8.6738,8.6684,8.6831,8.6371,8.5894,8.5783,8.538,8.5159,8.6151,8.6721,8.6757,8.6794,8.6811,8.6757,8.6721,8.6647,8.6574,8.604,8.4748,8.3082,8.2784,8.2564,8.2457,8.2206,8.1915,8.2305,8.2198,8.2298,8.2502,8.2573,8.3011,8.3684,8.4793,8.5355,8.5489,8.6319,8.5955,8.4012,8.4855,8.5414,8.5508,8.6445,8.7324,8.7948,8.8565,8.9056,8.9045,8.9056,8.9069,8.9109,8.9016,8.8883,8.891,8.8994,8.9008,8.9137,8.9652,9.004,9.0181,9.0664,9.1109,9.1091,9.0863,9.049,9.0098,9.0352,9.0468,9.0196,9.0607,9.1163,9.1124,9.1163,9.1201,9.1163,9.1163,9.1086,9.1086,9.1124,9.1201,9.1201,9.1201,9.1201,9.1201,9.1154,9.1035,9.0848,9.0558,8.9889,8.9427,8.9727,8.9963,8.9794,9.0052,9.0711,9.0863,9.1565,9.1748,9.1857,9.1893,9.2071,9.2106,9.2072,9.2279,9.2645,9.3045,9.338,8.6187,8.6114,8.5563,8.5233,8.5013,8.527,8.5196,8.5013,8.527,8.538,8.5343,8.5343,8.5196,8.5049,8.4976,8.4829,8.4646,8.5159,8.5343,8.5343,8.538,8.5416,8.5416,8.538,8.5049,8.4555,8.4262,8.3887,8.3218,8.2541,8.2545,8.3203,8.2257,8.1957,8.2445,8.2396,8.2708,8.3542,8.4107,8.4907,8.5843,8.6283,8.6709,8.721,8.7593,8.7561,8.7412,8.7274,8.7222,8.7206,8.801,8.8551,8.8788,8.899,8.9289,8.9655,8.9314,8.9326,8.9681,8.9351,8.9173,8.9225,8.9537,8.9763,8.9855,9.0436,9.0791,9.0848,9.1091,9.1201,9.1201,9.1201,9.1047,9.0816,9.1056,9.1095,9.0816,9.1018,9.1163,9.1201,9.1201,9.1201,9.1201,9.1201,9.1201,9.1201,9.1201,9.1201,9.1201,9.1201,9.1201,9.1201,9.1145,9.1035,9.0762,9.0467,8.9923,8.9276,8.9275,8.9301,8.9138,8.932,8.9932,9.0783,9.1434,9.1837,9.1982,9.2124,9.2348,9.2744,9.2998,9.3288,9.3633,9.3921,9.417,8.6077,8.5764,8.527,8.4682,8.4225,8.4462,8.4425,8.4242,8.4462,8.4609,8.4609,8.4609,8.4425,8.4205,8.4168,8.3985,8.3728,8.3691,8.3691,8.3875,8.4425,8.4572,8.4609,8.4609,8.4168,8.3528,8.3418,8.3234,8.2961,8.2636,8.2902,8.3465,8.2911,8.2788,8.3197,8.3252,8.3725,8.4682,8.5191,8.6135,8.7154,8.7411,8.7757,8.8367,8.846,8.8715,8.9069,8.891,8.8719,8.8622,8.9122,8.9438,8.9462,8.9728,9.0062,9.0294,9.0187,9.0111,9.0426,9.0176,8.9882,8.9961,9.0273,9.0498,9.0596,9.1008,9.1154,9.1201,9.1201,9.1201,9.1201,9.1201,9.1201,9.1201,9.1163,9.1201,9.1201,9.1201,9.1201,9.1201,9.1201,9.1201,9.1201,9.1201,9.1201,9.1201,9.1201,9.1201,9.1201,9.1201,9.1201,9.1201,9.1201,9.0989,9.0636,9.0305,8.9957,8.9364,8.8877,8.8696,8.8445,8.9018,8.9615,9.1105,9.2064,9.2458,9.2612,9.2699,9.2858,9.3371,9.3864,9.4047,9.4252,9.4463,9.4768,8.6481,8.5837,8.5673,8.4719,8.3601,8.4095,8.3948,8.3528,8.4022,8.4315,8.4352,8.4242,8.3948,8.3418,8.3344,8.2994,8.2333,8.2406,8.2443,8.2774,8.3581,8.4278,8.4389,8.4242,8.3875,8.3491,8.3308,8.2957,8.2574,8.3004,8.3491,8.376,8.4205,8.4505,8.4393,8.4578,8.4931,8.5487,8.5868,8.6779,8.807,8.813,8.846,8.9122,8.9136,8.9213,8.9464,8.9809,8.9809,8.9376,8.9855,9.016,9.0284,9.0848,9.1082,9.11,9.1183,9.1082,9.1136,9.0998,9.0989,9.098,9.1008,9.1201,9.1118,9.1127,9.1201,9.1201,9.1201,9.1201,9.1201,9.1201,9.1201,9.1201,9.1201,9.1201,9.1201,9.1201,9.1201,9.1201,9.1201,9.1201,9.1201,9.1201,9.1201,9.1201,9.1201,9.1201,9.1201,9.1201,9.1201,9.1201,9.1201,9.1109,9.0848,9.0714,9.0406,9.0095,8.9402,8.8859,8.8668,8.9182,9.0049,9.152,9.2546,9.2918,9.3303,9.3395,9.3633,9.4088,9.4411,9.4592,9.4866,9.5142,9.5318,8.6004,8.569,8.4535,8.3785,8.3344,8.303,8.2737,8.2553,8.2737,8.2957,8.2884,8.281,8.281,8.2517,8.2553,8.237,8.2223,8.2186,8.2186,8.226,8.2553,8.3177,8.3471,8.3141,8.3104,8.3271,8.2884,8.2737,8.3067,8.3271,8.3911,8.5123,8.4696,8.4606,8.4646,8.5207,8.5505,8.5828,8.6966,8.7884,8.8644,8.8829,8.9186,8.9763,8.9832,9.0095,9.0556,9.0781,9.0867,9.0694,9.0772,9.0905,9.0886,9.1053,9.1201,9.1201,9.1201,9.1201,9.1201,9.1201,9.1201,9.1201,9.1201,9.1201,9.1201,9.1201,9.1201,9.1201,9.1201,9.1201,9.1201,9.1201,9.1201,9.1201,9.1201,9.1201,9.1201,9.1201,9.1201,9.1201,9.1201,9.1201,9.1201,9.1201,9.1201,9.1201,9.1201,9.1201,9.1201,9.1201,9.1201,9.1201,9.1201,9.1201,9.1118,9.1017,9.0895,9.0839,9.0279,8.9537,8.9635,9.0061,9.1135,9.2457,9.293,9.3333,9.392,9.4292,9.4579,9.4805,9.5261,9.5544,9.5741,9.5981,9.5902,8.6114,8.571,8.4792,8.4205,8.3821,8.303,8.27,8.2627,8.2333,8.2443,8.2553,8.2333,8.237,8.2663,8.237,8.2186,8.2186,8.2186,8.2186,8.2186,8.2223,8.27,8.3124,8.2884,8.2941,8.3234,8.259,8.248,8.2884,8.3197,8.3765,8.4195,8.482,8.5002,8.515,8.6143,8.6833,8.7202,8.8096,8.8842,8.9438,8.9499,8.9927,9.0426,9.0548,9.08,9.1175,9.1201,9.1201,9.1154,9.1201,9.1201,9.1201,9.1201,9.1201,9.1201,9.1201,9.1201,9.1201,9.1201,9.1201,9.1201,9.1201,9.1201,9.1201,9.1201,9.1201,9.1201,9.1201,9.1201,9.1201,9.1201,9.1201,9.1201,9.1201,9.1201,9.1201,9.1201,9.1201,9.1201,9.1201,9.1201,9.1201,9.1201,9.1201,9.1201,9.1201,9.1201,9.1201,9.1201,9.1201,9.1201,9.1201,9.1201,9.1201,9.1118,9.1091,9.1026,9.0876,9.0198,9.025,9.0663,9.1509,9.248,9.3129,9.3763,9.4248,9.4776,9.5189,9.5522,9.604,9.6212,9.6192,9.6095,9.6134,8.6407,8.5673,8.5747,8.5343,8.4535,8.3858,8.3528,8.3381,8.2737,8.2774,8.3067,8.2517,8.2517,8.3197,8.2443,8.2186,8.2186,8.2186,8.2186,8.2296,8.2517,8.303,8.3564,8.3161,8.3271,8.3434,8.2663,8.2406,8.2655,8.3149,8.3284,8.3814,8.5105,8.569,8.6179,8.7281,8.8329,8.8721,8.8998,8.9561,9.0084,9.0252,9.0498,9.0914,9.1044,9.1091,9.1192,9.1201,9.1201,9.1201,9.1201,9.1201,9.1201,9.1201,9.1201,9.1201,9.1201,9.1201,9.1201,9.1201,9.1201,9.1201,9.1201,9.1201,9.1201,9.1201,9.1201,9.1201,9.1201,9.1201,9.1201,9.1201,9.1201,9.1201,9.1201,9.1201,9.1201,9.1201,9.1201,9.1201,9.1201,9.1201,9.1201,9.1201,9.1201,9.1201,9.1201,9.1201,9.1201,9.1201,9.1201,9.1201,9.1201,9.1201,9.1201,9.1201,9.1154,9.1136,9.1127,9.079,9.0628,9.0988,9.1579,9.2351,9.3209,9.3856,9.4324,9.4876,9.5256,9.5307,9.5232,9.5663,9.6019,9.5826,9.5788,8.56,8.4903,8.5543,8.5343,8.4646,8.4425,8.4352,8.4278,8.3454,8.3197,8.3214,8.2553,8.2333,8.2517,8.2382,8.2186,8.2284,8.2316,8.2186,8.237,8.3618,8.4095,8.4108,8.3362,8.3317,8.3757,8.2863,8.2602,8.3084,8.3503,8.422,8.5715,8.5998,8.6727,8.7432,8.8343,8.8833,8.9049,8.9558,9.0241,9.0743,9.0886,9.0989,9.1201,9.1201,9.1201,9.1201,9.1201,9.1201,9.1201,9.1201,9.1201,9.1201,9.1201,9.1201,9.1201,9.1201,9.1201,9.1201,9.1201,9.1201,9.1201,9.1201,9.1201,9.1201,9.1201,9.1201,9.1201,9.1201,9.1201,9.1201,9.1201,9.1201,9.1201,9.1201,9.1201,9.1201,9.1201,9.1201,9.1201,9.1201,9.1201,9.1201,9.1201,9.1201,9.1201,9.1201,9.1201,9.1201,9.1201,9.1201,9.1201,9.1201,9.1201,9.1201,9.1201,9.1201,9.1201,9.1201,9.1183,9.1026,9.1208,9.1768,9.2523,9.3448,9.3896,9.4009,9.4163,9.4369,9.4348,9.4441,9.4826,9.5095,9.5172,9.548,8.5894,8.527,8.604,8.6114,8.571,8.5343,8.5159,8.4939,8.3895,8.3638,8.3638,8.2737,8.2406,8.2749,8.2697,8.2678,8.2859,8.3447,8.3943,8.4433,8.5313,8.5768,8.5939,8.5038,8.4837,8.5376,8.404,8.3734,8.4203,8.4681,8.5317,8.6271,8.7134,8.789,8.8501,8.9475,9.0016,9.0079,9.0368,9.0848,9.1127,9.1201,9.1201,9.1201,9.1201,9.1201,9.1201,9.1201,9.1201,9.1201,9.1201,9.1201,9.1201,9.1201,9.1201,9.1201,9.1201,9.1201,9.1201,9.1201,9.1201,9.1201,9.1201,9.1201,9.1201,9.1201,9.1201,9.1201,9.1201,9.1201,9.1201,9.1201,9.1201,9.1201,9.1163,9.1163,9.1201,9.1201,9.1201,9.1201,9.1201,9.1201,9.1201,9.1201,9.1201,9.1201,9.1201,9.1201,9.1201,9.1201,9.1201,9.1201,9.1201,9.1201,9.1201,9.1201,9.1201,9.1201,9.1201,9.1201,9.1115,9.145,9.1878,9.2414,9.2819,9.3068,9.3172,9.3326,9.3595,9.3826,9.4018,9.4095,9.4335,9.4758,9.5104,8.6334,8.5673,8.6628,8.7027,8.6852,8.624,8.6041,8.5881,8.4399,8.4162,8.4357,8.3124,8.3115,8.3528,8.3423,8.3396,8.3913,8.485,8.5686,8.6226,8.6551,8.7028,8.728,8.6939,8.6849,8.7107,8.5573,8.5191,8.5648,8.6366,8.6528,8.6473,8.7976,8.9034,8.9549,9.0388,9.0997,9.0976,9.1015,9.1109,9.1201,9.1201,9.1201,9.1201,9.1201,9.1201,9.1201,9.1201,9.1201,9.1201,9.1201,9.1201,9.1201,9.1201,9.1201,9.1201,9.1201,9.1201,9.1201,9.1201,9.1201,9.1201,9.1201,9.1201,9.1201,9.1163,9.1047,9.0864,9.0748,9.0671,9.0932,9.0893,9.0902,9.0932,9.0979,9.1056,9.1171,9.1133,9.0932,9.1201,9.1201,9.1201,9.1201,9.1201,9.1201,9.1201,9.1201,9.1201,9.1201,9.1201,9.1201,9.1201,9.1201,9.1201,9.1201,9.1201,9.1201,9.1201,9.1201,9.1201,9.1201,9.1355,9.1595,9.1556,9.1855,9.2133,9.2518,9.2826,9.3133,9.3403,9.3642,9.3758,9.4066,9.4412,9.4797,8.5527,8.4939,8.639,8.6976,8.6895,8.6688,8.6869,8.7176,8.562,8.5113,8.5073,8.4287,8.4221,8.4702,8.4291,8.4419,8.521,8.6238,8.6767,8.7108,8.7524,8.8091,8.814,8.8151,8.8441,8.8713,8.756,8.6644,8.6714,8.7175,8.7851,8.8411,8.9237,9.0002,9.0558,9.1107,9.1201,9.1201,9.1201,9.1201,9.1201,9.1201,9.1201,9.1201,9.1201,9.1201,9.1201,9.1201,9.1201,9.1201,9.1201,9.1201,9.1201,9.1201,9.1201,9.1201,9.1201,9.1163,9.1047,9.1124,9.1163,9.1201,9.1009,9.1056,9.1095,9.1047,9.0633,9.0133,8.9671,8.944,9.0047,9.0124,9.0124,9.0124,9.0163,9.0355,9.074,9.0586,9.0402,9.071,9.0932,9.1201,9.1201,9.1201,9.1201,9.1201,9.1201,9.1201,9.1201,9.1201,9.1201,9.1201,9.1201,9.1201,9.1201,9.1201,9.1201,9.1201,9.1201,9.1201,9.1201,9.1201,9.124,9.1317,9.1317,9.1518,9.1902,9.2287,9.2441,9.2556,9.2979,9.345,9.3787,9.4172,9.4758,8.5942,8.5245,8.6407,8.6838,8.6734,8.6714,8.6854,8.697,8.5914,8.5386,8.5173,8.4619,8.4669,8.5221,8.5454,8.5958,8.7034,8.7957,8.8339,8.853,8.9178,8.9598,8.9517,8.9566,8.9992,9.024,8.9485,8.8651,8.8475,8.9207,8.9382,8.9487,9.016,9.0816,9.1086,9.1154,9.1201,9.1201,9.1201,9.1201,9.1201,9.1201,9.1201,9.1201,9.1201,9.1201,9.1201,9.1201,9.1201,9.1201,9.1201,9.1201,9.1163,9.1124,9.1163,9.1124,9.1124,9.0932,9.0633,9.0509,9.0316,8.9902,8.994,8.9902,8.9902,8.9787,8.9748,8.9363,8.9094,8.8833,8.9248,8.9286,8.9286,8.9286,8.9286,8.9479,8.971,8.9479,8.9671,9.0094,9.0633,9.0941,9.1201,9.1201,9.1201,9.1201,9.1163,9.1124,9.1047,9.1047,9.1009,9.1201,9.1201,9.1201,9.1201,9.1201,9.1201,9.1201,9.1201,9.1201,9.1201,9.1201,9.1201,9.1201,9.1201,9.1201,9.1317,9.1748,9.1748,9.1864,9.2595,9.321,9.3518,9.3941,9.472,8.6524,8.5837,8.6472,8.6759,8.677,8.6592,8.6652,8.6585,8.5898,8.5553,8.5446,8.5,8.5235,8.6085,8.6902,8.7811,8.9017,8.9589,8.9785,9.0151,9.0612,9.1089,9.1154,9.1201,9.1071,9.0931,9.092,9.0864,9.0248,9.0592,9.0636,9.0503,9.0923,9.1201,9.1201,9.1201,9.1201,9.1201,9.1201,9.1201,9.1201,9.1201,9.1201,9.1201,9.1201,9.1201,9.1201,9.1201,9.1201,9.1124,9.1009,9.0893,9.0893,9.0787,9.071,9.071,9.0825,9.0441,8.994,8.9671,8.9479,8.9056,8.8795,8.8756,8.8679,8.8786,8.8556,8.8641,8.8179,8.8179,8.8325,8.844,8.844,8.8449,8.8449,8.8526,8.8718,8.8718,8.8671,8.9248,9.0133,9.0517,9.0586,9.074,9.0624,9.0402,9.0364,9.047,9.0432,9.0663,9.074,9.1047,9.1201,9.1201,9.1201,9.1201,9.1201,9.1201,9.1201,9.1201,9.1201,9.1201,9.1201,9.1201,9.1201,9.1201,9.1201,9.1325,9.1633,9.2056,9.2595,9.2941,9.3172,9.4134,9.5211,8.6694,8.6465,8.6577,8.6931,8.7285,8.6622,8.6724,8.7088,8.6303,8.6,8.5951,8.5955,8.6657,8.7989,8.8976,8.9524,8.9731,8.997,9.0316,9.071,9.1047,9.1201,9.1201,9.1201,9.1201,9.1201,9.1201,9.1171,9.0979,9.1086,9.1163,9.1047,9.1009,9.1201,9.1201,9.1201,9.1201,9.1201,9.1201,9.1201,9.1201,9.1201,9.1201,9.1201,9.1201,9.1201,9.1201,9.1201,9.1201,9.1133,9.047,9.0086,8.9932,8.9363,8.9056,8.921,8.9517,8.971,8.8979,8.8825,8.8709,8.841,8.8449,8.8641,8.8295,8.7902,8.7825,8.8603,8.744,8.694,8.744,8.7555,8.7555,8.7555,8.7555,8.794,8.8218,8.7786,8.7748,8.8132,8.8902,8.944,8.971,8.9893,9.0009,8.9787,8.9633,8.9748,9.0017,9.0355,9.0663,9.1047,9.1201,9.1201,9.1201,9.1201,9.1201,9.1201,9.1201,9.1201,9.1201,9.1201,9.1201,9.1201,9.1201,9.1201,9.124,9.1402,9.1748,9.2287,9.2864,9.2903,9.2749,9.4018,9.548,8.6917,8.6484,8.695,8.6964,8.6709,8.6306,8.6357,8.6522,8.6286,8.6094,8.6094,8.6094,8.7055,8.8709,9.0017,9.0316,9.0124,9.0355,9.047,9.0663,9.0932,9.1163,9.1201,9.1201,9.1201,9.1201,9.1201,9.1201,9.1201,9.1201,9.1201,9.1201,9.1201,9.1201,9.1201,9.1201,9.1201,9.1201,9.1201,9.1201,9.1201,9.1201,9.1201,9.1201,9.1201,9.1201,9.1201,9.1201,9.1201,9.1047,9.0355,8.9932,8.9701,8.9171,8.8564,8.8025,8.8248,8.8286,8.8025,8.794,8.7748,8.7363,8.7248,8.7132,8.7132,8.6978,8.6786,8.7132,8.6594,8.6401,8.6594,8.6671,8.6671,8.6671,8.6786,8.6901,8.7209,8.694,8.6786,8.7248,8.7671,8.8171,8.8632,8.8863,8.9056,8.9094,8.9133,8.9363,8.9902,9.0594,9.0855,9.1124,9.1201,9.1201,9.1201,9.1201,9.1201,9.1201,9.1201,9.1201,9.1201,9.1201,9.1201,9.1201,9.1201,9.1201,9.124,9.1364,9.1595,9.2326,9.3172,9.3133,9.3133,9.398,9.5066,8.7251,8.6362,8.7174,8.6987,8.6124,8.6094,8.6085,8.6094,8.6094,8.6094,8.6247,8.6594,8.7671,8.8902,9.0171,9.0509,9.0278,9.0701,9.0624,9.0586,9.0816,9.1124,9.1201,9.1201,9.1201,9.1201,9.1201,9.1201,9.1201,9.1201,9.1201,9.1201,9.1201,9.1201,9.1201,9.1201,9.1201,9.1201,9.1201,9.1201,9.1201,9.1201,9.1201,9.1201,9.1201,9.1201,9.1201,9.1201,9.1201,9.0663,8.9979,8.9393,8.9009,8.8248,8.7632,8.7171,8.7209,8.7171,8.7094,8.7017,8.6709,8.6363,8.6094,8.6363,8.6247,8.6094,8.6132,8.6324,8.6209,8.6094,8.6094,8.617,8.6209,8.6247,8.6209,8.6132,8.6132,8.6247,8.6324,8.6594,8.6901,8.6978,8.7401,8.7748,8.8025,8.8295,8.8564,8.8902,8.971,9.0594,9.0941,9.1163,9.1201,9.1201,9.1201,9.1201,9.1201,9.1201,9.1201,9.1201,9.1201,9.1201,9.1201,9.1201,9.1201,9.1201,9.1201,9.1287,9.1402,9.1941,9.2556,9.3335,9.3796,9.445,9.4566,8.7628,8.6197,8.7034,8.6889,8.6094,8.6094,8.6094,8.6094,8.6094,8.6094,8.6324,8.7671,8.8786,8.9671,9.0056,9.0586,9.1009,9.0316,9.0547,9.0902,9.1171,9.1201,9.1201,9.1201,9.1201,9.1201,9.1201,9.1201,9.1201,9.1201,9.1201,9.1201,9.1201,9.1201,9.1124,9.1056,9.1124,9.1095,9.0979,9.1056,9.1095,9.1133,9.1133,9.1163,9.1201,9.1201,9.1201,9.1201,9.0855,9.0201,8.9402,8.8556,8.8017,8.7209,8.6632,8.6478,8.6401,8.6401,8.6401,8.6401,8.6247,8.6132,8.6094,8.6094,8.6094,8.6094,8.6094,8.6094,8.6094,8.6094,8.6094,8.6094,8.6094,8.6094,8.6094,8.6094,8.6094,8.6094,8.617,8.6132,8.6247,8.644,8.6517,8.6901,8.7132,8.7401,8.7987,8.8325,8.9556,9.0432,9.0902,9.1133,9.1163,9.1201,9.1201,9.1201,9.1201,9.1201,9.1201,9.1201,9.1201,9.1201,9.1201,9.1201,9.1201,9.1201,9.1201,9.124,9.1325,9.1441,9.1979,9.2826,9.3258,9.3557,9.3633,8.7209,8.6209,8.7055,8.6901,8.6094,8.6094,8.6094,8.6094,8.6094,8.6094,8.6247,8.7872,8.8863,8.9325,9.0364,9.0864,9.1133,9.0893,9.0979,9.1056,9.1201,9.1201,9.1201,9.1201,9.1201,9.1201,9.1201,9.1201,9.1201,9.1201,9.1201,9.1201,9.1201,9.1201,9.1124,9.0787,9.074,9.0787,9.0364,9.0056,9.1009,9.0663,9.0663,9.1171,9.1201,9.1201,9.1201,9.1201,9.0663,8.9932,8.9056,8.8209,8.7401,8.6517,8.617,8.6094,8.6094,8.6094,8.6094,8.6094,8.6094,8.6094,8.6094,8.6094,8.6094,8.6094,8.6094,8.6094,8.6094,8.6094,8.6094,8.6094,8.6094,8.6094,8.6094,8.6094,8.6094,8.6094,8.6094,8.6094,8.6094,8.617,8.617,8.6209,8.6363,8.6594,8.7171,8.794,8.9278,9.0239,9.0663,9.1095,9.1163,9.1201,9.1201,9.1201,9.1201,9.1201,9.1201,9.1201,9.1201,9.1201,9.1201,9.1201,9.1201,9.1201,9.1201,9.1201,9.124,9.1364,9.1787,9.2479,9.271,9.2749,9.271,8.6901,8.6247,8.7055,8.6901,8.6124,8.6094,8.6094,8.6094,8.6094,8.6286,8.6555,8.7825,8.8487,8.9026,9.0056,9.074,9.0825,9.0941,9.1124,9.1201,9.1201,9.1201,9.1201,9.1201,9.1201,9.1201,9.1201,9.1201,9.1201,9.1201,9.1201,9.1201,9.1201,9.1201,9.1009,9.0432,9.0239,9.0278,8.971,8.9363,9.0517,9.0017,8.9932,9.0517,9.0479,9.0287,9.0248,9.0171,8.9787,8.9133,8.844,8.7825,8.7132,8.6517,8.617,8.6094,8.6094,8.6094,8.6094,8.6094,8.6094,8.6094,8.6094,8.6094,8.6094,8.6094,8.6094,8.6094,8.6094,8.6094,8.6094,8.6094,8.6094,8.6094,8.6094,8.6094,8.6094,8.6094,8.6094,8.6094,8.6094,8.6094,8.6094,8.6132,8.644,8.6671,8.7132,8.8055,8.9393,9.0163,9.0432,9.0855,9.1163,9.1201,9.1201,9.1201,9.1201,9.1201,9.1201,9.1201,9.1201,9.1124,9.1124,9.1201,9.1201,9.1201,9.1163,9.1171,9.1163,9.1201,9.1633,9.2056,9.1979,9.1979,9.1825,8.6863,8.6247,8.7017,8.6863,8.6209,8.6094,8.6132,8.6209,8.6132,8.6478,8.7055,8.7478,8.7948,8.8679,8.9633,9.0124,9.0316,9.0855,9.1201,9.1201,9.1201,9.1201,9.1201,9.1201,9.1201,9.1201,9.1201,9.1201,9.1201,9.1201,9.1201,9.1201,9.1201,9.1201,9.1095,9.0316,8.9932,8.9855,8.921,8.9363,8.9863,8.944,8.944,8.9825,8.9517,8.9257,8.9257,8.9257,8.8825,8.8055,8.7825,8.7209,8.6401,8.6247,8.6094,8.6094,8.6094,8.6094,8.6094,8.6094,8.6094,8.6094,8.6094,8.6094,8.6094,8.6094,8.6094,8.6094,8.6094,8.6094,8.6094,8.6094,8.6094,8.6094,8.6094,8.6094,8.6094,8.6094,8.6094,8.6094,8.6094,8.6094,8.6094,8.6209,8.6555,8.6901,8.7248,8.8209,8.947,8.9855,9.0047,9.0778,9.1201,9.1201,9.1201,9.1201,9.1201,9.1201,9.1047,9.0893,9.0778,9.0671,9.0787,9.1009,9.097,9.0778,9.0979,9.1171,9.1171,9.1201,9.1201,9.1402,9.1287,9.1325,9.1325,8.6363,8.6132,8.6401,8.6709,8.6863,8.6324,8.6401,8.6786,8.6401,8.6286,8.6632,8.7094,8.7517,8.8171,8.921,8.9855,9.0047,9.0778,9.1201,9.1201,9.1201,9.1201,9.1201,9.1201,9.1201,9.1201,9.1201,9.1201,9.1201,9.1201,9.1201,9.1201,9.1201,9.1201,9.097,9.0432,9.0124,9.0393,8.971,8.9286,9.0364,8.944,8.8979,8.9701,8.8979,8.8526,8.8487,8.8449,8.8064,8.7401,8.7286,8.6901,8.6247,8.6094,8.6094,8.6094,8.6094,8.6094,8.6094,8.6094,8.6094,8.6094,8.6094,8.6094,8.6094,8.6094,8.6094,8.6094,8.6094,8.6094,8.6094,8.6094,8.6094,8.6094,8.6094,8.6094,8.6094,8.6094,8.6094,8.6094,8.6094,8.6094,8.6094,8.6094,8.6401,8.6594,8.6863,8.8055,8.9402,8.9363,8.944,9.0586,9.1201,9.1201,9.1163,9.0893,9.0893,9.097,9.0624,9.0239,9.0163,9.0056,8.9825,8.9787,9.0056,9.0316,9.0547,9.0816,9.1086,9.1201,9.1201,9.1201,9.1201,9.124,9.124,8.6094,8.6094,8.6094,8.6594,8.7171,8.6478,8.644,8.6786,8.6363,8.6094,8.6247,8.6709,8.694,8.744,8.8594,8.947,8.9633,9.0701,9.1201,9.1201,9.1201,9.1201,9.1201,9.1201,9.1201,9.1201,9.1201,9.1201,9.1201,9.1201,9.1201,9.1201,9.1201,9.1201,9.0855,9.0287,8.9633,8.9556,8.8718,8.8209,8.8825,8.8632,8.8132,8.8479,8.8248,8.7709,8.7748,8.7709,8.7594,8.7132,8.6863,8.6709,8.6247,8.6094,8.6094,8.6094,8.6094,8.6094,8.6094,8.6094,8.6094,8.6094,8.6094,8.6094,8.6094,8.6094,8.6094,8.6094,8.6094,8.6094,8.6094,8.6094,8.6094,8.6094,8.6094,8.6094,8.6094,8.6094,8.6094,8.6094,8.6094,8.6094,8.6094,8.6094,8.6209,8.6286,8.644,8.7825,8.9094,8.9056,8.9133,9.021,9.0855,9.0778,9.0594,9.0325,9.0402,9.071,9.0171,8.9517,8.944,8.9325,8.8949,8.8679,8.9133,8.9633,9.0086,9.0432,9.0893,9.1163,9.1201,9.1201,9.1201,9.1201,9.1201,8.6094,8.6094,8.6094,8.6632,8.7171,8.6555,8.6247,8.617,8.6132,8.6094,8.6132,8.617,8.6286,8.6517,8.7979,8.8748,8.9171,9.0517,9.1009,9.1201,9.1201,9.1201,9.1201,9.1201,9.1201,9.1201,9.1201,9.1201,9.1201,9.1201,9.1201,9.1201,9.1201,9.1201,9.0748,9.0017,8.9325,8.8979,8.8402,8.8017,8.8248,8.7286,8.7286,8.744,8.7094,8.6632,8.6555,8.6478,8.6401,8.6247,8.617,8.6132,8.6094,8.6094,8.6094,8.6094,8.6094,8.6094,8.6094,8.6094,8.6094,8.6094,8.6094,8.6094,8.6094,8.6094,8.6094,8.6094,8.6094,8.6094,8.6094,8.6094,8.6094,8.6094,8.6094,8.6094,8.6094,8.6094,8.6094,8.6094,8.6094,8.6094,8.6094,8.6094,8.6094,8.6209,8.644,8.7209,8.8325,8.8825,8.9094,8.9902,9.0364,9.0278,9.0056,8.971,8.9671,8.9863,8.921,8.8632,8.8603,8.8449,8.8017,8.791,8.841,8.8987,8.9739,9.0393,9.0893,9.1086,9.1163,9.1201,9.1201,9.1201,9.1201,8.6094,8.6094,8.6094,8.6594,8.7286,8.7132,8.6671,8.6132,8.6094,8.6094,8.6094,8.6094,8.6094,8.6286,8.7902,8.8526,8.9334,9.021,9.0979,9.1201,9.1201,9.1201,9.1201,9.1201,9.1201,9.1201,9.1201,9.1201,9.1201,9.1201,9.1201,9.1201,9.1201,9.1201,9.0816,9.0094,8.9748,8.9248,8.8594,8.8171,8.7825,8.7209,8.7171,8.6978,8.6517,8.617,8.6094,8.6094,8.6094,8.6094,8.6094,8.6094,8.6094,8.6094,8.6094,8.6094,8.6094,8.6094,8.6094,8.6094,8.6094,8.6094,8.6094,8.6094,8.6094,8.6094,8.6094,8.6094,8.6094,8.6094,8.6094,8.6094,8.6094,8.6094,8.6094,8.6094,8.6094,8.6094,8.6094,8.6094,8.6094,8.6094,8.6094,8.6094,8.6132,8.617,8.6478,8.7094,8.7594,8.8141,8.8795,8.9556,8.9517,8.9402,8.9286,8.8949,8.8979,8.8902,8.8256,8.7795,8.7671,8.744,8.7055,8.7209,8.7833,8.8709,8.9701,9.0239,9.0624,9.1047,9.1201,9.1201,9.1201,9.1201,9.1201,8.6094,8.6094,8.6094,8.6401,8.6824,8.6901,8.6555,8.6132,8.6094,8.6094,8.6094,8.6094,8.6094,8.6286,8.7478,8.8333,8.8833,8.994,9.074,9.1201,9.1201,9.1201,9.1201,9.1201,9.1201,9.1201,9.1201,9.1201,9.1201,9.1201,9.1201,9.1201,9.1201,9.1201,9.1009,9.0671,9.0239,8.9701,8.9094,8.8517,8.7825,8.7248,8.6978,8.6824,8.6286,8.617,8.6094,8.6094,8.6094,8.6094,8.6094,8.6094,8.6094,8.6094,8.6094,8.6094,8.6094,8.6094,8.6094,8.6094,8.6094,8.6094,8.6094,8.6094,8.6094,8.6094,8.6094,8.6094,8.6094,8.6094,8.6094,8.6094,8.6094,8.6094,8.6094,8.6094,8.6094,8.6094,8.6094,8.6094,8.6094,8.6094,8.6094,8.6094,8.6132,8.6247,8.6401,8.6786,8.7171,8.7517,8.8209,8.8979,8.8671,8.8363,8.8256,8.8179,8.8017,8.7825,8.7363,8.6978,8.6786,8.6709,8.6555,8.6863,8.7325,8.8286,8.9325,8.9778,9.0201,9.0663,9.1124,9.1201,9.1201,9.1201,9.1201,8.6094,8.6094,8.6094,8.6132,8.6094,8.617,8.6132,8.6094,8.6094,8.6094,8.6094,8.6094,8.6094,8.6324,8.7363,8.8179,8.8902,8.9863,9.074,9.1163,9.1201,9.1201,9.1201,9.1201,9.1201,9.1201,9.1201,9.1201,9.1201,9.1201,9.1201,9.1201,9.1201,9.1201,9.1124,9.1086,9.0586,8.9816,8.8748,8.7709,8.6863,8.6286,8.6094,8.617,8.6094,8.6094,8.6094,8.6094,8.6094,8.6094,8.6094,8.6094,8.6094,8.6094,8.6094,8.6094,8.6094,8.6094,8.6094,8.6094,8.6094,8.6094,8.6094,8.6094,8.6094,8.6094,8.6094,8.6094,8.6094,8.6094,8.6094,8.6094,8.6094,8.6094,8.6094,8.6094,8.6094,8.6094,8.6094,8.6094,8.6094,8.6094,8.6094,8.6094,8.6094,8.6247,8.6401,8.6594,8.6748,8.7017,8.7478,8.8171,8.7786,8.744,8.7517,8.7363,8.6978,8.6709,8.6478,8.6401,8.644,8.6324,8.617,8.6632,8.7209,8.7948,8.8786,8.9248,8.9863,9.0509,9.0893,9.1124,9.1201,9.1201,9.1201,8.6094,8.6094,8.6094,8.6094,8.6094,8.6094,8.6094,8.6094,8.6094,8.6094,8.6094,8.6094,8.6132,8.6363,8.7671,8.8526,8.8949,8.994,9.0855,9.1086,9.1124,9.1086,9.1124,9.1047,9.1124,9.1201,9.1201,9.1201,9.1201,9.1201,9.1201,9.1201,9.1201,9.1201,9.1201,9.1163,9.074,9.0047,8.8902,8.7863,8.7209,8.644,8.6094,8.6094,8.6094,8.6094,8.6094,8.6094,8.6094,8.6094,8.6094,8.6094,8.6094,8.6094,8.6094,8.6094,8.6094,8.6094,8.6094,8.6094,8.6094,8.6094,8.6094,8.6094,8.6094,8.6094,8.6094,8.6094,8.6094,8.6094,8.6094,8.6094,8.6094,8.6094,8.6094,8.6094,8.6094,8.6094,8.6094,8.6094,8.6094,8.6094,8.6094,8.6094,8.6094,8.6132,8.617,8.6247,8.6286,8.644,8.6517,8.694,8.6748,8.6555,8.6709,8.6786,8.6517,8.6363,8.6286,8.617,8.6094,8.6286,8.6478,8.6709,8.7171,8.7948,8.8487,8.8748,8.9402,9.0364,9.0855,9.1124,9.1201,9.1201,9.1201,8.6094,8.6094,8.6094,8.6094,8.6094,8.6094,8.6094,8.6094,8.6094,8.6094,8.617,8.644,8.6671,8.6786,8.8102,8.8979,8.9286,9.0124,9.0393,9.0586,9.1018,9.0864,9.0825,9.0701,9.0941,9.1047,9.1163,9.1201,9.1201,9.1201,9.1201,9.1201,9.1201,9.1201,9.1201,9.1124,9.0979,9.0479,8.9325,8.8449,8.7709,8.6863,8.617,8.6094,8.6094,8.6094,8.6094,8.6094,8.6094,8.6094,8.6094,8.6094,8.6094,8.6094,8.6094,8.6094,8.6094,8.6094,8.6094,8.6094,8.6094,8.6094,8.6094,8.6094,8.6094,8.6094,8.6094,8.6094,8.6094,8.6094,8.6094,8.6094,8.6094,8.6094,8.6094,8.6094,8.6094,8.6094,8.6094,8.6094,8.6094,8.6094,8.6094,8.6094,8.6094,8.6094,8.6094,8.6132,8.6094,8.6094,8.6094,8.6094,8.6094,8.6094,8.6324,8.6363,8.6247,8.6132,8.6094,8.6094,8.6132,8.6517,8.6824,8.6863,8.7171,8.7987,8.8449,8.8594,8.9556,9.0671,9.1009,9.1163,9.1163,9.1086,9.1124,8.6094,8.6094,8.6094,8.6094,8.6094,8.6094,8.6094,8.6094,8.6094,8.6094,8.6286,8.7132,8.7478,8.7709,8.8325,8.9133,8.9816,9.0316,9.0278,9.0239,9.0855,9.0663,9.0316,9.0047,9.0432,9.0816,9.1047,9.1124,9.1201,9.1201,9.1201,9.1201,9.1201,9.1201,9.1201,9.1163,9.1018,9.0402,8.9517,8.8709,8.7902,8.7017,8.6363,8.6094,8.6094,8.6094,8.6094,8.6094,8.6094,8.6094,8.6094,8.6094,8.6094,8.6094,8.6094,8.6094,8.6094,8.6094,8.6094,8.6094,8.6094,8.6094,8.6094,8.6094,8.6094,8.6094,8.6094,8.6094,8.6094,8.6094,8.6094,8.6094,8.6094,8.6094,8.6094,8.6094,8.6094,8.6094,8.6094,8.6094,8.6094,8.6094,8.6094,8.6094,8.6094,8.6094,8.6094,8.6094,8.6094,8.6094,8.6094,8.6094,8.6094,8.6094,8.6094,8.6094,8.6094,8.6094,8.6094,8.6094,8.617,8.6401,8.6594,8.6748,8.7209,8.7679,8.8209,8.8479,8.9594,9.0441,9.0364,9.0287,9.074,9.074,9.097,8.6094,8.6094,8.6094,8.6094,8.6094,8.6094,8.6094,8.6094,8.6094,8.6094,8.6478,8.7632,8.8141,8.744,8.8333,8.921,9.0086,9.0509,9.0316,9.0163,9.0816,9.0547,9.0047,8.9663,8.997,9.0278,9.071,9.1133,9.1163,9.1201,9.1201,9.1201,9.1201,9.1201,9.1201,9.1124,9.0902,9.0287,8.944,8.8487,8.7632,8.6863,8.6286,8.6094,8.6094,8.6094,8.6094,8.6094,8.6094,8.6094,8.6094,8.6094,8.6094,8.6094,8.6094,8.6094,8.6094,8.6094,8.6094,8.6094,8.6094,8.6094,8.6094,8.6094,8.6094,8.6094,8.6094,8.6094,8.6094,8.6094,8.6094,8.6094,8.6094,8.6094,8.6094,8.6094,8.6094,8.6094,8.6094,8.6094,8.6094,8.6094,8.6094,8.6094,8.6094,8.6094,8.6094,8.6094,8.6094,8.6094,8.6094,8.6094,8.6094,8.6094,8.6094,8.6094,8.6094,8.6094,8.6094,8.6094,8.6094,8.6132,8.6286,8.6555,8.6632,8.694,8.7478,8.8325,8.8363,8.894,8.9017,8.9171,8.9787,9.0355,9.0586]}]]